[[{"header":{"parameterUnit":"m.s-1","parameterCategory":1,"la1":30.6,"la2":29.2853,"lo1":-89.7004,"lo2":-87.6739,"dy":0.0162,"dx":0.0183,"nx":112,"ny":82,"refTime":"2026-02-19T00:00:00:Z","depth":0,"parameterNumber":2,"parameterNumberName":"U-component_of_WINDS"},"data":[0.0,0.0,0.0,0.0,0.0,0.0,0.0,0.0,0.0,0.0,0.0,0.0,0.0,0.0,0.0,0.0,0.0,0.0,0.0,0.0,0.0,0.0,0.0,0.0,0.0,0.0,0.0,0.0,0.0,0.0,0.0,0.0,0.0,0.0,0.0,0.0,0.0,0.0,0.0,0.0,0.0,0.0,0.0,0.0,0.0,0.0,0.0,0.0,0.0,0.0,0.0,0.0,0.0,0.0,0.0,0.0,0.0,0.0,0.0,0.0,0.0,0.0,0.0,0.0,0.0,0.0,0.0,0.0,0.0,0.0,0.0,0.0,0.0,0.0,0.0,0.0,0.0,0.0,0.0,0.0,0.0,0.0,0.0,0.0,0.0,0.0,0.0,0.0,0.0,0.0,0.0,10.3011,12.181,13.3196,13.2394,12.9222,11.7721,9.5102,0.0,0.0,0.0,0.0,0.0,0.0,0.0,0.0,0.0,0.0,0.0,0.0,0.0,0.0,0.0,0.0,0.0,0.0,0.0,0.0,0.0,0.0,0.0,0.0,0.0,0.0,0.0,0.0,0.0,0.0,0.0,0.0,0.0,0.0,0.0,0.0,0.0,0.0,0.0,0.0,0.0,0.0,0.0,0.0,0.0,0.0,0.0,0.0,0.0,0.0,0.0,0.0,0.0,0.0,0.0,0.0,0.0,0.0,0.0,0.0,0.0,0.0,0.0,0.0,0.0,0.0,0.0,0.0,0.0,0.0,0.0,0.0,0.0,0.0,0.0,0.0,0.0,0.0,0.0,0.0,0.0,0.0,0.0,0.0,0.0,0.0,0.0,0.0,0.0,0.0,0.0,0.0,0.0,0.0,0.0,0.0,0.0,0.0,0.0,0.0,0.0,0.0,0.0,0.0,9.8464,12.3414,13.1094,13.4113,13.3196,12.6891,11.5314,9.7432,0.0,0.0,0.0,0.0,0.0,0.0,0.0,0.0,0.0,0.0,0.0,0.0,0.0,0.0,0.0,0.0,0.0,0.0,0.0,0.0,0.0,0.0,0.0,0.0,0.0,0.0,0.0,0.0,0.0,0.0,0.0,0.0,0.0,0.0,0.0,0.0,0.0,0.0,0.0,0.0,0.0,0.0,0.0,0.0,0.0,0.0,0.0,0.0,0.0,0.0,0.0,0.0,0.0,0.0,0.0,0.0,0.0,0.0,0.0,0.0,0.0,0.0,0.0,0.0,0.0,0.0,0.0,0.0,0.0,0.0,0.0,0.0,0.0,0.0,0.0,0.0,0.0,0.0,0.0,0.0,0.0,0.0,0.0,0.0,0.0,0.0,0.0,0.0,0.0,0.0,0.0,0.0,0.0,0.0,0.0,0.0,0.0,0.0,0.0,0.0,0.0,0.0,0.0,9.151,10.5189,12.8993,13.4189,13.5183,13.3502,12.7579,11.6078,9.7394,8.937,0.0,0.0,0.0,0.0,0.0,0.0,0.0,0.0,0.0,0.0,0.0,0.0,0.0,0.0,0.0,0.0,0.0,0.0,0.0,0.0,0.0,0.0,0.0,0.0,0.0,0.0,0.0,0.0,0.0,0.0,0.0,0.0,0.0,0.0,0.0,0.0,0.0,0.0,0.0,0.0,0.0,0.0,0.0,0.0,0.0,0.0,0.0,0.0,0.0,0.0,0.0,0.0,0.0,0.0,0.0,0.0,0.0,0.0,0.0,0.0,0.0,0.0,0.0,0.0,0.0,0.0,0.0,0.0,0.0,0.0,0.0,0.0,0.0,0.0,0.0,0.0,0.0,0.0,0.0,0.0,0.0,0.0,0.0,0.0,0.0,0.0,0.0,0.0,0.0,0.0,0.0,0.0,0.0,0.0,0.0,0.0,0.0,0.0,0.0,0.0,0.0,0.0,10.4501,11.5008,13.1285,13.5603,13.6291,13.3502,12.7388,11.5582,9.6515,8.6237,0.0,0.0,0.0,0.0,0.0,0.0,0.0,0.0,0.0,0.0,0.0,0.0,0.0,0.0,0.0,0.0,0.0,0.0,0.0,0.0,0.0,0.0,0.0,0.0,0.0,0.0,0.0,0.0,0.0,0.0,0.0,0.0,0.0,0.0,0.0,0.0,0.0,0.0,0.0,0.0,0.0,0.0,0.0,0.0,0.0,0.0,0.0,0.0,0.0,0.0,0.0,0.0,0.0,0.0,0.0,0.0,0.0,0.0,0.0,0.0,0.0,0.0,0.0,0.0,0.0,0.0,0.0,0.0,0.0,0.0,0.0,0.0,0.0,0.0,0.0,0.0,0.0,0.0,0.0,0.0,0.0,0.0,0.0,0.0,0.0,0.0,0.0,0.0,0.0,0.0,0.0,0.0,0.0,0.0,0.0,0.0,0.0,0.0,0.0,0.0,0.0,0.0,11.5085,13.0483,13.5106,13.7208,13.6902,13.3578,12.3682,11.0997,9.5407,8.2073,0.0,0.0,0.0,0.0,0.0,0.0,0.0,0.0,0.0,0.0,0.0,0.0,0.0,0.0,0.0,0.0,0.0,0.0,0.0,0.0,0.0,0.0,0.0,0.0,0.0,0.0,0.0,0.0,0.0,0.0,0.0,0.0,0.0,0.0,0.0,0.0,0.0,0.0,0.0,0.0,0.0,0.0,0.0,0.0,0.0,0.0,0.0,0.0,0.0,0.0,0.0,0.0,0.0,0.0,0.0,0.0,0.0,0.0,0.0,0.0,0.0,0.0,0.0,0.0,0.0,0.0,0.0,0.0,0.0,0.0,0.0,0.0,0.0,0.0,0.0,0.0,0.0,0.0,0.0,0.0,0.0,0.0,0.0,0.0,0.0,0.0,0.0,0.0,0.0,0.0,0.0,0.0,0.0,0.0,0.0,0.0,0.0,0.0,0.0,0.0,0.0,0.0,11.0385,12.5096,0.0,13.7399,13.7208,13.438,12.7006,11.4397,9.5484,0.0,0.0,0.0,0.0,0.0,0.0,0.0,0.0,0.0,0.0,0.0,0.0,0.0,0.0,0.0,0.0,0.0,0.0,0.0,0.0,0.0,0.0,0.0,0.0,0.0,0.0,0.0,0.0,0.0,0.0,0.0,0.0,0.0,0.0,0.0,0.0,0.0,0.0,0.0,0.0,0.0,0.0,0.0,0.0,0.0,0.0,0.0,0.0,0.0,0.0,0.0,0.0,0.0,0.0,0.0,0.0,0.0,0.0,0.0,0.0,0.0,0.0,0.0,0.0,0.0,0.0,0.0,0.0,0.0,0.0,0.0,0.0,0.0,0.0,0.0,0.0,0.0,0.0,0.0,0.0,0.0,0.0,0.0,0.0,0.0,0.0,0.0,0.0,0.0,0.0,0.0,0.0,0.0,0.0,0.0,0.0,0.0,0.0,0.0,0.0,0.0,0.0,9.3268,11.0423,12.521,0.0,13.7705,13.7284,13.438,12.7312,11.4588,9.4758,0.0,0.0,0.0,0.0,0.0,0.0,0.0,0.0,0.0,0.0,0.0,0.0,0.0,0.0,0.0,0.0,0.0,0.0,0.0,0.0,0.0,0.0,0.0,0.0,0.0,0.0,0.0,0.0,0.0,0.0,0.0,0.0,0.0,0.0,0.0,0.0,0.0,0.0,0.0,0.0,0.0,0.0,0.0,0.0,0.0,0.0,0.0,0.0,0.0,0.0,0.0,0.0,0.0,0.0,0.0,0.0,0.0,0.0,0.0,0.0,0.0,0.0,0.0,0.0,0.0,0.0,0.0,0.0,0.0,0.0,0.0,0.0,0.0,0.0,0.0,0.0,0.0,0.0,0.0,0.0,0.0,0.0,0.0,0.0,0.0,0.0,0.0,0.0,0.0,0.0,0.0,0.0,0.0,0.0,0.0,0.0,0.0,0.0,0.0,0.0,0.0,0.0,9.5904,11.818,13.461,13.801,13.8392,13.6979,13.3578,12.33,10.9889,0.0,0.0,0.0,0.0,0.0,0.0,0.0,0.0,0.0,0.0,0.0,0.0,0.0,0.0,0.0,0.0,0.0,0.0,0.0,0.0,0.0,0.0,0.0,0.0,0.0,0.0,0.0,0.0,0.0,0.0,0.0,0.0,0.0,0.0,0.0,0.0,0.0,0.0,0.0,0.0,0.0,0.0,0.0,0.0,0.0,0.0,0.0,0.0,0.0,0.0,0.0,0.0,0.0,0.0,0.0,0.0,0.0,0.0,0.0,0.0,0.0,0.0,0.0,0.0,0.0,0.0,0.0,0.0,0.0,0.0,0.0,0.0,0.0,0.0,0.0,0.0,0.0,0.0,0.0,0.0,0.0,0.0,0.0,0.0,0.0,0.0,0.0,0.0,0.0,0.0,0.0,0.0,0.0,0.0,0.0,0.0,0.0,0.0,0.0,0.0,0.0,0.0,0.0,0.0,11.818,13.461,13.801,13.8392,13.6979,13.3578,12.6509,11.3595,9.3077,0.0,0.0,0.0,0.0,0.0,0.0,0.0,0.0,0.0,0.0,0.0,0.0,0.0,0.0,0.0,0.0,0.0,0.0,0.0,0.0,0.0,0.0,0.0,0.0,0.0,0.0,0.0,0.0,0.0,0.0,0.0,0.0,0.0,0.0,0.0,0.0,0.0,0.0,0.0,0.0,0.0,0.0,0.0,0.0,0.0,0.0,0.0,0.0,0.0,0.0,0.0,0.0,0.0,0.0,0.0,0.0,0.0,0.0,0.0,0.0,0.0,0.0,0.0,0.0,0.0,0.0,0.0,0.0,0.0,0.0,0.0,0.0,0.0,0.0,0.0,0.0,0.0,0.0,0.0,0.0,0.0,0.0,0.0,0.0,0.0,0.0,0.0,0.0,0.0,0.0,0.0,0.0,0.0,0.0,0.0,0.0,0.0,0.0,0.0,0.0,0.0,0.0,9.5904,11.7912,13.4304,13.801,13.8087,13.6596,13.3578,12.8191,11.6499,9.6554,0.0,0.0,0.0,0.0,0.0,0.0,0.0,0.0,0.0,0.0,0.0,0.0,0.0,0.0,0.0,0.0,0.0,0.0,0.0,0.0,0.0,0.0,0.0,0.0,0.0,0.0,0.0,0.0,0.0,0.0,0.0,0.0,0.0,0.0,0.0,0.0,0.0,0.0,0.0,0.0,0.0,0.0,0.0,0.0,0.0,0.0,0.0,0.0,0.0,0.0,0.0,0.0,0.0,0.0,0.0,0.0,0.0,0.0,0.0,0.0,0.0,0.0,0.0,0.0,0.0,0.0,0.0,0.0,0.0,0.0,0.0,0.0,0.0,0.0,0.0,0.0,0.0,0.0,0.0,0.0,0.0,0.0,0.0,0.0,0.0,0.0,0.0,0.0,0.0,0.0,0.0,0.0,0.0,0.0,0.0,0.0,0.0,0.0,0.0,0.0,0.0,0.0,9.5904,11.7492,13.3693,13.7781,13.759,13.5985,13.3425,12.8611,11.8715,10.2085,0.0,0.0,0.0,0.0,0.0,0.0,0.0,0.0,0.0,0.0,0.0,0.0,0.0,0.0,0.0,0.0,0.0,0.0,0.0,0.0,0.0,0.0,0.0,0.0,0.0,0.0,0.0,0.0,0.0,0.0,0.0,0.0,0.0,0.0,0.0,0.0,0.0,0.0,0.0,0.0,0.0,0.0,0.0,0.0,0.0,0.0,0.0,0.0,0.0,0.0,0.0,0.0,0.0,0.0,0.0,0.0,0.0,0.0,0.0,0.0,7.855,0.0,0.0,0.0,0.0,0.0,0.0,0.0,0.0,0.0,0.0,0.0,0.0,0.0,0.0,0.0,0.0,0.0,0.0,0.0,0.0,0.0,0.0,0.0,0.0,0.0,0.0,0.0,0.0,0.0,0.0,0.0,0.0,0.0,0.0,0.0,0.0,0.0,0.0,0.0,0.0,0.0,9.5904,11.7492,13.3502,13.6979,13.7208,13.5693,13.2397,12.8086,11.9615,10.5295,0.0,0.0,0.0,0.0,0.0,0.0,0.0,0.0,0.0,0.0,0.0,0.0,0.0,0.0,0.0,0.0,0.0,0.0,0.0,0.0,0.0,0.0,0.0,0.0,0.0,0.0,0.0,0.0,0.0,0.0,0.0,0.0,0.0,0.0,0.0,0.0,0.0,0.0,0.0,0.0,0.0,0.0,0.0,0.0,0.0,0.0,0.0,0.0,0.0,0.0,0.0,0.0,0.0,0.0,0.0,0.0,0.0,0.0,0.0,0.0,0.0,8.3486,0.0,0.0,0.0,0.0,0.0,0.0,0.0,0.0,0.0,0.0,0.0,0.0,0.0,0.0,0.0,0.0,0.0,0.0,0.0,0.0,0.0,0.0,0.0,0.0,0.0,0.0,0.0,0.0,0.0,0.0,0.0,0.0,0.0,0.0,0.0,0.0,0.0,0.0,0.0,0.0,9.5407,11.6499,13.2064,13.54,13.5781,13.4801,13.2471,12.8813,12.2108,11.1385,10.0494,0.0,0.0,0.0,0.0,0.0,0.0,0.0,0.0,0.0,0.0,0.0,0.0,0.0,0.0,0.0,0.0,0.0,0.0,0.0,0.0,0.0,0.0,0.0,0.0,0.0,0.0,0.0,0.0,0.0,0.0,0.0,0.0,0.0,0.0,0.0,0.0,0.0,0.0,0.0,0.0,0.0,0.0,0.0,0.0,0.0,0.0,0.0,0.0,0.0,0.0,0.0,0.0,0.0,0.0,0.0,10.0174,10.048,10.3688,10.8613,10.0696,9.8854,10.0604,0.0,0.0,0.0,0.0,0.0,0.0,0.0,0.0,0.0,0.0,0.0,0.0,0.0,0.0,0.0,0.0,0.0,0.0,0.0,0.0,0.0,0.0,0.0,0.0,0.0,9.5255,9.6592,0.0,0.0,0.0,0.0,0.0,0.0,0.0,0.0,0.0,0.0,0.0,0.0,9.6477,11.6193,13.0804,13.3783,13.4088,13.3718,13.2576,12.9685,12.5082,11.8196,10.7376,9.7528,0.0,0.0,0.0,0.0,0.0,0.0,0.0,0.0,0.0,0.0,0.0,0.0,0.0,0.0,0.0,0.0,0.0,0.0,0.0,0.0,0.0,0.0,0.0,0.0,0.0,0.0,0.0,0.0,0.0,0.0,0.0,0.0,7.7561,8.0884,0.0,0.0,0.0,0.0,0.0,0.0,0.0,0.0,0.0,0.0,0.0,0.0,0.0,0.0,9.2712,10.1889,10.6328,10.5897,11.4985,11.8731,11.7623,11.9037,12.0472,12.2077,12.2994,0.0,10.4692,9.9916,0.0,0.0,0.0,0.0,0.0,0.0,0.0,0.0,0.0,0.0,0.0,0.0,0.0,0.0,0.0,0.0,0.0,0.0,0.0,0.0,0.0,0.0,10.7711,10.6526,10.8284,10.901,0.0,9.0593,7.7831,7.4049,0.0,0.0,0.0,0.0,0.0,0.0,0.0,0.0,10.3011,11.9097,13.0499,13.2982,13.3287,13.2814,13.1604,12.9818,12.6978,12.3103,11.5203,10.6998,9.8719,8.9399,0.0,0.0,0.0,0.0,0.0,0.0,0.0,0.0,0.0,0.0,0.0,0.0,0.0,0.0,0.0,0.0,0.0,0.0,0.0,0.0,0.0,0.0,0.0,0.0,0.0,0.0,0.0,0.0,0.0,7.327,7.8317,7.8918,7.7131,7.3041,0.0,0.0,0.0,0.0,0.0,0.0,0.0,0.0,0.0,9.6576,9.9402,10.3114,10.7886,11.4603,11.8005,11.8196,12.4484,12.7388,12.7197,12.7885,12.8687,12.949,13.0101,12.6395,11.9211,11.0997,10.282,9.4529,0.0,0.0,0.0,0.0,0.0,8.8033,9.6821,0.0,0.0,0.0,0.0,0.0,0.0,0.0,0.0,0.0,0.0,0.0,0.0,0.0,0.0,11.4091,11.6804,11.7798,11.5696,10.7099,9.6898,0.0,8.1767,7.531,6.4496,0.0,0.0,0.0,0.0,0.0,10.5991,11.9785,12.9811,13.2105,13.2345,13.1996,13.1384,13.0138,12.7906,12.4605,11.9494,11.3943,10.8005,9.7945,8.8273,0.0,0.0,0.0,0.0,0.0,0.0,0.0,0.0,0.0,0.0,0.0,0.0,0.0,0.0,0.0,0.0,0.0,0.0,0.0,0.0,0.0,0.0,0.0,0.0,0.0,0.0,0.0,0.0,7.7667,8.1757,7.9292,8.1875,7.9507,0.0,0.0,0.0,0.0,0.0,0.0,9.1479,9.5581,10.1322,10.911,11.2208,11.6208,12.1389,12.479,12.6891,12.7808,13.0483,13.2011,13.2394,13.3081,13.3502,13.3578,13.3502,13.2814,13.098,12.0396,11.3289,10.8284,9.9687,9.5293,0.0,9.7662,9.9419,10.1483,11.1188,11.3595,11.1799,10.8398,0.0,9.6172,8.7345,0.0,0.0,0.0,0.0,9.1969,10.1903,0.0,11.1608,11.8485,12.181,12.2994,12.1695,11.8103,11.1684,0.0,9.4872,8.811,7.5042,0.0,0.0,0.0,0.0,10.3508,11.0487,12.1218,12.9025,13.1099,13.1311,13.1102,13.0897,13.0188,12.8602,12.5608,12.2689,11.9316,11.5298,10.6411,9.8424,9.1708,0.0,0.0,0.0,0.0,0.0,0.0,0.0,0.0,0.0,0.0,0.0,0.0,0.0,0.0,0.0,0.0,0.0,0.0,0.0,0.0,0.0,0.0,0.0,0.0,0.0,0.0,0.0,0.0,0.0,8.8232,9.4615,0.0,0.0,0.0,0.0,8.5934,9.0949,9.7112,10.4386,10.8001,11.3699,12.2077,12.4102,12.67,13.0101,13.1209,13.2088,13.289,13.3884,13.3998,13.3311,13.5679,13.5985,13.461,13.6176,13.5909,13.3884,12.6815,12.0511,11.4817,11.0309,10.6106,10.3278,10.901,11.1608,11.3213,11.9403,12.0893,11.9708,11.6193,10.6908,9.728,9.8999,9.3955,0.0,0.0,9.9075,10.3202,11.2487,11.6308,11.8409,12.1198,12.2612,12.33,12.3185,11.7989,11.2907,0.0,10.6985,10.1292,9.4108,0.0,9.2962,9.5102,10.11,10.8921,11.8604,12.4706,12.8585,12.9894,13.0092,12.9986,12.989,12.9815,12.9019,12.7275,12.5494,12.2992,11.9619,11.5184,10.861,9.96,9.0987,0.0,0.0,0.0,0.0,0.0,0.0,0.0,0.0,0.0,0.0,0.0,0.0,0.0,0.0,0.0,0.0,0.0,0.0,0.0,0.0,0.0,0.0,0.0,0.0,0.0,0.0,0.0,0.0,9.4439,10.1775,0.0,0.0,9.4926,9.8134,9.8968,10.5696,11.1965,11.6804,11.9725,12.3204,12.7197,12.8382,12.991,13.1591,13.2508,13.3311,13.4189,13.5488,13.5985,13.5794,13.6673,13.6788,13.6176,13.6291,13.5679,13.438,13.2011,12.8496,12.4408,12.2421,12.0014,11.818,12.1886,12.3491,12.4102,12.6777,12.7082,12.5592,12.0587,11.4091,10.8284,10.8589,10.6297,10.4195,10.7711,11.0118,11.2601,11.6995,11.9403,12.1007,12.2497,12.3491,12.4217,12.479,12.2612,12.0205,11.9403,11.2487,10.5189,10.0107,10.2094,10.3584,10.1292,10.7686,11.5037,12.1312,12.5461,12.8331,12.9305,12.978,13.0016,12.991,12.9316,12.8185,12.6593,12.4887,12.25,11.9202,11.6587,11.219,10.5728,9.9926,8.9432,0.0,0.0,0.0,0.0,0.0,0.0,0.0,0.0,0.0,0.0,0.0,0.0,0.0,0.0,0.0,0.0,0.0,0.0,0.0,0.0,0.0,0.0,0.0,0.0,0.0,0.0,10.2119,9.804,10.7896,11.0831,10.0206,10.5706,11.0474,11.1608,11.7607,12.2497,12.5287,12.7312,12.8878,12.9986,13.0483,13.1285,13.2508,13.3005,13.3884,13.5106,13.6405,13.7093,13.7093,13.7705,13.759,13.7093,13.6788,13.61,13.4992,13.4992,13.3578,13.1209,13.0292,12.9299,12.8496,13.0177,13.0674,13.0407,13.0407,12.991,12.8382,12.3911,12.0205,11.7301,11.6117,11.52,11.4779,11.5887,11.6995,11.8218,11.9594,12.1198,12.2612,12.3185,12.4083,12.4999,12.5707,12.5076,12.4197,12.3414,11.7416,11.1417,10.8016,11.0601,11.1594,10.6908,11.3129,11.8984,12.0965,12.4803,12.768,12.8754,12.9295,12.953,12.953,12.6616,12.4803,12.4774,12.0756,11.7939,11.6511,11.354,11.0014,10.5804,10.0192,9.0911,7.7903,0.0,0.0,0.0,0.0,0.0,0.0,0.0,0.0,0.0,0.0,0.0,0.0,0.0,0.0,0.0,0.0,0.0,0.0,0.0,0.0,0.0,0.0,0.0,8.6547,9.8395,10.5276,9.9874,11.3584,11.9725,10.9875,11.6323,12.1695,12.3414,12.5783,12.7885,12.9604,13.0407,13.0789,13.0789,13.0903,13.1706,13.3311,13.3311,13.4189,13.5909,13.6711,13.7093,13.7208,13.8813,13.8698,13.7208,13.801,13.7513,13.5909,13.5909,13.5412,13.461,13.3693,13.3311,13.3311,13.3311,13.2814,13.1897,13.0292,12.9108,12.8114,12.6395,12.4714,12.3109,12.1389,12.032,11.9594,11.9594,11.9594,11.9785,12.0702,12.2115,12.33,12.33,12.4406,12.5491,12.5687,12.5017,12.4118,12.3395,12.1924,12.032,11.8715,11.8222,11.683,11.2893,11.7594,0.0,11.8196,12.2787,12.6797,12.8141,12.8185,12.8299,12.8185,12.1607,11.8799,12.2007,11.3829,10.9807,11.2114,10.6809,10.2728,10.0185,9.1909,8.5569,8.1388,0.0,0.0,0.0,0.0,0.0,0.0,0.0,0.0,0.0,0.0,0.0,0.0,0.0,0.0,0.0,0.0,0.0,0.0,0.0,0.0,0.0,0.0,9.77,9.8318,10.8589,11.6575,11.8081,12.393,12.6471,12.3071,12.5478,12.7388,12.7808,12.9108,12.9986,13.0407,13.1285,13.1706,13.1706,13.2279,13.3081,13.4189,13.4189,13.4801,13.5909,13.6711,13.7093,13.7093,13.8201,13.8507,13.8087,13.8278,13.7781,13.6788,13.6788,13.6291,13.5488,13.5297,13.4113,13.2585,13.3807,13.3311,13.2088,13.2202,13.0903,12.9108,12.7999,12.6509,12.4905,12.3797,12.2918,12.2306,12.2306,12.2306,12.2306,12.2612,12.2994,12.3414,12.3988,12.3968,12.4121,12.4635,12.4041,12.3143,12.2244,12.1575,12.1024,12.0111,11.9787,11.9825,11.9784,12.1202,0.0,12.2901,12.543,12.5562,12.1797,12.248,12.2973,12.2366,11.8293,11.6788,11.9392,11.4389,11.1113,11.0485,10.8362,10.6411,10.4515,9.5047,8.872,0.0,0.0,0.0,0.0,0.0,0.0,0.0,0.0,0.0,0.0,0.0,0.0,0.0,0.0,0.0,0.0,0.0,0.0,0.0,0.0,0.0,0.0,9.877,10.7902,11.2105,11.8103,12.33,12.6509,12.8802,12.991,12.9413,12.9795,13.0101,13.0101,13.0903,13.1285,13.1285,13.2088,13.2585,13.2585,13.3081,13.3693,13.461,13.461,13.4992,13.5909,13.6711,13.7093,13.7093,13.801,13.8392,0.0,13.801,13.759,13.7093,13.6711,13.6291,0.0,0.0,0.0,0.0,0.0,13.3998,13.3119,13.289,13.1897,13.0407,12.9184,12.7885,12.6586,12.5401,12.4484,12.372,12.3414,12.33,12.33,12.33,12.351,12.393,12.4408,12.4291,12.4194,12.4329,12.3905,12.3099,12.1918,0.0,0.0,12.0905,12.0524,12.0083,11.9703,12.1229,12.2317,12.1926,12.4415,12.5145,12.21,12.2594,12.3011,12.2594,11.7306,0.0,0.0,0.0,10.607,10.368,10.3187,0.0,0.0,0.0,0.0,0.0,0.0,0.0,0.0,8.3519,8.2412,0.0,0.0,0.0,0.0,0.0,0.0,0.0,0.0,0.0,0.0,0.0,0.0,0.0,0.0,0.0,0.0,10.9201,11.7989,12.5096,12.6204,12.6891,12.842,12.991,13.0789,13.0789,13.0903,13.0903,13.0903,13.1706,13.2202,13.2202,0.0,0.0,0.0,0.0,13.3998,13.4686,13.4686,13.5106,13.5909,13.6711,13.7093,13.6979,13.801,13.8392,13.8392,13.759,13.7208,13.7208,13.6405,13.5985,13.5909,13.5794,13.5794,13.5718,13.4915,13.4495,0.0,0.0,0.0,0.0,13.0101,12.9108,12.8114,12.6509,12.5401,12.4599,12.3797,12.3605,12.3605,12.3605,12.3986,12.4499,12.4579,12.4897,12.5118,12.4597,12.4112,12.3395,12.207,12.1705,12.162,12.1394,12.071,11.9215,11.6463,11.9812,0.0,11.8825,12.2376,12.5191,12.5191,0.0,0.0,12.5077,11.7396,11.3981,11.708,10.7227,9.9843,9.6692,9.6616,9.6654,9.654,9.8021,10.089,10.5178,10.6088,10.7111,10.7718,9.1074,8.888,0.0,0.0,0.0,0.0,0.0,0.0,0.0,0.0,0.0,0.0,0.0,0.0,0.0,0.0,0.0,10.3622,11.4206,12.3109,12.7197,12.8993,12.9986,13.0292,13.0598,13.0789,13.0789,13.14,13.182,13.182,13.2585,13.3081,13.3081,13.3884,0.0,13.4304,13.4992,13.5488,13.5603,13.5603,13.5718,13.5909,0.0,0.0,13.6214,13.7705,13.8392,13.8392,13.8201,13.8087,13.8087,13.7208,13.6482,13.5794,13.5106,13.4915,13.4801,13.4686,13.3693,13.2585,13.3005,13.2202,13.0903,12.991,12.949,12.8993,12.7388,12.67,0.0,12.5592,12.5287,12.5287,12.5287,12.5401,12.5457,12.5516,12.5017,12.4417,12.4203,12.3408,12.2685,12.2317,12.2214,12.2073,12.2111,12.152,12.1178,12.1835,12.3324,12.4281,12.4424,12.6366,12.5827,12.0659,12.0723,12.0609,11.9318,11.5712,11.4588,11.708,11.1963,10.8117,10.6145,10.6581,10.6581,10.5974,10.6335,10.6884,10.7907,10.8703,11.0598,11.3214,10.6335,10.4325,0.0,0.0,0.0,0.0,0.0,0.0,0.0,0.0,0.0,0.0,0.0,8.2646,0.0,0.0,10.5112,11.3213,12.0205,12.5707,12.9108,13.0292,13.0789,13.0789,13.0789,13.098,13.14,13.182,13.2317,13.2699,13.3502,13.3998,13.3998,13.4801,13.5297,13.5297,13.5718,13.5909,13.5909,13.6291,13.6482,13.6482,13.6902,13.7093,13.7208,13.759,13.801,13.8392,13.7896,13.7705,13.7705,13.6788,13.6291,13.5909,13.5412,13.5297,13.5297,13.5297,13.4686,13.3922,13.3502,13.2776,13.1782,13.0598,12.991,12.9375,12.8611,12.7808,12.7006,12.6586,12.6089,12.5898,12.6162,12.5911,12.5698,12.6079,12.5385,12.4498,12.4118,12.3598,12.3091,12.2545,12.2404,12.2518,12.2803,12.2604,12.2708,12.3371,12.3902,12.4584,12.5797,12.6403,12.5683,12.3315,12.3011,12.2821,12.2442,11.971,11.7977,11.7989,11.5184,11.291,11.1205,11.1887,11.2114,11.1697,11.2493,11.3214,11.3593,11.4389,11.5905,11.7913,11.5791,11.4616,0.0,0.0,0.0,0.0,0.0,0.0,0.0,0.0,7.5424,8.3066,8.7995,9.3115,10.0489,10.6182,11.2792,12.2001,12.521,12.7503,13.0407,13.0789,13.0789,13.0789,13.0903,13.14,13.2202,13.2508,13.289,13.3502,13.438,13.4915,13.4915,13.5488,13.5909,13.5909,13.5909,13.5985,13.61,13.6788,13.7093,13.7093,13.7284,13.7513,13.7896,13.7284,13.7475,13.8087,13.7399,13.6979,13.6788,13.6214,13.5909,13.5909,13.5909,13.5909,13.5909,13.5909,13.5718,13.5183,13.3807,13.3081,13.2585,13.1209,13.0407,12.9795,12.9604,12.8687,12.7579,12.7388,12.67,12.6204,12.6674,12.6094,12.5613,12.6223,12.5691,12.4878,12.4359,12.4207,12.3915,12.3103,12.2887,12.3114,12.3675,12.3788,12.3788,12.3788,12.3902,12.4508,12.5797,12.5608,12.5797,12.7199,12.6707,12.6479,12.7199,12.4698,12.2196,12.0188,11.8596,11.7004,11.5374,11.5905,11.6208,11.598,11.7307,11.8406,11.9316,11.9998,12.0718,12.1514,12.1514,12.1097,6.8848,6.5941,0.0,7.5424,7.5883,7.9207,0.0,0.0,9.4643,10.2209,10.7214,11.0194,11.05,11.5887,12.1198,12.3911,12.7082,12.9604,13.0598,13.0789,13.0789,13.0789,13.1515,13.2317,13.3081,13.3884,13.438,13.4419,13.5297,13.5794,13.5794,13.5794,13.5909,13.5909,13.5909,13.6214,13.6979,13.7093,13.7093,13.7093,13.7896,13.7513,13.6214,13.6788,13.7208,13.7208,13.7093,13.6711,13.5985,13.5909,13.5909,13.5909,13.5909,13.5909,13.5909,13.5909,13.4915,13.3578,13.3387,13.2279,13.1018,13.0903,13.0712,13.0483,12.9795,12.949,12.9184,12.842,12.7617,12.7006,12.7006,12.6374,12.5801,12.5878,12.556,12.5221,12.5183,12.4888,12.469,12.4614,12.447,12.4584,12.4584,12.4698,12.4698,12.4698,12.5304,12.5797,12.5987,12.6593,12.7086,12.7275,12.7199,12.7199,12.7275,12.6214,12.5494,12.5191,12.4281,12.3106,12.14,12.14,12.1097,12.0301,12.0491,12.1021,12.1893,12.2007,12.2424,12.322,12.322,12.2803,8.103,0.0,0.0,0.0,8.7651,9.1739,10.0718,10.1292,10.2209,10.9774,11.4283,11.7186,11.8409,12.2077,12.5478,0.0,12.8687,12.991,13.0712,13.0789,13.0598,13.0177,13.1285,13.2394,13.3196,13.3578,13.4304,13.5297,13.5718,13.5909,13.5909,13.5909,13.5909,13.5909,13.5909,13.61,13.6405,13.7399,13.759,13.7093,13.801,13.801,13.7284,13.7208,13.7093,13.7093,13.6596,13.6214,13.5909,13.5909,13.5909,13.5909,13.5909,13.5909,13.5909,13.5909,13.5106,13.3998,13.3502,13.2508,13.1515,13.098,13.0789,13.0712,13.0407,12.9986,12.949,12.9184,12.842,12.7808,12.7689,12.7017,12.6208,12.6084,12.5474,12.4975,12.4975,12.5013,12.4908,12.4774,12.4879,12.4908,12.4774,12.4812,12.4812,12.4812,12.5077,12.5494,12.5911,12.629,12.6896,12.7882,12.7995,12.7995,12.7995,12.7199,12.6782,12.6782,12.5987,12.5191,12.4508,12.4508,12.4091,12.322,12.3712,12.3902,12.3788,12.3788,12.3902,12.4281,12.4281,12.4091,8.624,0.0,0.0,9.2274,9.7967,10.3011,10.4998,10.6603,10.9392,11.5276,11.8906,12.1389,12.33,12.5707,0.0,12.8993,12.9604,13.0101,13.0712,13.0407,12.9795,12.8993,12.9604,13.0407,13.1476,13.2585,13.3884,13.5412,13.5488,13.5603,13.5909,13.5909,13.5909,13.5909,13.5909,13.5985,13.6214,13.7399,13.7705,13.7093,13.7705,13.7896,13.7705,13.7093,13.6788,13.6711,13.6214,13.5909,13.5909,13.5909,13.5909,13.5909,13.5909,13.5794,13.5488,13.5488,13.4992,13.4113,13.3311,13.2394,13.1591,13.1018,13.0789,13.0789,13.0789,13.0407,12.991,12.991,12.9086,12.8185,12.8062,12.7213,12.6211,12.6121,12.5392,12.4879,12.4879,12.4908,12.487,12.4774,12.4908,12.487,12.4774,12.4812,12.4887,12.5077,12.5115,12.5304,12.5608,12.61,12.6782,12.7995,12.8374,12.8488,12.8488,12.7806,12.7389,12.7578,12.6782,12.629,12.5987,12.5987,12.5608,12.4812,12.538,12.538,12.4812,12.4812,12.4812,12.4812,12.4812,12.4812,0.0,0.0,8.8988,9.8044,10.538,11.1684,11.6575,11.8409,11.9517,12.1389,12.3109,12.4408,12.4408,12.6509,12.8305,12.8305,12.9719,13.0789,13.0789,12.9413,12.8114,12.7312,12.5707,12.5401,0.0,13.0903,13.3693,13.461,13.461,13.4992,13.5909,13.5909,13.5909,13.5909,13.5909,13.6291,13.7093,13.7093,13.7093,13.7093,13.7093,13.6711,13.5985,13.5909,13.5909,13.5909,13.5909,13.5909,13.5909,13.5909,13.5909,13.5909,13.5909,13.5412,13.461,13.461,13.4113,13.3196,13.2394,13.1591,13.0789,13.0789,13.0789,13.0789,13.0789,13.0789,13.0789,13.0789,12.9483,12.81,12.81,12.668,12.5298,12.5298,12.5208,12.5002,12.5002,12.4908,12.4774,12.4812,12.4774,12.4774,12.4812,12.4812,12.5077,12.5797,12.5987,12.5683,12.4887,12.629,12.7275,12.7275,12.7995,12.8488,12.8488,12.7806,12.7578,12.8374,12.7692,12.6896,12.5987,12.5987,12.5608,12.4812,12.4812,12.4812,12.4812,12.4812,12.4812,12.4812,12.4812,12.4812,0.0,0.0,10.2018,10.9621,11.5314,11.9479,12.1198,12.2192,12.2803,12.288,12.1084,11.9517,11.9517,12.0702,12.2001,12.3109,12.6586,12.949,13.0598,13.0292,12.8802,12.5707,12.6318,0.0,0.0,0.0,0.0,13.2814,13.3387,13.4113,13.4992,13.5603,13.5909,13.5909,13.5909,13.5985,13.6291,13.6788,13.6788,13.6291,13.6291,13.6214,13.5909,13.5909,13.5909,13.5909,13.5909,13.5909,13.5909,13.5909,13.5909,13.5909,13.5909,13.5412,13.4495,13.3998,13.3196,13.2508,13.2202,13.1515,13.0789,13.0789,13.0407,12.9986,12.9986,12.9604,12.9299,12.9795,12.9101,12.81,12.81,12.7036,12.579,12.5182,12.4975,12.4879,12.4879,12.4803,12.4812,12.4812,12.4812,12.4812,12.4812,12.4812,12.5077,12.5911,12.6479,12.6972,12.7199,12.7692,12.8299,12.8905,12.8678,12.8488,12.8488,12.7806,12.7389,12.7692,12.6896,12.629,12.5987,12.5987,12.5608,12.4812,12.5304,12.5304,12.4812,12.4812,12.4812,12.4812,12.4812,12.4812,9.4834,10.2591,11.008,11.7798,12.2192,12.4714,12.4714,12.479,12.4599,12.3109,11.8485,11.4703,11.4703,11.4206,11.4283,11.6002,12.0281,12.4408,12.7312,12.6586,12.5516,12.4599,12.4905,12.4484,0.0,0.0,0.0,13.1285,13.2394,13.3387,13.4495,13.5412,13.5909,13.5909,13.5909,13.5909,13.5909,13.61,13.5909,13.5412,13.5794,13.5909,13.5909,13.5909,13.5909,13.5909,13.5909,13.5909,13.5909,13.5909,13.5909,13.5909,13.5603,13.5106,13.4495,13.3311,13.2508,13.2088,13.1706,13.1285,13.0789,13.0789,13.0292,12.9604,12.9604,12.8993,12.842,12.8993,12.8376,12.7605,12.7619,12.668,12.5724,12.5126,12.4879,12.4812,12.4812,12.4812,12.4812,12.4812,12.4812,12.4812,12.4812,12.5001,12.5608,12.6707,12.7389,12.7882,12.8374,12.8488,12.8678,12.9284,12.8791,12.8488,12.8488,12.7806,12.7389,12.7692,12.6896,12.6479,12.6479,12.6479,12.6214,12.5683,12.6176,12.6176,12.5683,12.5683,12.5683,12.5683,12.5683,12.5683,10.3393,10.9506,11.3786,12.2612,12.6089,12.7312,12.7082,12.6395,12.4905,12.2001,11.5391,10.9889,0.0,0.0,10.5915,10.7711,11.199,11.6804,12.181,11.9708,11.9403,0.0,0.0,0.0,0.0,0.0,0.0,13.0292,0.0,13.2699,13.4419,13.5412,13.5909,13.5909,13.5909,13.5909,13.5909,13.5106,13.461,13.461,13.5488,13.5909,13.5909,13.5909,13.5909,13.5909,13.5909,13.5909,13.5909,13.5909,13.5909,13.5794,13.4915,13.4495,13.4304,13.2699,13.2088,13.1897,13.1094,13.0789,13.0712,13.0712,13.0177,12.949,12.949,12.8878,12.8191,12.8191,12.7498,12.6666,12.6617,12.5817,12.4975,12.4841,12.4812,12.4812,12.4812,12.4812,12.4812,12.4812,12.4812,12.4812,12.4812,12.5494,12.6593,12.8109,12.8488,12.8602,12.8602,12.8602,12.8602,12.8602,12.8602,12.8602,12.8602,12.7806,12.7692,12.8488,12.7692,12.7275,12.7275,12.7275,12.7275,12.7275,12.7275,12.7275,12.7275,12.7275,12.7275,12.7275,12.7275,12.7275,11.1417,11.9403,12.6089,12.7885,12.9604,13.0216,12.7694,12.5898,12.2688,11.5085,10.6985,9.9381,0.0,0.0,0.0,10.4081,11.4894,0.0,12.7999,12.7808,0.0,0.0,0.0,12.5707,12.4905,12.5401,0.0,0.0,13.0101,13.1209,13.3502,13.5106,13.5909,13.5909,13.5297,13.5221,13.5909,13.5718,13.5221,13.461,13.5488,13.5909,13.5909,13.5909,13.5909,13.5909,13.5909,13.5909,13.5909,13.5909,13.5488,13.4915,13.4686,13.3807,13.2699,13.2317,13.1706,13.1094,13.0903,13.0407,12.991,12.991,12.8878,12.7694,12.7694,12.7082,12.6586,12.7197,12.6636,12.5817,12.6401,12.5714,12.4803,12.4774,12.4812,12.4812,12.4812,12.4812,12.4812,12.4812,12.4812,12.4812,12.4812,12.5987,12.6896,12.6707,12.8299,12.9511,12.9511,12.9511,12.9511,12.9511,12.9511,12.9511,12.9511,12.8678,12.8299,12.8488,12.7692,12.7275,12.7275,12.7275,12.7275,12.7275,12.7275,12.7275,12.7275,12.7275,12.7275,12.7275,12.7275,12.7275,11.9899,12.6509,13.1285,13.1209,13.14,12.991,12.3491,12.0511,11.5887,10.4692,9.5981,0.0,0.0,0.0,0.0,0.0,0.0,0.0,12.5783,12.6089,12.628,0.0,12.7388,0.0,12.6395,12.6777,12.7808,0.0,13.0292,13.1476,13.3196,13.4992,13.5909,13.5909,13.5412,13.4992,13.4801,13.5106,13.4915,13.3998,13.4915,13.5488,13.5909,13.5909,13.5909,13.5909,0.0,13.5718,13.5297,13.5603,13.5007,13.396,13.3803,13.3285,13.2508,13.1782,13.1209,13.0789,13.0789,12.9795,12.8611,12.9375,12.8496,12.7082,12.7082,12.6509,12.6013,12.6718,12.6194,12.5589,12.6718,12.618,12.5515,12.5759,12.5608,12.538,12.5797,12.5608,12.5304,12.5304,12.5608,12.5911,12.5911,12.6707,12.7389,12.7616,12.8602,12.9398,12.9815,12.9815,12.9815,12.9815,12.9815,12.9815,12.9815,12.9398,12.9095,12.9095,12.8602,12.8412,12.8412,12.8412,12.8412,12.8412,12.8412,12.8412,12.8412,12.8412,12.8412,12.8412,12.8412,12.8412,12.8191,13.1706,13.3081,13.3502,13.2202,12.8114,11.7989,11.3289,10.7099,9.3153,0.0,7.8557,7.5424,8.085,8.6772,8.9676,0.0,11.4512,12.1198,12.1504,12.2994,12.8305,12.7579,12.6891,12.7694,12.7808,12.8382,12.9795,13.1515,13.2699,13.3311,13.4992,13.5933,13.5804,13.598,13.5237,13.328,13.4198,13.4175,13.3311,13.4189,13.5106,13.5909,13.5909,13.5933,13.5995,0.0,0.0,13.4799,13.519,13.4506,13.3187,13.2778,13.2767,13.2776,13.1285,13.0789,13.0789,13.0789,12.9299,12.7694,12.8993,12.8305,12.6891,12.6891,12.6395,12.5936,12.6483,12.6079,12.5789,12.6919,12.6788,12.6379,12.6927,12.6593,12.629,12.701,12.6593,12.6176,12.6176,12.6782,12.7275,12.7275,12.7389,12.7882,12.9284,12.8981,12.8905,12.9511,12.9701,12.9815,12.9815,12.9815,12.9815,12.9815,12.9815,12.9815,12.9815,12.9815,12.9815,12.9815,12.9815,12.9815,12.9815,12.9815,12.9815,12.9815,12.9815,12.9815,12.9815,12.9815,12.989,13.438,13.6482,13.6979,13.5794,13.3081,12.8114,11.7989,11.05,0.0,0.0,0.0,7.2444,6.6407,7.3667,8.3639,9.3,0.0,0.0,0.0,0.0,12.9719,0.0,0.0,0.0,0.0,0.0,0.0,0.0,0.0,0.0,13.3311,13.4992,13.5696,13.5405,13.6406,13.5673,13.2922,13.4368,13.4493,13.3311,13.4189,13.5106,13.5909,13.5909,13.6101,13.6404,0.0,0.0,13.5668,13.5796,13.4603,13.2792,13.2705,13.2077,13.1209,13.0903,13.0789,13.0789,13.0789,13.0101,12.9108,12.8687,12.7388,12.5974,12.5974,12.5898,12.5783,12.5936,12.5704,12.5484,12.5602,12.6007,12.6076,12.541,12.6176,12.6896,12.629,12.6707,12.7086,12.7086,12.7199,12.7275,12.7275,12.7882,12.8185,12.7806,12.8791,12.9398,12.8791,12.9398,12.9815,12.9815,12.9815,12.9815,12.9815,12.9815,12.9815,12.9815,12.9815,12.9815,12.9815,12.9815,12.9815,12.9815,12.9815,12.9815,12.9815,12.9815,12.9815,12.9815,12.9815,13.0194,13.6979,13.8087,13.8087,13.6788,13.2699,12.5287,11.1608,0.0,0.0,0.0,0.0,6.5184,6.1058,0.0,0.0,0.0,0.0,0.0,0.0,0.0,0.0,0.0,0.0,0.0,0.0,0.0,0.0,0.0,0.0,0.0,13.4398,13.5805,13.6488,13.627,13.6617,13.5971,13.4064,13.4872,13.4912,13.3998,13.4628,13.5395,13.62,13.62,13.6497,13.6887,13.6887,0.0,13.5891,13.5703,13.4727,13.3423,13.309,13.2691,13.2088,13.2088,13.1515,13.0903,13.1285,13.0407,12.8916,12.8993,12.7808,12.6395,12.5898,12.5783,12.5898,12.6162,12.6292,12.6285,12.7022,12.7386,12.7556,12.742,12.7995,12.8412,12.7503,12.7995,12.8488,12.7995,12.8299,12.8488,12.7995,12.8602,12.9019,12.8715,12.9322,12.9625,12.9208,12.9511,12.9815,12.9815,12.9815,12.9815,12.9815,13.0194,13.0194,12.9815,13.0194,13.0194,12.9815,13.0194,13.0421,13.0421,13.0914,13.1103,13.1103,13.1103,13.1103,13.1103,13.1103,13.1293,13.8201,13.8889,13.8583,13.7399,13.1958,12.238,10.5265,9.4615,0.0,0.0,6.0867,5.9224,5.8116,0.0,0.0,0.0,0.0,0.0,0.0,0.0,0.0,0.0,0.0,0.0,0.0,0.0,0.0,0.0,0.0,0.0,13.5488,13.6685,13.7291,13.7291,13.7077,13.6471,13.5605,13.5605,13.5398,13.4878,13.5334,13.5922,13.6565,13.6565,13.6895,13.7291,13.7291,0.0,0.0,13.5892,13.512,13.4122,13.3831,13.3523,13.3311,13.3311,13.2508,13.14,13.2088,13.0903,12.9222,12.9681,12.8687,12.7197,12.6509,12.628,12.6433,12.6979,12.7094,12.7338,12.8288,12.8716,12.8991,12.9619,12.9701,12.9398,12.8905,12.9284,12.9587,12.8905,12.9322,12.9587,12.8905,12.9322,12.9815,12.9815,12.9815,12.9815,12.9815,12.9815,12.989,13.0004,12.9928,12.989,13.0004,13.0611,13.08,13.0421,13.0914,13.099,13.0421,13.0914,13.1293,13.1293,13.2013,13.2316,13.2316,13.2316,13.2316,13.2316,13.2316,13.2392,13.903,14.0685,14.0073,13.7705,13.1716,12.1693,10.3679,0.0,0.0,6.4011,5.8651,5.7122,5.7772,0.0,0.0,0.0,0.0,0.0,0.0,0.0,0.0,0.0,0.0,0.0,0.0,0.0,0.0,0.0,0.0,0.0,0.0,13.7291,13.777,13.777,13.8195,13.7806,13.6527,13.6527,13.6281,13.5879,13.5883,13.6429,13.7082,13.7082,13.7369,13.777,13.777,0.0,0.0,13.7083,13.6108,13.4611,13.4614,13.4101,13.3311,13.3311,13.3196,13.3081,13.3196,13.2585,13.1591,13.0903,12.9604,12.8191,12.8114,12.8114,12.8114,12.8114,12.8229,12.807,12.7912,12.8419,12.9087,12.9695,12.9208,12.8791,12.9511,12.9701,12.9815,12.9701,12.9701,12.9815,12.9701,12.9701,12.9815,12.9815,12.9815,12.9815,12.9815,12.9815,13.0118,13.08,13.0194,13.0118,13.08,13.099,13.1293,13.2013,13.2089,13.2089,13.2089,13.2089,13.2202,13.2202,13.2316,13.2316,13.2316,13.2316,13.2316,13.2316,13.2316,13.2695,13.866,14.1296,14.0876,13.7896,12.8825,11.68,10.1988,0.0,7.4817,6.2194,5.7619,5.6129,5.6969,5.8077,0.0,0.0,0.0,0.0,9.621,10.4004,11.2105,0.0,0.0,0.0,0.0,0.0,0.0,0.0,0.0,0.0,0.0,13.7982,13.8312,13.8312,13.8195,13.7878,13.7407,13.7407,13.7202,13.6703,13.7019,13.7322,13.7633,13.7633,13.788,13.8312,13.8312,0.0,0.0,13.7515,13.6876,13.62,13.562,13.4909,13.4113,13.4686,13.3884,13.2699,13.3693,13.3196,13.2011,13.1706,13.1094,13.0292,12.8802,12.8305,12.8305,12.8305,12.8687,12.9009,12.8559,12.9049,12.9461,12.9663,12.9511,12.9398,12.9701,12.9815,12.9815,12.9815,12.9815,12.9815,12.9815,12.9815,12.9815,12.9815,12.9815,12.9815,12.9815,12.9815,13.0118,13.0914,13.0307,13.0307,13.171,13.1786,13.1899,13.2316,13.2809,13.2809,13.2316,13.2809,13.2998,13.2998,13.3491,13.3794,13.3794,13.3794,13.3794,13.3794,13.3794,13.3984,13.5374,13.9997,14.1514,13.8414,12.7216,11.3507,0.0,8.5474,7.1107,6.0856,5.6969,5.5556,5.6129,5.6931,5.8994,0.0,0.0,7.3399,8.5167,9.3077,10.1597,0.0,0.0,0.0,0.0,0.0,0.0,0.0,0.0,0.0,0.0,13.84,13.8607,13.8607,13.8326,13.8023,13.7712,13.7712,13.7593,13.717,13.7593,13.7906,13.8101,13.8101,13.8287,13.8607,0.0,0.0,0.0,13.7905,13.7498,13.709,13.6316,13.541,13.461,13.4992,13.3998,13.2585,13.3807,13.3311,13.2088,13.2088,13.1897,13.14,12.9604,12.8993,12.9031,12.9009,12.933,12.974,12.9713,12.9872,13.0194,13.0194,13.0194,13.0118,12.989,12.9815,12.9815,12.9815,12.9815,12.9815,12.9815,12.9815,12.9815,12.9815,12.9815,12.9815,12.9815,12.9815,13.0194,13.1293,13.0611,13.08,13.2506,13.2392,13.2506,13.2998,13.3605,13.3605,13.3112,13.3794,13.4211,13.4211,13.5083,13.55,13.55,13.531,13.5197,13.5083,13.4894,13.478,12.8441,13.6405,14.1719,13.9593,12.7591,11.3022,10.0398,8.5051,7.0516,6.0059,5.6587,5.5403,5.5403,5.6052,5.7734,6.1096,0.0,0.0,8.4938,8.9065,9.4452,0.0,0.0,0.0,0.0,0.0,0.0,0.0,0.0,0.0,0.0,13.8607,13.8607,13.8607,13.8607,13.8217,13.7321,13.7321,13.7321,13.7321,13.7321,13.7788,13.8607,13.8607,13.8607,0.0,0.0,0.0,0.0,13.8607,13.8004,13.709,13.6278,13.541,13.4495,13.3578,13.3311,13.3311,13.3311,13.2814,13.2088,13.2088,13.1515,13.0789,13.0789,13.0789,13.069,13.0604,13.0284,13.0206,13.108,13.1093,13.1028,13.1028,13.1028,13.08,13.0004,12.9815,12.9815,12.9815,12.9815,12.9815,12.9815,12.9815,12.9815,12.9815,12.9815,12.9815,12.9815,12.9815,13.0421,13.2089,13.152,13.171,13.3302,13.2809,13.2998,13.4704,13.478,13.478,13.478,13.55,13.5993,13.5993,13.6789,13.7281,13.7281,13.641,13.5993,13.5993,13.5197,13.478,11.348,11.9211,12.1981,11.6685,10.7924,9.804,8.8845,7.7495,6.6739,5.9404,5.6587,5.5403,5.5403,5.5594,5.8001,6.4802,6.6369,0.0,0.0,0.0,0.0,0.0,0.0,0.0,0.0,0.0,0.0,0.0,0.0,0.0,0.0,13.8607,13.8607,13.8607,13.8607,13.8217,13.7282,13.7282,13.7282,13.7282,13.7282,13.7788,13.8607,13.8607,0.0,0.0,0.0,0.0,0.0,13.8607,13.7722,13.6394,13.6084,13.4678,13.289,13.3196,13.2585,13.1782,13.289,13.2814,13.2088,13.2088,13.1897,13.1591,13.098,13.0789,13.0827,13.0604,13.0702,13.1004,13.1194,13.1207,13.1217,13.171,13.1028,13.0421,13.1293,13.1028,13.08,13.1407,13.1028,13.0611,13.0611,13.0194,12.9815,12.9815,12.9815,12.9815,12.9815,12.9815,13.0421,13.2089,13.152,13.1899,13.4211,13.4211,13.4515,13.5614,13.6182,13.6485,13.6485,13.6182,13.6296,13.6902,13.6599,13.6713,13.7281,13.6978,13.6902,13.6902,13.6599,13.6485,10.0795,10.7902,11.1506,10.7197,9.8834,8.9988,8.3476,7.3335,6.377,5.8498,5.6358,5.5403,5.5403,5.567,5.7657,6.3236,0.0,0.0,0.0,0.0,0.0,0.0,0.0,0.0,0.0,0.0,0.0,0.0,0.0,0.0,0.0,0.0,13.8607,13.8607,13.8607,13.7983,13.6814,13.6814,13.658,13.6307,13.6307,13.6892,13.81,13.81,0.0,0.0,0.0,0.0,0.0,13.8088,13.7096,13.5891,13.5101,13.3718,13.2088,13.2279,13.1706,13.0903,13.2011,13.2011,13.1591,13.1591,13.1591,13.1515,13.098,13.0728,13.0718,13.0897,13.1131,13.1314,13.1618,13.1781,13.2013,13.2202,13.152,13.0914,13.171,13.1103,13.0724,13.1293,13.0914,13.0611,13.0914,13.0611,13.0421,13.0686,13.0724,13.0611,13.0307,13.0497,13.1293,13.2619,13.2619,13.3302,13.5576,13.5197,13.5083,13.5917,13.6789,13.7206,13.6789,13.6902,13.7206,13.7698,13.7509,13.7698,13.8191,13.7888,13.7585,13.7281,13.7281,13.7281,0.0,9.9992,10.671,10.6097,9.6786,8.6624,8.213,7.1583,0.0,5.7542,5.6014,5.5441,5.5632,5.6167,5.7046,5.8459,0.0,0.0,0.0,0.0,0.0,0.0,0.0,0.0,0.0,0.0,0.0,0.0,0.0,0.0,0.0,0.0,13.8607,13.8607,13.8607,13.7788,13.5996,13.5996,13.5606,13.471,13.471,13.5606,13.7282,13.7282,0.0,0.0,0.0,0.0,0.0,13.7195,13.631,13.5578,13.3582,13.2477,13.1897,13.1094,13.0789,13.0789,13.0789,13.0789,13.0789,13.0789,13.0789,13.0789,13.0789,13.0579,13.0588,13.1387,13.1384,13.1407,13.2202,13.2923,13.3302,13.2619,13.2316,13.2013,13.1293,13.0497,12.9928,13.0004,13.0004,13.0194,13.099,13.1103,13.1407,13.2202,13.2316,13.2013,13.1293,13.1823,13.2695,13.3605,13.4401,13.55,13.7206,13.5993,13.5386,13.6106,13.6978,13.7092,13.6296,13.7698,13.8494,13.8608,13.9404,13.9783,13.9783,13.8987,13.8191,13.7471,13.7471,13.7471,7.145,0.0,8.0925,7.8233,7.5183,7.2133,0.0,6.5073,6.1096,0.0,0.0,0.0,0.0,0.0,0.0,0.0,0.0,0.0,0.0,0.0,0.0,0.0,0.0,0.0,0.0,0.0,0.0,0.0,0.0,0.0,0.0,0.0,13.8607,13.8607,13.8607,13.7788,13.5996,13.5996,13.5606,13.471,13.471,13.5606,13.7282,13.7282,0.0,0.0,0.0,0.0,13.7593,13.7294,13.5884,13.3995,13.3483,13.2422,13.1094,13.0903,13.0789,13.0789,13.0789,13.0789,13.0789,13.0789,13.0789,13.0789,13.0789,13.0999,13.1311,13.1502,13.2181,13.2998,13.3188,13.3415,13.3605,13.4098,13.2695,13.1596,13.2695,13.1786,13.0914,13.1596,13.171,13.1786,13.2013,13.2013,13.2089,13.2316,13.2316,13.2392,13.2885,13.2619,13.3112,13.5197,13.5007,13.5689,13.8002,13.7888,13.7698,13.7888,13.8684,13.9101,13.8873,13.8608,13.8797,13.948,13.9669,13.9783,13.9783,13.9593,13.9404,13.9176,13.9176,13.9176,6.3541,6.7935,7.1947,7.0113,6.9082,6.7821,6.5299,0.0,0.0,0.0,0.0,0.0,0.0,0.0,0.0,0.0,0.0,0.0,0.0,0.0,0.0,0.0,0.0,0.0,0.0,0.0,0.0,0.0,0.0,0.0,0.0,0.0,13.8607,13.8607,13.8217,13.7399,13.5996,13.5996,13.5411,13.4086,13.4086,13.4788,13.6113,13.6113,13.6814,0.0,0.0,0.0,13.7827,13.6818,13.5394,13.3918,13.2894,13.1821,13.0789,13.0789,13.0789,13.0789,13.0789,13.0789,13.0903,13.1285,13.1094,13.0903,13.1706,13.2092,13.2319,13.2187,13.2789,13.3491,13.3491,13.3794,13.4098,13.4211,13.3188,13.2316,13.2809,13.1899,13.1103,13.1596,13.171,13.1899,13.2695,13.2885,13.2998,13.3415,13.3794,13.3984,13.4098,13.4401,13.5083,13.6485,13.6485,13.7206,13.8911,13.9101,13.8911,13.8494,13.929,13.9593,13.9176,13.9101,13.929,13.9783,13.9783,13.9783,13.9783,13.9783,13.9783,13.9783,13.9783,13.9783,6.1936,6.7347,7.2193,7.0566,6.9273,6.7782,6.5222,0.0,0.0,0.0,0.0,0.0,0.0,0.0,0.0,0.0,0.0,0.0,0.0,0.0,0.0,0.0,0.0,0.0,0.0,0.0,0.0,0.0,0.0,0.0,0.0,0.0,0.0,13.8607,13.7788,13.6892,13.5996,13.5918,13.4983,13.3385,13.3385,13.3891,13.471,13.471,13.5606,0.0,0.0,0.0,13.7884,13.6001,13.4879,13.4111,13.2378,13.1271,13.0789,13.0789,13.0789,13.0789,13.0789,13.0789,13.0903,13.1706,13.1515,13.1285,13.2699,13.3186,13.3184,13.3129,13.3359,13.3681,13.3681,13.4098,13.4401,13.3794,13.3415,13.2998,13.2619,13.171,13.1028,13.1217,13.1293,13.1823,13.3302,13.3605,13.3908,13.4704,13.5386,13.5689,13.5197,13.6296,13.7281,13.7585,13.8191,13.8873,13.9669,13.9783,13.948,13.8684,13.9404,13.948,13.8684,13.9404,13.9783,13.9783,13.9783,13.9783,13.9783,13.9783,13.9783,13.9783,13.9783,13.9783,6.4535,7.1065,7.4302,6.5379,6.4076,6.4305,0.0,0.0,0.0,0.0,0.0,0.0,0.0,0.0,0.0,0.0,0.0,0.0,0.0,0.0,0.0,0.0,0.0,0.0,0.0,0.0,0.0,0.0,0.0,0.0,0.0,0.0,0.0,13.8607,13.7788,13.6892,13.5996,13.5294,13.4398,13.3385,13.3385,13.3891,13.471,13.471,13.5216,0.0,0.0,13.5918,13.5312,13.5272,13.4219,13.2484,13.2493,13.177,13.0789,13.0789,13.0789,13.0789,13.0789,13.0789,13.0789,13.098,13.14,13.1897,13.2202,13.3109,13.4061,13.3928,13.4334,13.4693,13.4625,13.4211,13.3908,13.4515,13.2998,13.171,13.2998,13.2089,13.1217,13.2013,13.2695,13.3188,13.3491,13.4098,13.459,13.478,13.4894,13.55,13.6713,13.6485,13.6978,13.9176,13.8873,13.8873,13.9669,13.9783,13.9707,13.9593,13.9669,13.9707,13.9593,13.9669,13.9783,13.9783,13.9783,13.9783,13.9783,13.9783,13.9783,13.9783,13.9783,13.9783,6.1325,6.5973,6.9893,6.8383,7.2765,7.6579,0.0,0.0,0.0,0.0,0.0,0.0,0.0,0.0,0.0,0.0,0.0,0.0,0.0,0.0,0.0,0.0,0.0,0.0,0.0,0.0,0.0,0.0,0.0,0.0,0.0,0.0,0.0,0.0,13.7282,13.6385,13.5996,13.471,13.3814,13.3385,13.3385,13.358,13.4008,13.4008,13.4515,13.5294,0.0,13.5294,13.539,13.4912,13.3909,13.2794,13.2185,13.1501,13.0789,13.0789,13.0789,13.0903,13.1285,13.1209,13.0903,13.1897,13.2088,13.2317,13.3196,13.3898,13.4496,13.469,13.4904,13.4959,13.4815,13.4515,13.4287,13.4704,13.3908,13.3112,13.3415,13.2885,13.2506,13.2885,13.3188,13.3605,13.4098,13.4515,13.478,13.478,13.5197,13.5879,13.7092,13.7281,13.8002,13.9593,13.9404,13.9404,13.9783,13.9783,13.9783,13.9783,13.9783,13.9783,13.9783,13.9783,13.9783,13.9783,13.9783,13.9783,13.9783,13.9783,13.9783,13.9783,13.9783,13.9783,6.036,6.3427,6.7686,0.0,0.0,0.0,0.0,0.0,0.0,0.0,0.0,0.0,0.0,0.0,0.0,0.0,0.0,0.0,0.0,0.0,0.0,0.0,0.0,0.0,0.0,0.0,0.0,0.0,0.0,0.0,0.0,0.0,0.0,0.0,13.6892,13.5996,13.5996,13.4281,13.3385,13.3385,13.3385,13.3385,13.3385,13.3385,13.3814,13.4398,13.4398,13.4788,13.5312,13.4406,13.3715,13.2987,13.2108,13.1386,13.0789,13.0789,13.0789,13.0903,13.182,13.1515,13.1094,13.2776,13.289,13.2699,13.4113,13.4686,13.5005,13.5214,13.5239,13.4992,13.4815,13.4515,13.4287,13.4704,13.4287,13.3908,13.3794,13.3605,13.3605,13.3794,13.3794,13.3984,13.4704,13.478,13.4894,13.5083,13.5614,13.6296,13.7206,13.8002,13.8684,13.9176,13.9593,13.9783,13.9783,13.9783,13.9783,13.9783,13.9593,13.948,13.948,13.929,13.9176,13.9176,13.9404,13.948,13.948,13.9669,13.9783,13.9783,13.9783,13.9783,6.6934,7.0584,7.3586,7.6261,0.0,0.0,0.0,0.0,0.0,0.0,0.0,0.0,0.0,0.0,0.0,0.0,0.0,0.0,0.0,0.0,0.0,0.0,0.0,0.0,0.0,0.0,0.0,0.0,0.0,0.0,0.0,0.0,0.0,0.0,0.0,13.5996,13.5996,13.4281,13.3385,13.3385,13.3385,13.3385,13.3385,13.3385,13.3385,13.3502,13.3502,13.3502,13.3598,13.3912,13.3292,13.2214,13.2493,13.1885,13.0789,13.0789,13.0789,13.0903,13.182,13.1515,13.1094,13.2776,13.3272,13.3387,13.4304,13.5183,13.5693,13.5443,13.5308,13.5239,13.4853,13.3605,13.2885,13.4401,13.2998,13.1899,13.4211,13.4098,13.3719,13.4515,13.4704,13.4704,13.478,13.478,13.5083,13.5803,13.5993,13.6296,13.7206,13.8002,13.8191,13.7585,13.8873,13.9783,13.9783,13.9783,13.9783,13.9783,13.8987,13.8608,13.8608,13.7888,13.7471,13.7471,13.8191,13.8608,13.8608,13.9404,13.9783,13.9783,13.9783,13.9783,6.3389,6.859,0.0,0.0,0.0,0.0,0.0,0.0,0.0,0.0,0.0,0.0,0.0,0.0,0.0,0.0,0.0,0.0,0.0,0.0,0.0,0.0,0.0,0.0,0.0,0.0,0.0,0.0,0.0,0.0,0.0,0.0,0.0,0.0,0.0,13.5996,13.5996,13.4281,13.3385,13.3385,13.3385,13.3697,13.4203,13.358,13.3385,13.3385,13.3385,13.3697,13.4182,13.3484,13.3094,13.2791,13.1909,13.1218,13.0789,13.0789,13.0789,13.0903,13.182,13.1897,13.1782,13.289,13.3693,13.4189,13.4495,13.512,13.5717,13.5376,13.5201,13.51,13.4891,13.4287,13.3984,13.459,13.4098,13.3605,13.459,13.4515,13.4401,13.4704,13.478,13.478,13.478,13.478,13.5083,13.5879,13.5993,13.6296,13.7206,13.7585,13.7812,13.8002,13.8608,13.8987,13.8987,13.8987,13.9176,13.9783,13.8987,13.8494,13.8494,13.7698,13.7509,13.8002,13.8305,13.8797,13.929,13.9593,13.9783,13.9783,13.9783,13.9783,6.4219,6.8231,0.0,0.0,0.0,0.0,0.0,0.0,0.0,0.0,0.0,0.0,0.0,0.0,0.0,0.0,0.0,0.0,0.0,0.0,0.0,0.0,0.0,0.0,0.0,0.0,0.0,0.0,0.0,0.0,0.0,0.0,0.0,0.0,0.0,13.5918,13.5606,13.4086,13.3502,13.3814,13.3502,13.3697,13.4281,13.3697,13.3385,13.3385,13.3385,13.3697,13.4203,13.328,13.3,13.2791,13.1369,13.0789,13.0789,13.0789,13.098,13.1285,13.2202,13.2508,13.2699,13.3807,13.4304,13.4686,13.4915,13.5285,13.5586,13.5414,13.517,13.4959,13.4815,13.459,13.4515,13.4704,13.459,13.4515,13.4704,13.478,13.478,13.478,13.5007,13.5083,13.4818,13.5007,13.5386,13.5917,13.5993,13.6182,13.6789,13.7092,13.7585,13.8381,13.8002,13.7888,13.8494,13.8494,13.8797,13.9404,13.8608,13.8077,13.8077,13.7281,13.7092,13.7698,13.8191,13.8797,13.9404,13.9669,13.9783,13.9783,13.9783,13.9783,7.1656,0.0,0.0,0.0,0.0,0.0,0.0,0.0,0.0,0.0,0.0,0.0,0.0,0.0,0.0,0.0,0.0,0.0,0.0,0.0,0.0,0.0,0.0,0.0,0.0,0.0,0.0,0.0,0.0,0.0,0.0,0.0,0.0,0.0,0.0,13.5606,13.471,13.3814,13.3814,13.471,13.3814,13.3385,13.3385,13.3385,13.3385,13.3385,13.3385,13.3385,13.3385,13.3385,13.2911,13.2018,13.1101,13.0789,13.0789,13.0789,13.1285,13.2202,13.3005,13.3311,13.3578,13.5297,13.5297,13.4801,13.5603,13.5781,13.5586,13.5299,13.5094,13.4959,13.4815,13.4098,13.3719,13.459,13.4098,13.3719,13.459,13.478,13.478,13.478,13.5386,13.5689,13.4894,13.55,13.5993,13.5993,13.5993,13.5993,13.5993,13.6789,13.7585,13.8381,13.6978,13.6713,13.8305,13.8494,13.8494,13.8494,13.7698,13.7281,13.7281,13.6485,13.5993,13.5993,13.7585,13.8494,13.8494,13.9404,13.9783,13.9783,13.9783,13.9783,6.5499,0.0,0.0,0.0,0.0,0.0,0.0,0.0,0.0,0.0,0.0,0.0,0.0,0.0,0.0,0.0,0.0,0.0,0.0,0.0,0.0,0.0,0.0,0.0,0.0,0.0,0.0,0.0,0.0,0.0,0.0,0.0,0.0,0.0,13.6502,13.5606,13.471,13.3814,13.3502,13.3814,13.3502,13.3697,13.4281,13.3697,13.3385,13.3385,13.3385,13.3697,13.4299,13.3716,13.2682,13.1597,13.0969,13.0789,13.0789,13.0789,13.098,13.1285,13.2202,13.2814,13.3502,13.461,13.5183,13.5603,13.5794,13.5717,13.5299,13.4585,13.4226,13.3791,13.3188,13.3302,13.3719,13.459,13.459,13.4515,13.4704,13.478,13.478,13.478,13.5007,13.5083,13.4818,13.5007,13.531,13.5917,13.5993,13.5993,13.5993,13.6182,13.6296,13.5917,13.5993,13.5993,13.5879,13.5879,13.6106,13.6713,13.5993,13.6106,13.7281,13.5879,13.5386,13.5993,13.7092,13.7888,13.8494,13.8797,13.8873,13.8873,13.8305,13.8305,0.0,0.0,0.0,0.0,0.0,0.0,0.0,0.0,0.0,0.0,0.0,0.0,0.0,0.0,0.0,0.0,0.0,0.0,0.0,0.0,0.0,0.0,0.0,0.0,0.0,0.0,0.0,0.0,0.0,0.0,0.0,0.0,0.0,0.0,13.5918,13.5099,13.4203,13.3697,13.319,13.2878,13.319,13.3502,13.3697,13.3502,13.3385,13.3385,13.3385,13.3616,13.3902,13.3182,13.2309,13.1513,13.0988,13.1018,13.1285,13.0903,13.1209,13.1897,13.2394,13.3081,13.3998,13.4801,13.5488,13.5909,13.5909,13.5717,13.5185,13.428,13.3884,13.3374,13.2468,13.2695,13.3188,13.4098,13.4515,13.478,13.478,13.478,13.478,13.478,13.5083,13.5197,13.4894,13.5083,13.531,13.55,13.55,13.55,13.55,13.5197,13.5007,13.478,13.459,13.4515,13.4287,13.459,13.5007,13.55,13.5386,13.5689,13.6713,13.5803,13.55,13.5993,13.6902,13.7509,13.8002,13.8002,13.8002,13.8002,13.7509,13.7585,0.0,0.0,0.0,0.0,0.0,0.0,0.0,0.0,0.0,0.0,0.0,0.0,0.0,0.0,0.0,0.0,0.0,0.0,0.0,0.0,0.0,0.0,0.0,0.0,0.0,0.0,0.0,0.0,0.0,0.0,0.0,0.0,0.0,0.0,13.5099,13.4203,13.3307,13.3307,13.2878,0.0,13.28,13.28,13.2216,13.2995,13.3385,13.3385,13.3385,13.3071,13.2683,13.2296,13.1801,13.1423,13.1026,13.1285,13.1897,13.1094,13.1782,13.3196,13.3311,13.3884,13.4686,13.5603,13.5909,13.5909,13.5909,13.5705,13.5395,13.4309,13.3801,13.3402,13.2312,13.2089,13.2392,13.3112,13.3908,13.459,13.478,13.4704,13.4704,13.478,13.5386,13.5689,13.4894,13.5386,13.5614,13.4894,13.478,13.478,13.4704,13.3908,13.3719,13.4515,13.3188,13.2619,13.3302,13.4098,13.459,13.4704,13.5386,13.5803,13.5879,13.5879,13.5879,13.5879,13.6713,13.7206,13.7206,13.7206,13.7206,13.7206,13.7092,13.7092,0.0,0.0,0.0,0.0,0.0,0.0,0.0,0.0,0.0,0.0,0.0,0.0,0.0,0.0,0.0,0.0,0.0,0.0,0.0,0.0,0.0,0.0,0.0,0.0,0.0,0.0,0.0,0.0,0.0,0.0,0.0,0.0,0.0,13.4983,13.4788,13.4008,13.2411,13.2411,13.2294,0.0,13.1592,13.1982,13.3112,13.3307,13.3385,13.3385,13.3385,13.3006,13.218,13.2101,13.1616,13.0891,13.0811,13.0903,13.1094,13.0903,13.1515,13.2394,13.3081,13.3884,13.4686,13.5603,13.5909,13.5909,13.5909,13.564,13.4995,13.3481,13.2934,13.2312,13.0686,13.08,13.1293,13.152,13.2202,13.3188,13.4515,13.4287,13.3984,13.4704,13.4894,13.5007,13.4818,13.4894,13.5007,13.4818,13.478,13.459,13.3908,13.3112,13.2619,13.2809,13.2506,13.2392,13.2506,13.2695,13.3112,13.3719,13.3908,13.4287,13.5007,13.5083,13.5083,13.5083,13.5879,13.6296,13.6296,13.6296,13.6296,13.6296,13.5614,13.5503,0.0,0.0,0.0,0.0,0.0,0.0,0.0,0.0,0.0,0.0,0.0,0.0,0.0,0.0,0.0,0.0,0.0,0.0,0.0,0.0,0.0,0.0,0.0,0.0,0.0,0.0,0.0,0.0,0.0,0.0,0.0,13.6502,13.5606,13.471,13.3891,13.2995,13.2099,13.1709,13.1281,13.0891,13.0891,13.1398,13.2216,13.2995,13.3385,13.3385,13.3385,13.2901,13.21,13.21,13.1597,13.0789,13.0789,13.1094,13.14,13.098,13.1591,13.2699,13.3196,13.3884,13.4686,13.5603,13.5909,13.5909,13.5909,13.5476,13.4671,13.37,13.2699,13.1694,13.0719,13.0421,13.0497,13.0914,13.171,13.2506,13.3415,13.3491,13.3605,13.4098,13.4515,13.478,13.478,13.4515,13.4287,13.4704,13.4098,13.3415,13.2998,13.2202,13.1823,13.2316,13.1596,13.1293,13.1596,13.2089,13.2316,13.2316,13.3112,13.3491,13.3605,13.3605,13.3984,13.478,13.5197,13.5386,13.5386,13.5386,13.5386,13.5386,13.5007,13.4784,0.0,0.0,0.0,0.0,0.0,0.0,0.0,0.0,0.0,0.0,0.0,0.0,0.0,0.0,0.0,0.0,0.0,0.0,0.0,0.0,0.0,0.0,0.0,0.0,0.0,0.0,0.0,0.0,0.0,0.0,13.6892,13.5489,13.4593,13.4515,13.2878,13.1982,13.1904,13.1086,13.0307,12.9605,13.0501,13.0813,13.0696,13.2294,13.2995,13.319,13.3307,13.2901,13.21,13.21,13.1597,13.0789,13.0789,13.1209,13.182,13.1209,13.2011,13.3311,13.3311,13.3884,13.4686,13.5297,13.5603,13.5718,13.5718,13.5196,13.4636,13.4157,13.2957,13.1634,13.1098,13.0421,13.0004,13.0611,13.1293,13.1899,13.2202,13.2695,13.3112,13.3302,13.3908,13.4515,13.478,13.4098,13.3719,13.4515,13.3302,13.2316,13.2316,13.1407,13.1103,13.1786,13.08,13.0307,13.0914,13.1786,13.2013,13.1293,13.2506,13.2998,13.2316,13.2392,13.3188,13.4515,13.459,13.459,13.478,13.478,13.478,13.4818,13.4706,13.4406,0.0,0.0,0.0,0.0,0.0,0.0,0.0,0.0,0.0,0.0,0.0,0.0,0.0,0.0,0.0,0.0,0.0,0.0,0.0,0.0,0.0,0.0,0.0,0.0,0.0,0.0,0.0,0.0,0.0,0.0,13.5099,13.4788,13.4398,13.358,13.2606,13.1787,13.1086,13.019,12.9683,12.9605,13.0501,13.0501,12.98,13.0813,13.1592,13.2294,13.3112,13.2901,13.21,13.21,13.1597,13.0789,13.0789,13.0903,13.1094,13.1706,13.2508,13.3311,13.3311,13.3884,13.4495,13.3884,13.4189,13.4801,13.4801,13.503,13.5109,13.428,13.32,13.2009,13.1179,13.0421,12.9815,12.9928,13.0004,13.0497,13.2013,13.1786,13.1596,13.2316,13.2582,13.3112,13.4515,13.4098,13.3491,13.3719,13.2885,13.2316,13.2316,13.0914,13.0004,13.0118,13.0611,13.0914,13.1028,13.1786,13.2316,13.2089,13.2316,13.2392,13.2316,13.2998,13.3415,13.3719,13.3719,13.4022,13.478,13.478,13.478,13.4818,13.4367,13.3902,0.0,0.0,0.0,0.0,0.0,0.0,0.0,0.0,0.0,0.0,0.0,0.0,0.0,0.0,0.0,0.0,0.0,0.0,0.0,0.0,0.0,0.0,0.0,0.0,0.0,0.0,0.0,0.0,0.0,13.5489,13.471,13.4203,13.3814,13.3385,13.2099,13.132,13.0891,12.9605,12.8904,12.8904,12.9293,12.9215,12.8904,12.98,13.0618,13.1514,13.2294,13.2201,13.1404,13.1906,13.1597,13.0789,13.0789,13.0789,13.0789,13.1209,13.1897,13.2585,13.2585,13.3196,13.3884,13.3998,13.3998,13.3998,13.4495,13.3962,13.3385,13.3976,13.2592,13.1093,13.1596,13.08,12.9815,12.9815,12.9815,13.0004,13.0724,13.099,13.1293,13.2089,13.2316,13.2695,13.3908,13.3415,13.2998,13.3415,13.2809,13.2089,13.1596,13.0914,13.0686,13.1103,13.1103,13.1217,13.171,13.2089,13.1899,13.099,13.1293,13.1407,13.0914,13.171,13.2316,13.2809,13.3719,13.4401,13.478,13.478,13.478,13.4818,13.433,13.3784,0.0,0.0,0.0,0.0,0.0,0.0,0.0,0.0,0.0,0.0,0.0,0.0,0.0,0.0,0.0,0.0,0.0,0.0,0.0,0.0,0.0,0.0,0.0,0.0,0.0,0.0,0.0,0.0,0.0,13.4593,13.4398,13.3814,13.3385,13.3385,13.1982,13.1086,13.0891,12.9215,12.8319,12.8319,12.8319,12.8319,12.8319,12.9021,12.9605,13.0307,13.1281,13.1423,13.0901,13.152,13.1405,13.0789,13.0789,13.0789,13.0789,13.1018,13.1515,13.2088,13.2317,13.2814,13.3387,13.3807,13.3693,13.3387,13.3807,13.3224,13.265,13.3785,13.2433,13.0751,13.1975,13.1103,12.9815,12.9815,12.9815,12.9815,12.9815,13.0307,13.1028,13.2089,13.2013,13.2013,13.2998,13.2506,13.2202,13.3112,13.2506,13.1823,13.1407,13.099,13.1028,13.1899,13.1407,13.1293,13.1899,13.2013,13.1293,12.989,13.0421,13.0421,12.9815,13.0611,13.1293,13.2013,13.3605,13.459,13.478,13.478,13.478,13.4818,13.4175,13.3703,0.0,0.0,0.0,0.0,0.0,0.0,0.0,0.0,0.0,0.0,0.0,0.0,0.0,0.0,0.0,0.0,0.0,0.0,0.0,0.0,0.0,0.0,0.0,0.0,0.0,0.0,0.0,0.0,0.0,13.4281,13.3502,13.3385,13.3385,13.3385,13.2489,13.1709,13.0891,12.9215,12.8319,12.8319,12.8319,12.8319,12.8319,12.8319,12.8397,12.8514,13.019,13.0918,13.0823,13.0823,13.0789,13.0789,13.0789,13.0789,13.0903,13.1706,13.2088,13.2202,13.3005,13.3272,13.3196,13.2508,13.2699,13.3196,13.2394,13.2982,13.4014,13.409,13.3169,13.2202,13.2316,13.1103,12.9815,12.9815,12.9815,12.9815,12.9815,12.9815,13.0307,13.2013,13.099,13.0421,13.2089,13.1596,13.1407,13.2202,13.1596,13.1293,13.2089,13.08,13.0194,13.099,13.1028,13.1028,13.1103,13.1103,13.0724,12.989,12.9815,12.9815,12.9815,13.0611,13.1028,13.1103,13.2695,13.3984,13.478,13.478,13.478,13.4818,13.3897,13.3375,0.0,0.0,0.0,0.0,0.0,0.0,0.0,0.0,0.0,0.0,0.0,0.0,0.0,0.0,0.0,0.0,0.0,0.0,0.0,0.0,0.0,0.0,0.0,0.0,0.0,0.0,0.0,0.0,0.0,0.0,13.2606,13.2606,13.2294,13.1787,13.0891,13.0112,12.9215,12.8592,12.8319,12.8319,12.8319,12.8592,12.9099,12.9099,12.9287,12.961,13.0517,13.0607,13.001,13.029,13.0602,13.0789,13.0789,13.0789,13.0789,13.1209,13.1591,13.2088,13.2394,13.2508,13.2585,13.2814,13.2317,13.1782,13.2585,13.2677,13.272,13.3823,13.2789,13.1596,13.2202,13.1103,12.9815,12.9815,12.9815,12.9815,12.9815,12.9815,13.0004,13.0611,13.0194,13.0004,13.0611,13.0914,13.1293,13.2202,13.2506,13.2506,13.2316,13.1786,13.1293,13.1028,13.1028,13.1028,13.1028,13.1028,13.0686,12.989,12.9815,13.0004,13.0497,13.08,13.1293,13.1823,13.2392,13.3112,13.3984,13.4515,13.478,13.4818,13.3822,13.3412,6.4809,0.0,0.0,0.0,0.0,0.0,0.0,0.0,0.0,0.0,0.0,0.0,0.0,0.0,0.0,0.0,0.0,0.0,0.0,0.0,0.0,0.0,0.0,0.0,0.0,0.0,0.0,0.0,0.0,0.0,13.2099,13.1787,13.1514,13.0891,13.0112,12.9293,12.8709,12.8397,12.8319,12.8319,12.8319,12.8592,12.9215,12.9215,12.9203,12.9404,12.9829,12.9908,12.9799,13.0206,13.0602,13.0789,13.0789,13.0789,13.0789,13.0789,13.1209,13.1706,13.2011,13.2317,13.2585,13.3081,13.2699,13.2202,13.3081,13.2867,13.272,13.3823,13.2789,13.1596,13.2089,13.1103,12.9815,12.9815,12.9815,12.9815,12.9815,12.9815,12.9815,12.9815,12.9815,12.9815,12.9815,13.0724,13.152,13.1823,13.2619,13.2809,13.2013,13.1596,13.1293,13.1028,13.08,13.0724,13.099,13.08,13.0421,12.9815,13.0118,13.0421,13.099,13.1293,13.171,13.2316,13.2619,13.2998,13.3491,13.4098,13.4401,13.4325,13.3709,13.3207,0.0,0.0,0.0,0.0,0.0,0.0,0.0,0.0,0.0,0.0,0.0,0.0,0.0,0.0,0.0,0.0,0.0,0.0,0.0,0.0,0.0,0.0,0.0,0.0,0.0,0.0,0.0,0.0,0.0,13.2099,13.2099,13.132,13.0813,13.0813,12.9995,12.9605,12.9605,12.8709,12.8319,12.8319,12.8319,12.8319,12.8319,12.8319,12.8113,12.7782,12.819,12.9099,13.0217,13.0572,13.0778,13.0789,13.0789,13.0789,13.0789,13.0789,13.0789,13.098,13.182,13.2585,13.3311,13.3311,13.3884,13.438,13.3578,13.3668,13.409,13.409,13.3207,13.2316,13.2202,13.099,12.9815,12.9815,12.9815,12.9815,12.9815,12.9815,12.9815,12.9815,12.9815,12.9815,12.9815,13.1103,13.1899,13.1103,13.171,13.2013,13.1103,13.0307,13.0118,13.0914,13.0307,13.0118,13.0914,13.0307,12.9815,12.9815,13.0611,13.1028,13.1103,13.1899,13.2316,13.2316,13.3112,13.3491,13.3491,13.3491,13.3491,13.3529,13.3407,13.29,5.3318,0.0,0.0,0.0,0.0,0.0,0.0,0.0,0.0,0.0,0.0,0.0,0.0,0.0,0.0,0.0,0.0,0.0,0.0,0.0,0.0,0.0,0.0,0.0,0.0,0.0,0.0,0.0,13.2606,13.1787,13.132,12.98,12.9021,12.9021,12.8787,12.8709,12.8709,12.8397,12.8319,12.8319,12.8319,12.8592,12.9215,12.8882,12.8908,12.9081,12.9896,13.0006,12.982,12.9912,13.028,13.0789,13.0789,13.0789,13.0789,13.0789,13.1209,13.1897,13.2699,13.3081,13.3387,13.3998,13.3998,13.3693,13.4113,13.4202,13.4204,13.4813,13.3701,13.2013,13.08,13.0118,12.9815,12.9815,12.9815,12.9815,12.9815,12.9815,12.9815,12.9815,12.9815,12.9815,12.9815,13.0194,13.0611,13.0914,13.1217,13.1293,13.1028,13.08,13.0497,13.0194,12.9928,12.989,13.0118,13.0497,13.0724,13.0724,13.152,13.2202,13.2809,13.2506,13.2619,13.3188,13.2809,13.2619,13.2619,13.3794,13.4401,13.4401,13.3709,13.29,5.4587,0.0,0.0,0.0,0.0,0.0,0.0,9.2925,0.0,0.0,0.0,0.0,0.0,0.0,0.0,0.0,0.0,0.0,0.0,0.0,0.0,0.0,0.0,0.0,0.0,13.3385,13.3385,13.3385,13.2606,13.1709,13.0891,12.9917,12.941,12.941,12.941,12.9215,12.8787,12.8787,12.8709,12.8319,12.8319,12.8686,12.9296,12.9102,12.8914,12.8868,12.9678,12.9525,12.8611,12.9299,13.0101,13.0789,13.0789,13.0789,13.0789,13.0789,13.1094,13.1591,13.2088,13.2699,13.3387,13.3884,13.4189,13.4495,13.4992,13.4915,13.4766,13.5155,13.389,13.2013,13.0611,13.0118,12.9815,12.9815,13.0118,13.0194,12.989,13.0118,13.0194,12.989,12.9815,12.9815,12.9815,13.0118,13.0307,13.0497,13.08,13.0914,13.0497,13.0497,13.0421,13.0307,13.0307,13.0421,13.08,13.1293,13.152,13.152,13.2316,13.2998,13.3491,13.3415,13.3605,13.3984,13.3605,13.3302,13.3302,13.3984,13.4215,13.4175,13.3697,13.29,5.6857,5.8204,0.0,0.0,0.0,0.0,8.8267,9.0414,9.3959,0.0,0.0,0.0,0.0,0.0,0.0,0.0,0.0,0.0,0.0,0.0,0.0,0.0,0.0,0.0,13.3385,13.3385,13.3385,13.3385,13.2606,13.1709,13.0813,13.0813,13.0891,13.0813,13.0813,13.0501,12.98,12.9722,12.941,12.8592,12.8416,12.8595,12.8986,12.8885,12.8425,12.7909,12.8463,12.8317,12.7503,12.8993,12.9986,13.0712,13.0789,13.0789,13.0789,13.0789,13.0789,13.0789,13.0903,13.1897,13.3196,13.3387,13.4495,13.5794,13.5909,13.5781,13.5471,13.5155,13.3815,13.2202,13.1407,13.0611,13.0118,13.0118,13.0611,13.08,13.0118,13.0497,13.08,13.0118,12.989,12.9815,12.9928,13.0497,13.0611,12.9928,13.0421,13.0611,13.0004,12.9928,13.0194,13.1103,13.1103,13.152,13.2202,13.2392,13.2392,13.2392,13.3188,13.3605,13.3605,13.4401,13.478,13.478,13.478,13.478,13.478,13.3986,13.3497,13.3412,13.3366,13.2825,6.1081,6.2166,6.3858,0.0,0.0,0.0,0.0,7.0065,7.7643,0.0,0.0,0.0,0.0,0.0,0.0,0.0,0.0,0.0,0.0,0.0,0.0,0.0,0.0,0.0,13.3385,13.3385,13.3385,13.3385,13.2606,13.1398,12.9917,13.0501,13.0618,12.9917,13.0501,13.0813,13.0618,13.0618,13.0618,13.0423,12.9402,12.919,12.9918,12.85,12.8217,12.8667,12.8515,12.8691,12.9108,12.949,12.9681,12.991,13.0483,13.0789,13.0789,13.0789,13.0789,13.0903,13.1591,13.2088,13.2585,13.3884,13.461,13.4992,13.5718,13.5781,13.5395,13.4372,13.3744,13.3112,13.2316,13.1899,13.1786,13.1786,13.1407,13.099,13.08,13.0914,13.099,13.08,13.0194,13.0004,13.0686,13.0421,13.0004,12.9815,12.9928,13.0194,13.0724,13.08,13.1103,13.2013,13.2013,13.2089,13.2316,13.2885,13.3302,13.3302,13.4098,13.4515,13.4515,13.4704,13.478,13.478,13.478,13.478,13.478,13.433,13.3789,13.3412,13.3148,13.2285,6.447,6.4243,6.5474,6.3782,0.0,0.0,0.0,0.0,0.0,0.0,0.0,9.1432,9.8725,0.0,0.0,0.0,0.0,0.0,0.0,0.0,0.0,0.0,0.0,0.0,13.3307,13.3385,13.3385,13.3385,13.2995,13.2411,13.1514,13.1904,13.1904,13.1514,13.1904,13.1709,13.0891,13.132,13.1086,13.019,12.9817,12.9701,12.9887,12.8779,12.822,12.8033,12.8193,12.8305,12.8382,12.9299,12.9604,12.9681,13.0483,13.0789,13.0789,13.0789,13.0789,13.0903,13.1285,13.2011,13.2814,13.3693,13.4495,13.5297,13.5794,13.5679,13.5261,13.4707,13.401,13.3415,13.2998,13.2619,13.2316,13.2316,13.2316,13.2089,13.171,13.2013,13.2202,13.2202,13.1596,13.1028,13.1028,13.0724,13.0421,13.0421,13.08,13.1217,13.1596,13.1596,13.2013,13.2809,13.2885,13.3112,13.3491,13.3908,13.4098,13.4098,13.459,13.478,13.478,13.478,13.478,13.478,13.478,13.478,13.478,13.433,13.3859,13.3412,13.2975,13.227,0.0,0.0,0.0,0.0,0.0,6.4431,0.0,0.0,0.0,0.0,0.0,0.0,0.0,0.0,0.0,0.0,0.0,0.0,0.0,11.4393,0.0,0.0,0.0,0.0,13.0811,13.0382,13.0988,13.319,13.1416,13.0988,13.2995,13.3307,13.3307,13.319,13.3112,13.2489,13.1086,13.1592,13.1104,12.9699,13.0006,13.0004,12.9734,12.9123,12.8378,12.7808,12.8191,12.8114,12.7885,12.9108,12.9681,12.991,13.0483,13.0789,13.0789,13.0789,13.0789,13.0789,13.0789,13.1782,13.3081,13.3196,13.4495,13.5909,13.5909,13.5575,13.5308,13.5308,13.4574,13.3794,13.3794,13.3302,13.2809,13.2809,13.3112,13.3302,13.2695,13.2998,13.3491,13.3491,13.2998,13.2316,13.1596,13.1407,13.1293,13.1293,13.1823,13.2392,13.2506,13.2506,13.2809,13.3719,13.3794,13.3984,13.4704,13.478,13.478,13.478,13.478,13.478,13.478,13.478,13.478,13.478,13.478,13.478,13.478,13.4215,13.3779,13.3412,13.2975,13.2493,0.0,0.0,0.0,0.0,7.0706,0.0,0.0,0.0,0.0,0.0,0.0,0.0,0.0,0.0,0.0,0.0,0.0,0.0,8.512,9.3426,10.1905,10.7985,0.0,0.0,0.0,11.9676,12.2507,13.2606,12.4009,12.2412,13.1709,13.2995,13.2995,13.2294,13.2216,13.2216,13.1982,13.132,13.0706,13.0084,12.981,12.9808,13.0124,12.8898,12.9091,13.0292,12.8916,12.9108,13.0292,12.9795,12.9986,13.0712,13.0789,13.0789,13.0789,13.0789,13.0789,13.0789,13.0789,13.14,13.2394,13.3081,13.4495,13.5909,13.5909,13.5575,13.5308,13.5308,13.4992,13.4704,13.4704,13.459,13.4515,13.4515,13.3984,13.3491,13.3415,13.3415,13.3491,13.3491,13.3415,13.3302,13.3188,13.2619,13.2202,13.2202,13.2202,13.2582,13.3302,13.3415,13.3719,13.459,13.4704,13.4704,13.478,13.478,13.478,13.478,13.478,13.478,13.478,13.478,13.478,13.478,13.478,13.478,13.4818,13.3902,13.3533,13.3412,13.2975,13.2195,0.0,0.0,0.0,0.0,0.0,0.0,0.0,0.0,5.9281,0.0,0.0,0.0,0.0,0.0,0.0,0.0,7.1052,0.0,0.0,0.0,9.3527,0.0,0.0,0.0,0.0,0.0,0.0,0.0,12.3409,12.2805,13.0307,13.1904,13.2684,13.28,13.2411,13.2099,13.2099,13.0994,13.04,13.0181,12.9584,12.9111,12.8717,12.7982,12.7999,12.8611,12.842,12.8993,13.0101,13.0216,13.0483,13.0789,13.0789,13.0789,13.0789,13.0789,13.0789,13.0903,13.14,13.2088,13.3005,13.438,13.5297,13.5909,13.5781,13.5509,13.5308,13.517,13.4997,13.478,13.478,13.478,13.478,13.478,13.4515,13.4287,13.4287,13.4287,13.4287,13.4287,13.4287,13.4287,13.4287,13.3605,13.2998,13.2998,13.3415,13.3908,13.4211,13.4287,13.4401,13.478,13.478,13.478,13.478,13.478,13.478,13.478,13.478,13.478,13.478,13.478,13.478,13.478,13.478,13.478,13.4818,13.406,13.3697,13.3412,13.2673,13.207,8.225,0.0,0.0,0.0,0.0,0.0,0.0,0.0,0.0,0.0,0.0,0.0,0.0,0.0,0.0,0.0,0.0,7.0333,0.0,7.3304,0.0,0.0,0.0,0.0,0.0,0.0,0.0,12.3194,11.93,12.041,12.9099,13.0813,13.1904,13.2995,13.2216,13.1709,13.1398,13.0193,12.9491,12.9319,12.8906,12.8321,12.7516,12.7505,12.7579,12.7808,12.8382,12.9108,12.9986,13.0598,13.0789,13.0789,13.0789,13.0789,13.0789,13.0789,13.0789,13.0903,13.1515,13.2394,13.3578,13.5297,13.5909,13.5884,13.5717,13.5481,13.5346,13.51,13.4887,13.478,13.478,13.478,13.478,13.478,13.478,13.478,13.478,13.478,13.478,13.478,13.478,13.478,13.478,13.4287,13.3908,13.3908,13.4401,13.478,13.478,13.478,13.478,13.478,13.478,13.478,13.478,13.478,13.4894,13.5083,13.4894,13.4894,13.5083,13.4894,13.478,13.478,13.478,13.478,13.478,13.4175,13.3703,13.3412,13.2546,13.2164,0.0,0.0,0.0,7.4021,0.0,0.0,0.0,0.0,6.3501,0.0,0.0,0.0,0.0,0.0,0.0,0.0,0.0,0.0,0.0,0.0,0.0,0.0,0.0,0.0,0.0,9.592,9.8993,0.0,10.771,11.0692,12.8592,12.9683,13.0384,13.2099,13.1398,13.0501,12.9683,12.8378,12.7618,12.711,12.7493,12.7488,12.7141,12.7885,12.8687,12.949,12.949,12.9986,13.0789,13.0789,13.0789,13.0789,13.0789,13.0789,13.0789,13.0789,13.0789,13.0789,13.0789,13.1897,13.3578,13.5297,13.5909,13.5884,13.5717,13.5481,13.5346,13.51,13.4887,13.478,13.478,13.478,13.478,13.478,13.478,13.478,13.478,13.478,13.478,13.478,13.478,13.478,13.478,13.478,13.478,13.478,13.478,13.478,13.478,13.478,13.478,13.478,13.478,13.478,13.478,13.478,13.5083,13.5917,13.5197,13.5083,13.5917,13.5197,13.478,13.478,13.478,13.478,13.4818,13.3859,13.3412,13.3412,13.2975,13.2493,0.0,0.0,10.5614,8.6468,0.0,0.0,0.0,0.0,0.0,0.0,0.0,0.0,0.0,0.0,0.0,0.0,0.0,0.0,0.0,0.0,0.0,0.0,0.0,0.0,0.0,0.0,0.0,10.7788,10.8376,11.3203,12.3916,12.7189,12.9293,13.0384,13.0696,13.0906,13.0894,12.8394,12.7303,12.7493,12.6811,12.6739,12.7082,12.6777,12.7694,12.9604,12.8993,12.949,13.0789,13.0789,13.0789,13.0789,13.0789,13.0789,13.0789,13.0789,13.0789,13.098,13.2088,13.3578,13.5106,13.5718,13.5909,13.5807,13.5509,13.5414,13.5201,13.4921,13.4815,13.478,13.478,13.478,13.478,13.478,13.478,13.478,13.478,13.478,13.478,13.478,13.478,13.478,13.478,13.478,13.478,13.478,13.478,13.478,13.478,13.478,13.478,13.478,13.478,13.478,13.478,13.531,13.5993,13.6789,13.6599,13.6296,13.5993,13.5689,13.531,13.478,13.478,13.478,13.4818,13.3897,13.3412,13.3412,13.271,13.2331,11.2404,11.4817,0.0,9.6771,9.3807,0.0,7.2616,0.0,0.0,0.0,0.0,0.0,0.0,0.0,0.0,0.0,0.0,0.0,0.0,5.5212,0.0,0.0,0.0,0.0,0.0,0.0,9.3154,10.3177,10.4424,10.9191,0.0,0.0,12.7501,12.8592,13.03,13.0997,13.057,12.8425,12.7197,12.7178,12.6297,12.628,12.7082,12.6815,12.7808,12.9604,12.9299,12.9795,13.0789,13.0789,13.0789,13.0789,13.0789,13.0789,13.0789,13.0789,13.0789,13.098,13.2394,13.3807,13.4992,13.5297,13.5603,13.5807,13.5405,13.5308,13.5201,13.4925,13.478,13.478,13.478,13.478,13.478,13.478,13.478,13.478,13.478,13.478,13.478,13.478,13.478,13.478,13.478,13.478,13.478,13.478,13.478,13.478,13.478,13.478,13.478,13.478,13.478,13.478,13.478,13.531,13.5917,13.6789,13.6599,13.6182,13.5614,13.5614,13.5197,13.4401,13.459,13.478,13.4818,13.3897,13.3412,13.3412,13.2493,13.2107]},{"header":{"parameterUnit":"m.s-1","parameterCategory":1,"la1":30.6,"la2":29.2853,"lo1":-89.7004,"lo2":-87.6739,"dy":0.0162,"dx":0.0183,"nx":112,"ny":82,"refTime":"2026-02-19T00:00:00:Z","depth":0,"parameterNumber":3,"parameterNumberName":"V-component_of_WINDS"},"data":[0.0,0.0,0.0,0.0,0.0,0.0,0.0,0.0,0.0,0.0,0.0,0.0,0.0,0.0,0.0,0.0,0.0,0.0,0.0,0.0,0.0,0.0,0.0,0.0,0.0,0.0,0.0,0.0,0.0,0.0,0.0,0.0,0.0,0.0,0.0,0.0,0.0,0.0,0.0,0.0,0.0,0.0,0.0,0.0,0.0,0.0,0.0,0.0,0.0,0.0,0.0,0.0,0.0,0.0,0.0,0.0,0.0,0.0,0.0,0.0,0.0,0.0,0.0,0.0,0.0,0.0,0.0,0.0,0.0,0.0,0.0,0.0,0.0,0.0,0.0,0.0,0.0,0.0,0.0,0.0,0.0,0.0,0.0,0.0,0.0,0.0,0.0,0.0,0.0,0.0,0.0,-2.1896,-2.5891,-2.8312,-2.8141,-2.7467,-2.5022,-2.0214,0.0,0.0,0.0,0.0,0.0,0.0,0.0,0.0,0.0,0.0,0.0,0.0,0.0,0.0,0.0,0.0,0.0,0.0,0.0,0.0,0.0,0.0,0.0,0.0,0.0,0.0,0.0,0.0,0.0,0.0,0.0,0.0,0.0,0.0,0.0,0.0,0.0,0.0,0.0,0.0,0.0,0.0,0.0,0.0,0.0,0.0,0.0,0.0,0.0,0.0,0.0,0.0,0.0,0.0,0.0,0.0,0.0,0.0,0.0,0.0,0.0,0.0,0.0,0.0,0.0,0.0,0.0,0.0,0.0,0.0,0.0,0.0,0.0,0.0,0.0,0.0,0.0,0.0,0.0,0.0,0.0,0.0,0.0,0.0,0.0,0.0,0.0,0.0,0.0,0.0,0.0,0.0,0.0,0.0,0.0,0.0,0.0,0.0,0.0,0.0,0.0,0.0,0.0,0.0,-2.0929,-2.6233,-2.7865,-2.8507,-2.8312,-2.6972,-2.4511,-2.071,0.0,0.0,0.0,0.0,0.0,0.0,0.0,0.0,0.0,0.0,0.0,0.0,0.0,0.0,0.0,0.0,0.0,0.0,0.0,0.0,0.0,0.0,0.0,0.0,0.0,0.0,0.0,0.0,0.0,0.0,0.0,0.0,0.0,0.0,0.0,0.0,0.0,0.0,0.0,0.0,0.0,0.0,0.0,0.0,0.0,0.0,0.0,0.0,0.0,0.0,0.0,0.0,0.0,0.0,0.0,0.0,0.0,0.0,0.0,0.0,0.0,0.0,0.0,0.0,0.0,0.0,0.0,0.0,0.0,0.0,0.0,0.0,0.0,0.0,0.0,0.0,0.0,0.0,0.0,0.0,0.0,0.0,0.0,0.0,0.0,0.0,0.0,0.0,0.0,0.0,0.0,0.0,0.0,0.0,0.0,0.0,0.0,0.0,0.0,0.0,0.0,0.0,0.0,-1.9451,-2.2359,-2.7418,-2.8523,-2.8734,-2.8377,-2.7118,-2.4673,-2.0702,-1.8996,0.0,0.0,0.0,0.0,0.0,0.0,0.0,0.0,0.0,0.0,0.0,0.0,0.0,0.0,0.0,0.0,0.0,0.0,0.0,0.0,0.0,0.0,0.0,0.0,0.0,0.0,0.0,0.0,0.0,0.0,0.0,0.0,0.0,0.0,0.0,0.0,0.0,0.0,0.0,0.0,0.0,0.0,0.0,0.0,0.0,0.0,0.0,0.0,0.0,0.0,0.0,0.0,0.0,0.0,0.0,0.0,0.0,0.0,0.0,0.0,0.0,0.0,0.0,0.0,0.0,0.0,0.0,0.0,0.0,0.0,0.0,0.0,0.0,0.0,0.0,0.0,0.0,0.0,0.0,0.0,0.0,0.0,0.0,0.0,0.0,0.0,0.0,0.0,0.0,0.0,0.0,0.0,0.0,0.0,0.0,0.0,0.0,0.0,0.0,0.0,0.0,0.0,-2.2212,-2.4446,-2.7906,-2.8823,-2.897,-2.8377,-2.7077,-2.4568,-2.0515,-1.833,0.0,0.0,0.0,0.0,0.0,0.0,0.0,0.0,0.0,0.0,0.0,0.0,0.0,0.0,0.0,0.0,0.0,0.0,0.0,0.0,0.0,0.0,0.0,0.0,0.0,0.0,0.0,0.0,0.0,0.0,0.0,0.0,0.0,0.0,0.0,0.0,0.0,0.0,0.0,0.0,0.0,0.0,0.0,0.0,0.0,0.0,0.0,0.0,0.0,0.0,0.0,0.0,0.0,0.0,0.0,0.0,0.0,0.0,0.0,0.0,0.0,0.0,0.0,0.0,0.0,0.0,0.0,0.0,0.0,0.0,0.0,0.0,0.0,0.0,0.0,0.0,0.0,0.0,0.0,0.0,0.0,0.0,0.0,0.0,0.0,0.0,0.0,0.0,0.0,0.0,0.0,0.0,0.0,0.0,0.0,0.0,0.0,0.0,0.0,0.0,0.0,0.0,-2.4462,-2.7735,-2.8718,-2.9164,-2.9099,-2.8393,-2.6289,-2.3593,-2.0279,-1.7445,0.0,0.0,0.0,0.0,0.0,0.0,0.0,0.0,0.0,0.0,0.0,0.0,0.0,0.0,0.0,0.0,0.0,0.0,0.0,0.0,0.0,0.0,0.0,0.0,0.0,0.0,0.0,0.0,0.0,0.0,0.0,0.0,0.0,0.0,0.0,0.0,0.0,0.0,0.0,0.0,0.0,0.0,0.0,0.0,0.0,0.0,0.0,0.0,0.0,0.0,0.0,0.0,0.0,0.0,0.0,0.0,0.0,0.0,0.0,0.0,0.0,0.0,0.0,0.0,0.0,0.0,0.0,0.0,0.0,0.0,0.0,0.0,0.0,0.0,0.0,0.0,0.0,0.0,0.0,0.0,0.0,0.0,0.0,0.0,0.0,0.0,0.0,0.0,0.0,0.0,0.0,0.0,0.0,0.0,0.0,0.0,0.0,0.0,0.0,0.0,0.0,0.0,-2.3463,-2.659,0.0,-2.9205,-2.9164,-2.8563,-2.6996,-2.4316,-2.0296,0.0,0.0,0.0,0.0,0.0,0.0,0.0,0.0,0.0,0.0,0.0,0.0,0.0,0.0,0.0,0.0,0.0,0.0,0.0,0.0,0.0,0.0,0.0,0.0,0.0,0.0,0.0,0.0,0.0,0.0,0.0,0.0,0.0,0.0,0.0,0.0,0.0,0.0,0.0,0.0,0.0,0.0,0.0,0.0,0.0,0.0,0.0,0.0,0.0,0.0,0.0,0.0,0.0,0.0,0.0,0.0,0.0,0.0,0.0,0.0,0.0,0.0,0.0,0.0,0.0,0.0,0.0,0.0,0.0,0.0,0.0,0.0,0.0,0.0,0.0,0.0,0.0,0.0,0.0,0.0,0.0,0.0,0.0,0.0,0.0,0.0,0.0,0.0,0.0,0.0,0.0,0.0,0.0,0.0,0.0,0.0,0.0,0.0,0.0,0.0,0.0,0.0,-1.9825,-2.3471,-2.6614,0.0,-2.927,-2.9181,-2.8563,-2.7061,-2.4356,-2.0141,0.0,0.0,0.0,0.0,0.0,0.0,0.0,0.0,0.0,0.0,0.0,0.0,0.0,0.0,0.0,0.0,0.0,0.0,0.0,0.0,0.0,0.0,0.0,0.0,0.0,0.0,0.0,0.0,0.0,0.0,0.0,0.0,0.0,0.0,0.0,0.0,0.0,0.0,0.0,0.0,0.0,0.0,0.0,0.0,0.0,0.0,0.0,0.0,0.0,0.0,0.0,0.0,0.0,0.0,0.0,0.0,0.0,0.0,0.0,0.0,0.0,0.0,0.0,0.0,0.0,0.0,0.0,0.0,0.0,0.0,0.0,0.0,0.0,0.0,0.0,0.0,0.0,0.0,0.0,0.0,0.0,0.0,0.0,0.0,0.0,0.0,0.0,0.0,0.0,0.0,0.0,0.0,0.0,0.0,0.0,0.0,0.0,0.0,0.0,0.0,0.0,0.0,-2.0385,-2.512,-2.8612,-2.9335,-2.9416,-2.9116,-2.8393,-2.6208,-2.3358,0.0,0.0,0.0,0.0,0.0,0.0,0.0,0.0,0.0,0.0,0.0,0.0,0.0,0.0,0.0,0.0,0.0,0.0,0.0,0.0,0.0,0.0,0.0,0.0,0.0,0.0,0.0,0.0,0.0,0.0,0.0,0.0,0.0,0.0,0.0,0.0,0.0,0.0,0.0,0.0,0.0,0.0,0.0,0.0,0.0,0.0,0.0,0.0,0.0,0.0,0.0,0.0,0.0,0.0,0.0,0.0,0.0,0.0,0.0,0.0,0.0,0.0,0.0,0.0,0.0,0.0,0.0,0.0,0.0,0.0,0.0,0.0,0.0,0.0,0.0,0.0,0.0,0.0,0.0,0.0,0.0,0.0,0.0,0.0,0.0,0.0,0.0,0.0,0.0,0.0,0.0,0.0,0.0,0.0,0.0,0.0,0.0,0.0,0.0,0.0,0.0,0.0,0.0,0.0,-2.512,-2.8612,-2.9335,-2.9416,-2.9116,-2.8393,-2.689,-2.4145,-1.9784,0.0,0.0,0.0,0.0,0.0,0.0,0.0,0.0,0.0,0.0,0.0,0.0,0.0,0.0,0.0,0.0,0.0,0.0,0.0,0.0,0.0,0.0,0.0,0.0,0.0,0.0,0.0,0.0,0.0,0.0,0.0,0.0,0.0,0.0,0.0,0.0,0.0,0.0,0.0,0.0,0.0,0.0,0.0,0.0,0.0,0.0,0.0,0.0,0.0,0.0,0.0,0.0,0.0,0.0,0.0,0.0,0.0,0.0,0.0,0.0,0.0,0.0,0.0,0.0,0.0,0.0,0.0,0.0,0.0,0.0,0.0,0.0,0.0,0.0,0.0,0.0,0.0,0.0,0.0,0.0,0.0,0.0,0.0,0.0,0.0,0.0,0.0,0.0,0.0,0.0,0.0,0.0,0.0,0.0,0.0,0.0,0.0,0.0,0.0,0.0,0.0,0.0,-2.0385,-2.5063,-2.8547,-2.9335,-2.9351,-2.9034,-2.8393,-2.7248,-2.4763,-2.0523,0.0,0.0,0.0,0.0,0.0,0.0,0.0,0.0,0.0,0.0,0.0,0.0,0.0,0.0,0.0,0.0,0.0,0.0,0.0,0.0,0.0,0.0,0.0,0.0,0.0,0.0,0.0,0.0,0.0,0.0,0.0,0.0,0.0,0.0,0.0,0.0,0.0,0.0,0.0,0.0,0.0,0.0,0.0,0.0,0.0,0.0,0.0,0.0,0.0,0.0,0.0,0.0,0.0,0.0,0.0,0.0,0.0,0.0,0.0,0.0,0.0,0.0,0.0,0.0,0.0,0.0,0.0,0.0,0.0,0.0,0.0,0.0,0.0,0.0,0.0,0.0,0.0,0.0,0.0,0.0,0.0,0.0,0.0,0.0,0.0,0.0,0.0,0.0,0.0,0.0,0.0,0.0,0.0,0.0,0.0,0.0,0.0,0.0,0.0,0.0,0.0,0.0,-2.0385,-2.4974,-2.8417,-2.9286,-2.9246,-2.8905,-2.836,-2.7337,-2.5234,-2.1932,0.0,0.0,0.0,0.0,0.0,0.0,0.0,0.0,0.0,0.0,0.0,0.0,0.0,0.0,0.0,0.0,0.0,0.0,0.0,0.0,0.0,0.0,0.0,0.0,0.0,0.0,0.0,0.0,0.0,0.0,0.0,0.0,0.0,0.0,0.0,0.0,0.0,0.0,0.0,0.0,0.0,0.0,0.0,0.0,0.0,0.0,0.0,0.0,0.0,0.0,0.0,0.0,0.0,0.0,0.0,0.0,0.0,0.0,0.0,0.0,-1.616,0.0,0.0,0.0,0.0,0.0,0.0,0.0,0.0,0.0,0.0,0.0,0.0,0.0,0.0,0.0,0.0,0.0,0.0,0.0,0.0,0.0,0.0,0.0,0.0,0.0,0.0,0.0,0.0,0.0,0.0,0.0,0.0,0.0,0.0,0.0,0.0,0.0,0.0,0.0,0.0,0.0,-2.0385,-2.4974,-2.8377,-2.9116,-2.9164,-2.9152,-2.9049,-2.8103,-2.6244,-2.3343,0.0,0.0,0.0,0.0,0.0,0.0,0.0,0.0,0.0,0.0,0.0,0.0,0.0,0.0,0.0,0.0,0.0,0.0,0.0,0.0,0.0,0.0,0.0,0.0,0.0,0.0,0.0,0.0,0.0,0.0,0.0,0.0,0.0,0.0,0.0,0.0,0.0,0.0,0.0,0.0,0.0,0.0,0.0,0.0,0.0,0.0,0.0,0.0,0.0,0.0,0.0,0.0,0.0,0.0,0.0,0.0,0.0,0.0,0.0,0.0,0.0,-1.7365,0.0,0.0,0.0,0.0,0.0,0.0,0.0,0.0,0.0,0.0,0.0,0.0,0.0,0.0,0.0,0.0,0.0,0.0,0.0,0.0,0.0,0.0,0.0,0.0,0.0,0.0,0.0,0.0,0.0,0.0,0.0,0.0,0.0,0.0,0.0,0.0,0.0,0.0,0.0,0.0,-2.0279,-2.4763,-2.8372,-2.9398,-2.9481,-2.9576,-2.9975,-2.9148,-2.763,-2.5459,-2.297,0.0,0.0,0.0,0.0,0.0,0.0,0.0,0.0,0.0,0.0,0.0,0.0,0.0,0.0,0.0,0.0,0.0,0.0,0.0,0.0,0.0,0.0,0.0,0.0,0.0,0.0,0.0,0.0,0.0,0.0,0.0,0.0,0.0,0.0,0.0,0.0,0.0,0.0,0.0,0.0,0.0,0.0,0.0,0.0,0.0,0.0,0.0,0.0,0.0,0.0,0.0,0.0,0.0,0.0,0.0,-2.0381,-2.0443,-2.1331,-2.2591,-2.0945,-2.0787,-2.1384,0.0,0.0,0.0,0.0,0.0,0.0,0.0,0.0,0.0,0.0,0.0,0.0,0.0,0.0,0.0,0.0,0.0,0.0,0.0,0.0,0.0,0.0,0.0,0.0,0.0,-2.0247,-2.0531,0.0,0.0,0.0,0.0,0.0,0.0,0.0,0.0,0.0,0.0,0.0,0.0,-2.0507,-2.4698,-2.8102,-2.9659,-2.9727,-2.9951,-3.0912,-3.0238,-2.9165,-2.756,-2.5284,-2.2965,0.0,0.0,0.0,0.0,0.0,0.0,0.0,0.0,0.0,0.0,0.0,0.0,0.0,0.0,0.0,0.0,0.0,0.0,0.0,0.0,0.0,0.0,0.0,0.0,0.0,0.0,0.0,0.0,0.0,0.0,0.0,0.0,-1.6309,-1.664,0.0,0.0,0.0,0.0,0.0,0.0,0.0,0.0,0.0,0.0,0.0,0.0,0.0,0.0,-1.8652,-2.0961,-2.1874,-2.2027,-2.4179,-2.4967,-2.4733,-2.5031,-2.5607,-2.5948,-2.6143,0.0,-2.2253,-2.1238,0.0,0.0,0.0,0.0,0.0,0.0,0.0,0.0,0.0,0.0,0.0,0.0,0.0,0.0,0.0,0.0,0.0,0.0,0.0,0.0,0.0,0.0,-2.2895,-2.2643,-2.3016,-2.3171,0.0,-1.9256,-1.6544,-1.574,0.0,0.0,0.0,0.0,0.0,0.0,0.0,0.0,-2.1896,-2.5315,-2.8036,-2.9481,-2.9549,-3.0053,-3.1292,-3.0867,-3.0485,-2.9554,-2.7658,-2.5688,-2.3018,-2.0845,0.0,0.0,0.0,0.0,0.0,0.0,0.0,0.0,0.0,0.0,0.0,0.0,0.0,0.0,0.0,0.0,0.0,0.0,0.0,0.0,0.0,0.0,0.0,0.0,0.0,0.0,0.0,0.0,0.0,-1.5074,-1.5934,-1.5519,-1.5692,-1.5026,0.0,0.0,0.0,0.0,0.0,0.0,0.0,0.0,0.0,-1.9649,-2.045,-2.1213,-2.244,-2.4098,-2.4814,-2.4854,-2.646,-2.7077,-2.7037,-2.7183,-2.7353,-2.7524,-2.7654,-2.6866,-2.5339,-2.3593,-2.1855,-2.0093,0.0,0.0,0.0,0.0,0.0,-1.8712,-2.058,0.0,0.0,0.0,0.0,0.0,0.0,0.0,0.0,0.0,0.0,0.0,0.0,0.0,0.0,-2.4251,-2.4828,-2.5039,-2.4592,-2.2765,-2.0596,0.0,-1.738,-1.6008,-1.3709,0.0,0.0,0.0,0.0,0.0,-2.2529,-2.5461,-2.7888,-2.9287,-2.9643,-3.0474,-3.1542,-3.1544,-3.1298,-3.0491,-2.9516,-2.7882,-2.6179,-2.3741,-2.1192,0.0,0.0,0.0,0.0,0.0,0.0,0.0,0.0,0.0,0.0,0.0,0.0,0.0,0.0,0.0,0.0,0.0,0.0,0.0,0.0,0.0,0.0,0.0,0.0,0.0,0.0,0.0,0.0,-1.5801,-1.6263,-1.5233,-1.6472,-1.6357,0.0,0.0,0.0,0.0,0.0,0.0,-1.9028,-1.9446,-2.0614,-2.2695,-2.3339,-2.4436,-2.5802,-2.6525,-2.6972,-2.7167,-2.7735,-2.806,-2.8141,-2.8287,-2.8377,-2.8393,-2.8377,-2.823,-2.7841,-2.5591,-2.408,-2.3016,-2.1189,-2.0255,0.0,-2.0759,-2.1132,-2.1571,-2.3634,-2.4145,-2.3764,-2.3041,0.0,-2.0442,-1.8566,0.0,0.0,0.0,0.0,-1.9549,-2.166,0.0,-2.3723,-2.5185,-2.5891,-2.6143,-2.5867,-2.5104,-2.3739,0.0,-2.0166,-1.8728,-1.5951,0.0,0.0,0.0,0.0,-2.2001,-2.3737,-2.6042,-2.8014,-2.9665,-3.0316,-3.087,-3.1728,-3.2158,-3.2064,-3.1317,-3.059,-2.9749,-2.8747,-2.6285,-2.4084,-2.2441,0.0,0.0,0.0,0.0,0.0,0.0,0.0,0.0,0.0,0.0,0.0,0.0,0.0,0.0,0.0,0.0,0.0,0.0,0.0,0.0,0.0,0.0,0.0,0.0,0.0,0.0,0.0,0.0,0.0,-1.755,-1.968,0.0,0.0,0.0,0.0,-1.7874,-1.8504,-1.9758,-2.2188,-2.2464,-2.3649,-2.5948,-2.6379,-2.6931,-2.7654,-2.7889,-2.8076,-2.8247,-2.8458,-2.8482,-2.8336,-2.884,-2.8905,-2.8612,-2.8945,-2.8888,-2.8458,-2.6955,-2.5615,-2.4405,-2.3447,-2.2553,-2.1953,-2.3171,-2.3723,-2.4064,-2.538,-2.5697,-2.5445,-2.4698,-2.2724,-2.0677,-2.1043,-1.9971,0.0,0.0,-2.1059,-2.1936,-2.391,-2.4722,-2.5169,-2.5761,-2.6062,-2.6208,-2.6184,-2.5079,-2.3999,0.0,-2.274,-2.153,-2.0003,0.0,-1.976,-2.0214,-2.149,-2.34,-2.6294,-2.7647,-2.9096,-3.0885,-3.1232,-3.1507,-3.2385,-3.2366,-3.2168,-3.1733,-3.1289,-3.0665,-2.9824,-2.8719,-2.6828,-2.4372,-2.2264,0.0,0.0,0.0,0.0,0.0,0.0,0.0,0.0,0.0,0.0,0.0,0.0,0.0,0.0,0.0,0.0,0.0,0.0,0.0,0.0,0.0,0.0,0.0,0.0,0.0,0.0,0.0,0.0,-1.8785,-2.0938,0.0,0.0,-1.9529,-2.0412,-2.0811,-2.2225,-2.3544,-2.4828,-2.5175,-2.5907,-2.7037,-2.7288,-2.7613,-2.7971,-2.8165,-2.8336,-2.8523,-2.8799,-2.8905,-2.8864,-2.9051,-2.9075,-2.8945,-2.897,-2.884,-2.8563,-2.806,-2.7313,-2.6444,-2.6021,-2.551,-2.512,-2.5908,-2.6249,-2.6379,-2.6947,-2.7012,-2.6695,-2.5632,-2.4251,-2.3016,-2.3081,-2.2594,-2.2147,-2.2895,-2.3406,-2.3934,-2.4868,-2.538,-2.5721,-2.6038,-2.6249,-2.6403,-2.6525,-2.6062,-2.555,-2.538,-2.391,-2.2359,-2.1278,-2.1701,-2.2017,-2.153,-2.3381,-2.524,-2.6894,-2.8389,-2.9333,-3.015,-3.0858,-3.1214,-3.1489,-3.1943,-3.196,-3.1563,-3.1138,-3.0543,-2.972,-2.9068,-2.7972,-2.6116,-2.4683,-2.1884,0.0,0.0,0.0,0.0,0.0,0.0,0.0,0.0,0.0,0.0,0.0,0.0,0.0,0.0,0.0,0.0,0.0,0.0,0.0,0.0,0.0,0.0,0.0,0.0,0.0,0.0,-2.1008,-1.9501,-2.2197,-2.3053,-2.0615,-2.1987,-2.323,-2.3723,-2.4998,-2.6038,-2.6631,-2.7061,-2.7394,-2.7629,-2.7735,-2.7906,-2.8165,-2.8271,-2.8458,-2.8718,-2.8994,-2.914,-2.914,-2.927,-2.9246,-2.914,-2.9075,-2.8929,-2.8693,-2.8693,-2.8393,-2.7889,-2.7694,-2.7483,-2.7313,-2.767,-2.7776,-2.7719,-2.7719,-2.7613,-2.7288,-2.6338,-2.555,-2.4933,-2.4681,-2.4486,-2.4397,-2.4633,-2.4868,-2.5128,-2.542,-2.5761,-2.6062,-2.6184,-2.6658,-2.6855,-2.672,-2.6871,-2.6682,-2.6233,-2.4957,-2.3682,-2.296,-2.3761,-2.3975,-2.2724,-2.4821,-2.6923,-2.7372,-2.8813,-3.0065,-3.0614,-3.1041,-3.1396,-3.1396,-3.0983,-3.0828,-3.111,-3.0108,-2.9132,-2.9049,-2.8046,-2.7175,-2.6135,-2.4749,-2.2246,-1.8703,0.0,0.0,0.0,0.0,0.0,0.0,0.0,0.0,0.0,0.0,0.0,0.0,0.0,0.0,0.0,0.0,0.0,0.0,0.0,0.0,0.0,0.0,0.0,-1.7805,-2.069,-2.2137,-2.0093,-2.3626,-2.5175,-2.2854,-2.446,-2.5867,-2.6233,-2.6736,-2.7183,-2.7548,-2.7719,-2.78,-2.78,-2.7824,-2.7995,-2.8336,-2.8336,-2.8523,-2.8888,-2.9059,-2.914,-2.9164,-2.9506,-2.9481,-2.9164,-2.9335,-2.9229,-2.8888,-2.8888,-2.8783,-2.8612,-2.8417,-2.8336,-2.8336,-2.8336,-2.823,-2.8036,-2.7694,-2.7443,-2.7231,-2.6866,-2.6509,-2.6168,-2.5802,-2.5575,-2.542,-2.542,-2.542,-2.5461,-2.5656,-2.5956,-2.6208,-2.6208,-2.7011,-2.7534,-2.7002,-2.7144,-2.7232,-2.651,-2.5916,-2.5575,-2.5234,-2.5668,-2.5633,-2.4254,-2.6339,0.0,-2.756,-2.9195,-3.0734,-3.1652,-3.196,-3.1988,-3.196,-2.9757,-2.907,-3.042,-2.7854,-2.687,-2.7953,-2.6136,-2.49,-2.4284,-2.2278,-2.0741,-1.9915,0.0,0.0,0.0,0.0,0.0,0.0,0.0,0.0,0.0,0.0,0.0,0.0,0.0,0.0,0.0,0.0,0.0,0.0,0.0,0.0,0.0,0.0,-2.0767,-2.0674,-2.3081,-2.4779,-2.483,-2.606,-2.6882,-2.6159,-2.6671,-2.7077,-2.7167,-2.7443,-2.7629,-2.7719,-2.7906,-2.7995,-2.7995,-2.8117,-2.8287,-2.8523,-2.8523,-2.8653,-2.8888,-2.9059,-2.914,-2.914,-2.9376,-2.9441,-2.9351,-2.9392,-2.9286,-2.9075,-2.9075,-2.897,-2.8799,-2.8758,-2.8507,-2.8182,-2.8442,-2.8336,-2.8076,-2.8101,-2.7824,-2.7443,-2.7207,-2.689,-2.6549,-2.6314,-2.6127,-2.5997,-2.5997,-2.5997,-2.5997,-2.6062,-2.6143,-2.6233,-2.6354,-2.6633,-2.6666,-2.7061,-2.7216,-2.73,-2.7381,-2.751,-2.7108,-2.6353,-2.6556,-2.6565,-2.7104,-2.826,0.0,-2.9223,-3.0403,-3.1015,-2.9804,-2.9971,-3.0091,-2.9943,-2.8673,-2.8578,-2.9768,-2.852,-2.7446,-2.7547,-2.7018,-2.6285,-2.5816,-2.3258,-2.1505,0.0,0.0,0.0,0.0,0.0,0.0,0.0,0.0,0.0,0.0,0.0,0.0,0.0,0.0,0.0,0.0,0.0,0.0,0.0,0.0,0.0,0.0,-2.0994,-2.2935,-2.3829,-2.5104,-2.6208,-2.689,-2.7378,-2.7613,-2.7508,-2.7589,-2.7654,-2.7654,-2.7824,-2.7906,-2.7906,-2.8076,-2.8182,-2.8182,-2.8287,-2.8417,-2.8612,-2.8612,-2.8693,-2.8888,-2.9059,-2.914,-2.914,-2.9335,-2.9416,0.0,-2.9335,-2.9246,-2.914,-2.9059,-2.897,0.0,0.0,0.0,0.0,0.0,-2.8482,-2.8295,-2.8247,-2.8036,-2.7719,-2.7459,-2.7183,-2.6907,-2.6655,-2.646,-2.6298,-2.6233,-2.6208,-2.6208,-2.6208,-2.6535,-2.6625,-2.6444,-2.6986,-2.7249,-2.6995,-2.7469,-2.7854,-2.7587,0.0,0.0,-2.7635,-2.7548,-2.7723,-2.7636,-2.8825,-2.9648,-2.9272,-3.0444,-3.0912,-2.9878,-2.9998,-3.0101,-2.9998,-2.8434,0.0,0.0,0.0,-2.62,-2.561,-2.5489,0.0,0.0,0.0,0.0,0.0,0.0,0.0,0.0,-2.0244,-2.0166,0.0,0.0,0.0,0.0,0.0,0.0,0.0,0.0,0.0,0.0,0.0,0.0,0.0,0.0,0.0,0.0,-2.3211,-2.5079,-2.659,-2.6825,-2.6972,-2.7296,-2.7613,-2.78,-2.78,-2.7824,-2.7824,-2.7824,-2.7995,-2.8101,-2.8101,0.0,0.0,0.0,0.0,-2.8482,-2.8628,-2.8628,-2.8718,-2.8888,-2.9059,-2.914,-2.9116,-2.9335,-2.9416,-2.9416,-2.9246,-2.9164,-2.9164,-2.8994,-2.8905,-2.8888,-2.8864,-2.8864,-2.8848,-2.8677,-2.8588,0.0,0.0,0.0,0.0,-2.7654,-2.7443,-2.7231,-2.689,-2.6655,-2.6484,-2.6314,-2.6273,-2.6273,-2.6273,-2.692,-2.7316,-2.6764,-2.7689,-2.8311,-2.7053,-2.7799,-2.8488,-2.7622,-2.7818,-2.8358,-2.9144,-2.898,-2.8346,-2.7423,-2.9041,0.0,-2.8802,-3.0228,-3.1214,-3.1214,0.0,0.0,-3.1185,-2.8726,-2.7891,-2.9191,-2.6238,-2.4201,-2.3437,-2.3419,-2.3428,-2.34,-2.3759,-2.4688,-2.6224,-2.6451,-2.6706,-2.6857,-2.2075,-2.1338,0.0,0.0,0.0,0.0,0.0,0.0,0.0,0.0,0.0,0.0,0.0,0.0,0.0,0.0,0.0,-2.2026,-2.4275,-2.6168,-2.7037,-2.7418,-2.7629,-2.7694,-2.7759,-2.78,-2.78,-2.793,-2.8019,-2.8019,-2.8182,-2.8287,-2.8287,-2.8458,0.0,-2.8547,-2.8693,-2.8799,-2.8823,-2.8823,-2.8848,-2.8888,0.0,0.0,-2.8953,-2.927,-2.9416,-2.9416,-2.9376,-2.9351,-2.9351,-2.9164,-2.901,-2.8864,-2.8718,-2.8677,-2.8653,-2.8628,-2.8417,-2.8182,-2.8271,-2.8101,-2.7824,-2.7613,-2.7524,-2.7418,-2.7077,-2.6931,0.0,-2.6695,-2.6631,-2.6631,-2.6631,-2.6655,-2.6953,-2.6679,-2.7144,-2.7867,-2.8104,-2.8775,-2.9454,-2.9648,-2.9906,-3.0153,-3.0163,-2.9455,-2.9372,-2.9813,-3.0463,-3.0987,-3.0734,-3.1506,-3.1081,-2.9525,-2.9262,-2.9234,-2.8921,-2.8047,-2.8039,-2.9191,-2.7915,-2.6706,-2.6219,-2.6574,-2.6574,-2.6422,-2.6266,-2.6649,-2.6904,-2.7103,-2.7575,-2.8227,-2.6266,-2.577,0.0,0.0,0.0,0.0,0.0,0.0,0.0,0.0,0.0,0.0,0.0,-1.7567,0.0,0.0,-2.2342,-2.4064,-2.555,-2.672,-2.7443,-2.7694,-2.78,-2.78,-2.78,-2.7841,-2.793,-2.8019,-2.8125,-2.8206,-2.8377,-2.8482,-2.8482,-2.8653,-2.8758,-2.8758,-2.8848,-2.8888,-2.8888,-2.897,-2.901,-2.901,-2.9099,-2.914,-2.9164,-2.9246,-2.9335,-2.9416,-2.9311,-2.927,-2.927,-2.9075,-2.897,-2.8888,-2.8783,-2.8758,-2.8758,-2.8758,-2.8628,-2.8466,-2.8377,-2.8222,-2.8011,-2.7759,-2.7613,-2.75,-2.7337,-2.7167,-2.6996,-2.6907,-2.6801,-2.676,-2.7392,-2.7626,-2.7867,-2.7951,-2.8372,-2.8743,-2.8655,-2.8819,-2.9268,-2.9703,-2.9952,-2.998,-3.0618,-3.0285,-3.0026,-3.076,-3.0892,-3.1062,-3.1365,-3.1516,-3.1336,-3.0175,-3.0101,-3.0054,-2.9961,-2.9293,-2.9142,-2.9418,-2.8719,-2.8152,-2.7726,-2.7897,-2.7953,-2.7849,-2.8048,-2.8227,-2.8322,-2.852,-2.8898,-2.9399,-2.887,-2.8577,0.0,0.0,0.0,0.0,0.0,0.0,0.0,0.0,-1.6032,-1.7656,-1.8704,-1.9792,-2.136,-2.257,-2.3975,-2.5932,-2.6614,-2.7102,-2.7719,-2.78,-2.78,-2.78,-2.7824,-2.793,-2.8101,-2.8165,-2.8247,-2.8377,-2.8563,-2.8677,-2.8677,-2.8799,-2.8888,-2.8888,-2.8888,-2.8905,-2.8929,-2.9075,-2.914,-2.914,-2.9181,-2.9229,-2.9311,-2.9181,-2.9221,-2.9351,-2.9205,-2.9116,-2.9075,-2.8953,-2.8888,-2.8888,-2.8888,-2.8888,-2.8888,-2.8888,-2.8848,-2.8734,-2.8442,-2.8287,-2.8182,-2.7889,-2.7719,-2.7589,-2.7548,-2.7353,-2.7118,-2.7077,-2.6931,-2.6825,-2.7793,-2.8243,-2.8423,-2.8561,-2.9307,-2.9692,-2.8997,-2.8961,-2.9178,-2.9554,-2.9786,-2.9841,-3.0836,-3.0864,-3.0864,-3.0864,-3.0892,-3.1043,-3.1365,-3.1317,-3.1365,-3.1714,-3.1592,-3.1535,-3.1714,-3.1091,-3.0467,-2.9966,-2.9569,-2.9172,-2.8766,-2.8898,-2.8974,-2.8917,-2.9248,-2.9522,-2.9749,-2.9919,-3.0098,-3.0297,-3.0297,-3.0193,-1.3071,-1.3866,0.0,-1.6032,-1.6129,-1.6836,0.0,0.0,-2.0117,-2.1725,-2.2789,-2.3422,-2.3487,-2.4633,-2.5761,-2.6338,-2.7012,-2.7548,-2.7759,-2.78,-2.78,-2.78,-2.7954,-2.8125,-2.8287,-2.8458,-2.8563,-2.8572,-2.8758,-2.8864,-2.8864,-2.8864,-2.8888,-2.8888,-2.8888,-2.8953,-2.9116,-2.914,-2.914,-2.914,-2.9311,-2.9229,-2.8953,-2.9075,-2.9164,-2.9164,-2.914,-2.9059,-2.8905,-2.8888,-2.8888,-2.8888,-2.8888,-2.8888,-2.8888,-2.8888,-2.8677,-2.8393,-2.8352,-2.8117,-2.7849,-2.7824,-2.7784,-2.7735,-2.7589,-2.7524,-2.7459,-2.7296,-2.7126,-2.6996,-2.6996,-2.715,-2.7027,-2.7043,-2.8124,-2.891,-2.8901,-2.9983,-3.08,-3.0781,-3.1034,-3.1062,-3.1062,-3.1091,-3.1091,-3.1091,-3.1242,-3.1365,-3.1412,-3.1563,-3.1686,-3.1733,-3.1714,-3.1714,-3.1733,-3.1469,-3.1289,-3.1214,-3.0987,-3.0694,-3.0269,-3.0269,-3.0193,-2.9994,-3.0042,-3.0174,-3.0391,-3.042,-3.0524,-3.0722,-3.0722,-3.0618,-1.6118,0.0,0.0,0.0,-1.8631,-1.95,-2.1408,-2.153,-2.1725,-2.3333,-2.4292,-2.4909,-2.5169,-2.5948,-2.6671,0.0,-2.7353,-2.7613,-2.7784,-2.78,-2.7759,-2.767,-2.7906,-2.8141,-2.8312,-2.8393,-2.8547,-2.8758,-2.8848,-2.8888,-2.8888,-2.8888,-2.8888,-2.8888,-2.8888,-2.8929,-2.8994,-2.9205,-2.9246,-2.914,-2.9335,-2.9335,-2.9181,-2.9164,-2.914,-2.914,-2.9034,-2.8953,-2.8888,-2.8888,-2.8888,-2.8888,-2.8888,-2.8888,-2.8888,-2.8888,-2.8718,-2.8482,-2.8377,-2.8165,-2.7954,-2.7841,-2.78,-2.7784,-2.7719,-2.7629,-2.7524,-2.7459,-2.7296,-2.7167,-2.7724,-2.7868,-2.8269,-2.8819,-2.9545,-3.0292,-3.0292,-3.0301,-3.0565,-3.111,-3.0847,-3.0565,-3.111,-3.1119,-3.1119,-3.1119,-3.1185,-3.1289,-3.1393,-3.1488,-3.1639,-3.1884,-3.1913,-3.1913,-3.1913,-3.1714,-3.161,-3.161,-3.1412,-3.1214,-3.1043,-3.1043,-3.0939,-3.0722,-3.0845,-3.0892,-3.0864,-3.0864,-3.0892,-3.0987,-3.0987,-3.0939,-1.7938,0.0,0.0,-1.9613,-2.0824,-2.1896,-2.2318,-2.2659,-2.3252,-2.4503,-2.5274,-2.5802,-2.6208,-2.672,0.0,-2.7418,-2.7548,-2.7654,-2.7784,-2.7719,-2.7589,-2.7418,-2.7548,-2.7719,-2.7946,-2.8182,-2.8458,-2.8783,-2.8799,-2.8823,-2.8888,-2.8888,-2.8888,-2.8888,-2.8888,-2.8905,-2.8953,-2.9205,-2.927,-2.914,-2.927,-2.9311,-2.927,-2.914,-2.9075,-2.9059,-2.8953,-2.8888,-2.8888,-2.8888,-2.8888,-2.8888,-2.8888,-2.8864,-2.8799,-2.8799,-2.8693,-2.8507,-2.8336,-2.8141,-2.7971,-2.7849,-2.78,-2.78,-2.78,-2.7719,-2.7613,-2.7613,-2.7732,-2.7832,-2.8391,-2.8785,-2.9138,-2.9697,-3.0393,-3.0847,-3.0847,-3.0565,-3.0556,-3.111,-3.0565,-3.0556,-3.111,-3.1119,-3.1138,-3.1185,-3.1195,-3.1242,-3.1317,-3.144,-3.161,-3.1913,-3.2007,-3.2036,-3.2036,-3.1866,-3.1762,-3.1809,-3.161,-3.1488,-3.1412,-3.1412,-3.1317,-3.1119,-3.1261,-3.1261,-3.1119,-3.1119,-3.1119,-3.1119,-3.1119,-3.1119,0.0,0.0,-1.8915,-2.084,-2.2399,-2.3739,-2.4779,-2.5169,-2.5404,-2.5802,-2.6168,-2.6444,-2.6444,-2.689,-2.7272,-2.7272,-2.7573,-2.78,-2.78,-2.7508,-2.7231,-2.7061,-2.672,-2.6655,0.0,-2.7824,-2.8417,-2.8612,-2.8612,-2.8693,-2.8888,-2.8888,-2.8888,-2.8888,-2.8888,-2.897,-2.914,-2.914,-2.914,-2.914,-2.914,-2.9059,-2.8905,-2.8888,-2.8888,-2.8888,-2.8888,-2.8888,-2.8888,-2.8888,-2.8888,-2.8888,-2.8888,-2.8783,-2.8612,-2.8612,-2.8507,-2.8312,-2.8141,-2.7971,-2.78,-2.78,-2.78,-2.78,-2.78,-2.78,-2.78,-2.78,-2.8113,-2.8399,-2.8399,-2.8665,-2.8927,-2.8927,-2.9483,-3.001,-3.001,-3.0565,-3.111,-3.1119,-3.111,-3.111,-3.1119,-3.1119,-3.1185,-3.1365,-3.1412,-3.1336,-3.1138,-3.1488,-3.1733,-3.1733,-3.1913,-3.2036,-3.2036,-3.1866,-3.1809,-3.2007,-3.1837,-3.1639,-3.1412,-3.1412,-3.1317,-3.1119,-3.1119,-3.1119,-3.1119,-3.1119,-3.1119,-3.1119,-3.1119,-3.1119,0.0,0.0,-2.1684,-2.3301,-2.4511,-2.5396,-2.5761,-2.5973,-2.6103,-2.6119,-2.5737,-2.5404,-2.5404,-2.5656,-2.5932,-2.6168,-2.6907,-2.7524,-2.7759,-2.7694,-2.7378,-2.672,-2.685,0.0,0.0,0.0,0.0,-2.823,-2.8352,-2.8507,-2.8693,-2.8823,-2.8888,-2.8888,-2.8888,-2.8905,-2.897,-2.9075,-2.9075,-2.897,-2.897,-2.8953,-2.8888,-2.8888,-2.8888,-2.8888,-2.8888,-2.8888,-2.8888,-2.8888,-2.8888,-2.8888,-2.8888,-2.8783,-2.8588,-2.8482,-2.8312,-2.8165,-2.8101,-2.7954,-2.78,-2.78,-2.7719,-2.7629,-2.7629,-2.7548,-2.7483,-2.7589,-2.8031,-2.8399,-2.8399,-2.9037,-2.9909,-2.9765,-3.0292,-3.0847,-3.0847,-3.0828,-3.1119,-3.1119,-3.1119,-3.1119,-3.1119,-3.1119,-3.1185,-3.1393,-3.1535,-3.1658,-3.1714,-3.1837,-3.1988,-3.214,-3.2083,-3.2036,-3.2036,-3.1866,-3.1762,-3.1837,-3.1639,-3.1488,-3.1412,-3.1412,-3.1317,-3.1119,-3.1242,-3.1242,-3.1119,-3.1119,-3.1119,-3.1119,-3.1119,-3.1119,-2.0158,-2.1806,-2.3398,-2.5039,-2.5973,-2.6509,-2.6509,-2.6525,-2.6484,-2.6168,-2.5185,-2.4381,-2.4381,-2.4275,-2.4292,-2.4657,-2.5567,-2.6444,-2.7061,-2.6907,-2.6679,-2.6484,-2.6549,-2.646,0.0,0.0,0.0,-2.7906,-2.8141,-2.8352,-2.8588,-2.8783,-2.8888,-2.8888,-2.8888,-2.8888,-2.8888,-2.8929,-2.8888,-2.8783,-2.8864,-2.8888,-2.8888,-2.8888,-2.8888,-2.8888,-2.8888,-2.8888,-2.8888,-2.8888,-2.8888,-2.8888,-2.8823,-2.8718,-2.8588,-2.8336,-2.8165,-2.8076,-2.7995,-2.7906,-2.78,-2.78,-2.7694,-2.7548,-2.7548,-2.7418,-2.7296,-2.7418,-2.7873,-2.8289,-2.8585,-2.9538,-3.0184,-3.0329,-3.0847,-3.1119,-3.1119,-3.1119,-3.1119,-3.1119,-3.1119,-3.1119,-3.1119,-3.1166,-3.1317,-3.1592,-3.1762,-3.1884,-3.2007,-3.2036,-3.2083,-3.2234,-3.2111,-3.2036,-3.2036,-3.1866,-3.1762,-3.1837,-3.1639,-3.1535,-3.1535,-3.1535,-3.1469,-3.1336,-3.1459,-3.1459,-3.1336,-3.1336,-3.1336,-3.1336,-3.1336,-3.1336,-2.1977,-2.3276,-2.4186,-2.6062,-2.6801,-2.7061,-2.7012,-2.6866,-2.6549,-2.5932,-2.4527,-2.3358,0.0,0.0,-2.2513,-2.2895,-2.3804,-2.4828,-2.5891,-2.5445,-2.538,0.0,0.0,0.0,0.0,0.0,0.0,-2.7694,0.0,-2.8206,-2.8572,-2.8783,-2.8888,-2.8888,-2.8888,-2.8888,-2.8888,-2.8718,-2.8612,-2.8612,-2.8799,-2.8888,-2.8888,-2.8888,-2.8888,-2.8888,-2.8888,-2.8888,-2.8888,-2.8888,-2.8888,-2.8864,-2.8677,-2.8588,-2.8547,-2.8206,-2.8076,-2.8036,-2.7865,-2.78,-2.7784,-2.7784,-2.767,-2.7524,-2.7524,-2.7394,-2.7248,-2.7248,-2.7682,-2.8371,-2.8941,-2.9626,-3.0292,-3.0837,-3.1119,-3.1119,-3.1119,-3.1119,-3.1119,-3.1119,-3.1119,-3.1119,-3.1119,-3.1289,-3.1563,-3.1941,-3.2036,-3.2064,-3.2064,-3.2064,-3.2064,-3.2064,-3.2064,-3.2064,-3.2064,-3.1866,-3.1837,-3.2036,-3.1837,-3.1733,-3.1733,-3.1733,-3.1733,-3.1733,-3.1733,-3.1733,-3.1733,-3.1733,-3.1733,-3.1733,-3.1733,-3.1733,-2.3682,-2.538,-2.6801,-2.7183,-2.7548,-2.7678,-2.7142,-2.676,-2.6078,-2.4462,-2.274,-2.1124,0.0,0.0,0.0,-2.2123,-2.4421,0.0,-2.7207,-2.7167,0.0,0.0,0.0,-2.672,-2.6549,-2.6655,0.0,0.0,-2.7654,-2.7889,-2.8377,-2.8718,-2.8888,-2.8888,-2.8758,-2.8742,-2.8888,-2.8848,-2.8742,-2.8612,-2.8799,-2.8888,-2.8888,-2.8888,-2.8888,-2.8888,-2.8888,-2.8888,-2.8888,-2.8888,-2.8799,-2.8677,-2.8628,-2.8442,-2.8206,-2.8125,-2.7995,-2.7865,-2.7824,-2.7719,-2.7613,-2.7613,-2.7394,-2.7142,-2.7142,-2.7012,-2.6907,-2.7037,-2.7785,-2.8758,-2.9182,-2.9891,-3.0828,-3.111,-3.1119,-3.1119,-3.1119,-3.1119,-3.1119,-3.1119,-3.1119,-3.1119,-3.1119,-3.1412,-3.1639,-3.1592,-3.1988,-3.2291,-3.2291,-3.2291,-3.2291,-3.2291,-3.2291,-3.2291,-3.2291,-3.2083,-3.1988,-3.2036,-3.1837,-3.1733,-3.1733,-3.1733,-3.1733,-3.1733,-3.1733,-3.1733,-3.1733,-3.1733,-3.1733,-3.1733,-3.1733,-3.1733,-2.5485,-2.689,-2.7906,-2.7889,-2.793,-2.7613,-2.6249,-2.5615,-2.4633,-2.2253,-2.0401,0.0,0.0,0.0,0.0,0.0,0.0,0.0,-2.6736,-2.6801,-2.6842,0.0,-2.7077,0.0,-2.6866,-2.6947,-2.7167,0.0,-2.7694,-2.7946,-2.8312,-2.8693,-2.8888,-2.8888,-2.8783,-2.8693,-2.8653,-2.8718,-2.8677,-2.8482,-2.8677,-2.8799,-2.8888,-2.8888,-2.8888,-2.8888,0.0,-2.8848,-2.8758,-2.7281,-2.7468,-2.8474,-2.6919,-2.7117,-2.8165,-2.8011,-2.7889,-2.78,-2.78,-2.7589,-2.7337,-2.75,-2.7313,-2.7012,-2.7012,-2.689,-2.6785,-2.7224,-2.7976,-2.8706,-2.9546,-3.0293,-3.0713,-3.1355,-3.1317,-3.1261,-3.1365,-3.1317,-3.1242,-3.1242,-3.1317,-3.1393,-3.1393,-3.1592,-3.1762,-3.1818,-3.2064,-3.2262,-3.2366,-3.2366,-3.2366,-3.2366,-3.2366,-3.2366,-3.2366,-3.2262,-3.2187,-3.2187,-3.2064,-3.2017,-3.2017,-3.2017,-3.2017,-3.2017,-3.2017,-3.2017,-3.2017,-3.2017,-3.2017,-3.2017,-3.2017,-3.2017,-2.7248,-2.7995,-2.8287,-2.8377,-2.8101,-2.7231,-2.5079,-2.408,-2.2765,-1.98,0.0,-1.6698,-1.6032,-1.7185,-1.8444,-1.9061,0.0,-2.434,-2.5761,-2.5826,-2.6143,-2.7272,-2.7118,-2.6972,-2.7142,-2.7167,-2.7288,-2.7589,-2.7954,-2.8206,-2.8336,-2.8693,-2.8584,-2.8247,-2.7975,-2.7514,-2.7722,-2.7913,-2.8214,-2.8336,-2.8523,-2.8718,-2.8888,-2.8888,-2.8584,-2.8287,0.0,0.0,-2.7119,-2.4446,-2.4929,-2.74,-2.4609,-2.5507,-2.8222,-2.7906,-2.78,-2.78,-2.78,-2.7483,-2.7142,-2.7418,-2.7272,-2.6972,-2.6972,-2.6866,-2.6769,-2.7751,-2.7951,-2.8175,-2.9886,-3.0439,-3.0633,-3.1352,-3.1563,-3.1488,-3.1667,-3.1563,-3.1459,-3.1459,-3.161,-3.1733,-3.1733,-3.1762,-3.1884,-3.2234,-3.2159,-3.214,-3.2291,-3.2338,-3.2366,-3.2366,-3.2366,-3.2366,-3.2366,-3.2366,-3.2366,-3.2366,-3.2366,-3.2366,-3.2366,-3.2366,-3.2366,-3.2366,-3.2366,-3.2366,-3.2366,-3.2366,-3.2366,-3.2366,-3.2366,-3.2385,-2.8563,-2.901,-2.9116,-2.8864,-2.8287,-2.7231,-2.5079,-2.3487,0.0,0.0,0.0,-1.5398,-1.4115,-1.5658,-1.7778,-1.9768,0.0,0.0,0.0,0.0,-2.7573,0.0,0.0,0.0,0.0,0.0,0.0,0.0,0.0,0.0,-2.8336,-2.8693,-2.7608,-2.479,-2.2215,-2.2096,-2.4036,-2.4601,-2.5838,-2.8336,-2.8523,-2.8718,-2.8888,-2.8888,-2.7381,-2.4973,0.0,0.0,-2.0881,-2.0295,-2.162,-2.4312,-2.3698,-2.5374,-2.7889,-2.7824,-2.78,-2.78,-2.78,-2.7654,-2.7443,-2.7353,-2.7077,-2.6777,-2.6777,-2.676,-2.6736,-2.6769,-2.7293,-2.8107,-2.8998,-2.9671,-3.0559,-3.0978,-3.1459,-3.1639,-3.1488,-3.1592,-3.1686,-3.1686,-3.1714,-3.1733,-3.1733,-3.1884,-3.196,-3.1866,-3.2111,-3.2262,-3.2111,-3.2262,-3.2366,-3.2366,-3.2366,-3.2366,-3.2366,-3.2366,-3.2366,-3.2366,-3.2366,-3.2366,-3.2366,-3.2366,-3.2366,-3.2366,-3.2366,-3.2366,-3.2366,-3.2366,-3.2366,-3.2366,-3.2366,-3.2461,-2.9116,-2.9351,-2.9351,-2.9075,-2.8206,-2.6631,-2.3723,0.0,0.0,0.0,0.0,-1.3855,-1.2978,0.0,0.0,0.0,0.0,0.0,0.0,0.0,0.0,0.0,0.0,0.0,0.0,0.0,0.0,0.0,0.0,0.0,-2.6124,-2.4558,-2.3147,-2.1583,-2.1638,-2.2449,-2.3639,-2.3782,-2.5309,-2.8482,-2.6779,-2.6318,-2.6475,-2.6475,-2.4683,-2.1681,-2.1681,0.0,-1.9098,-1.7264,-1.9235,-2.3226,-2.1675,-2.3995,-2.8076,-2.8076,-2.7954,-2.7824,-2.7906,-2.7719,-2.7402,-2.7418,-2.7167,-2.6866,-2.676,-2.6736,-2.676,-2.7392,-2.7709,-2.8286,-2.9617,-3.0289,-3.0918,-3.1474,-3.1913,-3.2017,-3.179,-3.1913,-3.2036,-3.1913,-3.1988,-3.2036,-3.1913,-3.2064,-3.2168,-3.2092,-3.2244,-3.2319,-3.2215,-3.2291,-3.2366,-3.2366,-3.2366,-3.2366,-3.2366,-3.2461,-3.2461,-3.2366,-3.2461,-3.2461,-3.2366,-3.2461,-3.2518,-3.2518,-3.264,-3.2688,-3.2688,-3.2688,-3.2688,-3.2688,-3.2688,-3.2735,-2.9376,-2.9522,-2.9457,-2.9205,-2.7748,-2.5455,-2.2375,-1.968,0.0,0.0,-1.2938,-1.2588,-1.2353,0.0,0.0,0.0,0.0,0.0,0.0,0.0,0.0,0.0,0.0,0.0,0.0,0.0,0.0,0.0,0.0,0.0,-2.389,-2.0428,-1.8379,-1.8379,-2.0181,-2.131,-2.1781,-2.1781,-2.3266,-2.6523,-2.3863,-2.2746,-2.316,-2.316,-2.1376,-1.8379,-1.8379,0.0,0.0,-1.4283,-1.689,-2.2144,-1.9703,-2.2644,-2.8336,-2.8336,-2.8165,-2.793,-2.8076,-2.7824,-2.7467,-2.7564,-2.7353,-2.7037,-2.689,-2.6842,-2.6874,-2.786,-2.7885,-2.823,-3.0208,-3.0605,-3.0968,-3.2018,-3.2338,-3.2262,-3.214,-3.2234,-3.231,-3.214,-3.2244,-3.231,-3.214,-3.2244,-3.2366,-3.2366,-3.2366,-3.2366,-3.2366,-3.2366,-3.2385,-3.2414,-3.2395,-3.2385,-3.2414,-3.2565,-3.2612,-3.2518,-3.264,-3.2659,-3.2518,-3.264,-3.2735,-3.2735,-3.2915,-3.299,-3.299,-3.299,-3.299,-3.299,-3.299,-3.3009,-2.9235,-2.9903,-2.9774,-2.927,-2.62,-2.3104,-2.1565,0.0,0.0,-1.3169,-1.2467,-1.2142,-1.228,0.0,0.0,0.0,0.0,0.0,0.0,0.0,0.0,0.0,0.0,0.0,0.0,0.0,0.0,0.0,0.0,0.0,0.0,-1.8379,-1.5088,-1.5088,-1.2394,-1.2359,-1.4952,-1.4952,-1.6733,-2.0004,-1.9702,-1.9477,-1.9876,-1.9876,-1.8085,-1.5088,-1.5088,0.0,0.0,-1.0187,-1.3705,-1.9218,-1.8919,-2.2742,-2.8336,-2.8336,-2.8312,-2.8287,-2.8312,-2.8182,-2.7971,-2.7824,-2.7548,-2.7248,-2.7231,-2.7231,-2.7231,-2.7231,-2.7256,-2.7807,-2.9237,-2.9648,-3.0396,-3.2036,-3.2215,-3.2111,-3.2291,-3.2338,-3.2366,-3.2338,-3.2338,-3.2366,-3.2338,-3.2338,-3.2366,-3.2366,-3.2366,-3.2366,-3.2366,-3.2366,-3.2442,-3.2612,-3.2461,-3.2442,-3.2612,-3.2659,-3.2735,-3.2915,-3.2933,-3.2933,-3.2933,-3.2933,-3.2962,-3.2962,-3.299,-3.299,-3.299,-3.299,-3.299,-3.299,-3.299,-3.3085,-2.9473,-3.0033,-2.9944,-2.9311,-2.6503,-2.3498,-2.1446,0.0,-1.4712,-1.3078,-1.2247,-1.1931,-1.2109,-1.2345,0.0,0.0,0.0,0.0,-2.045,-2.2107,-2.3829,0.0,0.0,0.0,0.0,0.0,0.0,0.0,0.0,0.0,0.0,-1.4198,-1.1493,-1.1493,-1.2394,-1.3276,-1.4442,-1.4442,-1.5936,-1.9212,-1.7127,-1.6253,-1.629,-1.629,-1.4796,-1.1493,-1.1493,0.0,0.0,-0.9616,-1.3481,-1.9142,-1.906,-2.2879,-2.8507,-2.8628,-2.8458,-2.8206,-2.8417,-2.8312,-2.806,-2.7995,-2.7865,-2.7694,-2.7378,-2.7272,-2.7272,-2.7272,-2.7353,-2.7716,-2.9385,-3.0387,-3.1679,-3.2329,-3.2291,-3.2262,-3.2338,-3.2366,-3.2366,-3.2366,-3.2366,-3.2366,-3.2366,-3.2366,-3.2366,-3.2366,-3.2366,-3.2366,-3.2366,-3.2366,-3.2442,-3.264,-3.2489,-3.2489,-3.2839,-3.2858,-3.2886,-3.299,-3.3113,-3.3113,-3.299,-3.3113,-3.316,-3.316,-3.3283,-3.3359,-3.3359,-3.3359,-3.3359,-3.3359,-3.3359,-3.3406,-2.8775,-2.9757,-2.9757,-2.8161,-2.5594,-2.2835,0.0,-1.7002,-1.4144,-1.2797,-1.2109,-1.1809,-1.1931,-1.2101,-1.254,0.0,0.0,-1.5601,-1.8103,-1.9784,-2.1595,0.0,0.0,0.0,0.0,0.0,0.0,0.0,0.0,0.0,0.0,-1.0892,-0.9692,-0.9692,-1.1798,-1.2986,-1.2957,-1.2957,-1.4158,-1.6539,-1.4158,-1.2975,-1.2994,-1.2994,-1.1795,-0.9692,0.0,0.0,0.0,-0.9643,-1.3542,-1.9267,-1.9158,-2.2964,-2.8612,-2.8693,-2.8482,-2.8182,-2.8442,-2.8336,-2.8076,-2.8076,-2.8036,-2.793,-2.7548,-2.7418,-2.7426,-2.7716,-2.808,-2.8763,-2.9947,-3.1479,-3.2461,-3.2461,-3.2461,-3.2442,-3.2385,-3.2366,-3.2366,-3.2366,-3.2366,-3.2366,-3.2366,-3.2366,-3.2366,-3.2366,-3.2366,-3.2366,-3.2366,-3.2366,-3.2461,-3.2735,-3.2565,-3.2612,-3.3037,-3.3009,-3.3037,-3.316,-3.3311,-3.3311,-3.3189,-3.3359,-3.3463,-3.3463,-3.368,-3.3784,-3.3784,-3.3737,-3.3708,-3.368,-3.3633,-3.3604,-2.7008,-2.8994,-2.9155,-2.5557,-2.2785,-1.9929,-1.6576,-1.3851,-1.1959,-1.2219,-1.2028,-1.1776,-1.1776,-1.1914,-1.2272,-1.2986,0.0,0.0,-1.8054,-1.8931,-2.0076,0.0,0.0,0.0,0.0,0.0,0.0,0.0,0.0,0.0,0.0,-0.9692,-0.9692,-0.9692,-0.9692,-0.9665,-0.9602,-0.9602,-0.9602,-0.9602,-0.9602,-0.9635,-0.9692,-0.9692,-0.9692,0.0,0.0,0.0,0.0,-0.9692,-1.3592,-1.9267,-1.9153,-2.2964,-2.8588,-2.8393,-2.8336,-2.8336,-2.8336,-2.823,-2.8076,-2.8076,-2.7954,-2.78,-2.78,-2.78,-2.8077,-2.8655,-3.0078,-3.126,-3.1469,-3.2078,-3.2669,-3.2669,-3.2669,-3.2612,-3.2414,-3.2366,-3.2366,-3.2366,-3.2366,-3.2366,-3.2366,-3.2366,-3.2366,-3.2366,-3.2366,-3.2366,-3.2366,-3.2366,-3.2518,-3.2933,-3.2792,-3.2839,-3.3236,-3.3113,-3.316,-3.3585,-3.3604,-3.3604,-3.3604,-3.3784,-3.3907,-3.3907,-3.4105,-3.4228,-3.4228,-3.4011,-3.3907,-3.3907,-3.3708,-3.3604,-2.4121,-2.5339,-2.565,-2.3475,-2.1468,-1.9501,-1.7471,-1.5063,-1.3275,-1.2491,-1.2028,-1.1776,-1.1776,-1.1817,-1.2328,-1.3774,-1.4107,0.0,0.0,0.0,0.0,0.0,0.0,0.0,0.0,0.0,0.0,0.0,0.0,0.0,0.0,-0.9692,-0.9692,-0.9692,-0.9692,-0.9665,-0.96,-0.96,-0.96,-0.96,-0.96,-0.9635,-0.9692,-0.9692,0.0,0.0,0.0,0.0,0.0,-0.9692,-1.3261,-1.9169,-1.9125,-2.284,-2.8247,-2.8312,-2.8182,-2.8011,-2.8247,-2.823,-2.8076,-2.8076,-2.8036,-2.7971,-2.7841,-2.78,-2.7808,-2.8655,-3.0175,-3.1451,-3.1497,-3.2106,-3.2716,-3.2839,-3.2669,-3.2518,-3.2735,-3.2669,-3.2612,-3.2763,-3.2669,-3.2565,-3.2565,-3.2461,-3.2366,-3.2366,-3.2366,-3.2366,-3.2366,-3.2366,-3.2518,-3.2933,-3.2792,-3.2886,-3.3463,-3.3463,-3.3538,-3.3812,-3.3954,-3.403,-3.403,-3.3954,-3.3982,-3.4134,-3.4058,-3.4086,-3.4228,-3.4152,-3.4134,-3.4134,-3.4058,-3.403,-2.1425,-2.2935,-2.3447,-2.1323,-2.0108,-1.8717,-1.6226,-1.4754,-1.3555,-1.2434,-1.1979,-1.1776,-1.1776,-1.1833,-1.2255,-1.3441,0.0,0.0,0.0,0.0,0.0,0.0,0.0,0.0,0.0,0.0,0.0,0.0,0.0,0.0,0.0,0.0,-0.9692,-0.9692,-0.9692,-0.9649,-0.9567,-0.9567,-0.9551,-0.9532,-0.9532,-0.9572,-0.9657,-0.9657,0.0,0.0,0.0,0.0,0.0,-1.0868,-1.4409,-1.9098,-2.0191,-2.3578,-2.8076,-2.8117,-2.7995,-2.7824,-2.806,-2.806,-2.7971,-2.7971,-2.7971,-2.7954,-2.7841,-2.8085,-2.8681,-2.9319,-3.0575,-3.1829,-3.1903,-3.2552,-3.2915,-3.2962,-3.2792,-3.264,-3.2839,-3.2688,-3.2593,-3.2735,-3.264,-3.2565,-3.264,-3.2565,-3.2518,-3.2584,-3.2593,-3.2565,-3.2489,-3.2537,-3.2735,-3.3066,-3.3066,-3.3236,-3.3803,-3.3708,-3.368,-3.3888,-3.4105,-3.4209,-3.4105,-3.4134,-3.4209,-3.4332,-3.4285,-3.4332,-3.4455,-3.4379,-3.4304,-3.4228,-3.4228,-3.4228,0.0,-2.1254,-2.1953,-1.8708,-1.8375,-1.7624,-1.356,-1.3106,0.0,-1.2231,-1.1906,-1.1784,-1.1825,-1.1939,-1.2125,-1.2426,0.0,0.0,0.0,0.0,0.0,0.0,0.0,0.0,0.0,0.0,0.0,0.0,0.0,0.0,0.0,0.0,-0.9692,-0.9692,-0.9692,-0.9635,-0.951,-0.951,-0.9482,-0.942,-0.942,-0.9482,-0.96,-0.96,0.0,0.0,0.0,0.0,0.0,-1.2606,-1.5832,-1.9356,-2.2054,-2.5152,-2.8036,-2.7865,-2.78,-2.78,-2.78,-2.78,-2.78,-2.78,-2.78,-2.78,-2.78,-2.8949,-3.0149,-3.0333,-3.1542,-3.2763,-3.2962,-3.3141,-3.3236,-3.3066,-3.299,-3.2915,-3.2735,-3.2537,-3.2395,-3.2414,-3.2414,-3.2461,-3.2659,-3.2688,-3.2763,-3.2962,-3.299,-3.2915,-3.2735,-3.2867,-3.3085,-3.3311,-3.351,-3.3784,-3.4209,-3.3907,-3.3756,-3.3935,-3.4152,-3.4181,-3.3982,-3.4332,-3.453,-3.4559,-3.4757,-3.4852,-3.4852,-3.4653,-3.4455,-3.4275,-3.4275,-3.4275,-1.5187,0.0,-1.7017,-1.5561,-1.5467,-1.5168,0.0,-1.3239,-1.2986,0.0,0.0,0.0,0.0,0.0,0.0,0.0,0.0,0.0,0.0,0.0,0.0,0.0,0.0,0.0,0.0,0.0,0.0,0.0,0.0,0.0,0.0,0.0,-0.9692,-0.9692,-0.9692,-0.9635,-0.951,-0.951,-0.9482,-0.942,-0.942,-0.9482,-0.96,-0.96,0.0,0.0,0.0,0.0,-0.9621,-1.0504,-1.3982,-1.8832,-1.9652,-2.3052,-2.7865,-2.7824,-2.78,-2.78,-2.78,-2.78,-2.78,-2.78,-2.78,-2.78,-2.78,-2.9042,-3.0316,-3.036,-3.1734,-3.316,-3.3207,-3.3264,-3.3311,-3.3434,-3.3085,-3.2811,-3.3085,-3.2858,-3.264,-3.2811,-3.2839,-3.2858,-3.2915,-3.2915,-3.2933,-3.299,-3.299,-3.3009,-3.3132,-3.3066,-3.3189,-3.3708,-3.3661,-3.3831,-3.4408,-3.4379,-3.4332,-3.4379,-3.4578,-3.4682,-3.4625,-3.4559,-3.4606,-3.4776,-3.4823,-3.4852,-3.4852,-3.4805,-3.4757,-3.4701,-3.4701,-3.4701,-1.3506,-1.444,-1.5293,-1.4903,-1.4684,-1.4416,-1.388,0.0,0.0,0.0,0.0,0.0,0.0,0.0,0.0,0.0,0.0,0.0,0.0,0.0,0.0,0.0,0.0,0.0,0.0,0.0,0.0,0.0,0.0,0.0,0.0,0.0,-0.9692,-0.9692,-0.9665,-0.9608,-0.951,-0.951,-0.9469,-0.9376,-0.9376,-0.9425,-0.9518,-0.9518,-0.9567,0.0,0.0,0.0,-0.9638,-1.1068,-1.4529,-1.8821,-2.0158,-2.354,-2.78,-2.78,-2.78,-2.78,-2.78,-2.78,-2.7824,-2.7906,-2.7865,-2.7824,-2.7995,-2.8982,-2.9941,-3.0518,-3.188,-3.3283,-3.3283,-3.3359,-3.3434,-3.3463,-3.3207,-3.299,-3.3113,-3.2886,-3.2688,-3.2811,-3.2839,-3.2886,-3.3085,-3.3132,-3.316,-3.3264,-3.3359,-3.3406,-3.3434,-3.351,-3.368,-3.403,-3.403,-3.4209,-3.4634,-3.4682,-3.4634,-3.453,-3.4729,-3.4805,-3.4701,-3.4682,-3.4729,-3.4852,-3.4852,-3.4852,-3.4852,-3.4852,-3.4852,-3.4852,-3.4852,-3.4852,-1.3165,-1.4008,-1.4688,-1.4838,-1.4724,-1.4408,-1.3863,0.0,0.0,0.0,0.0,0.0,0.0,0.0,0.0,0.0,0.0,0.0,0.0,0.0,0.0,0.0,0.0,0.0,0.0,0.0,0.0,0.0,0.0,0.0,0.0,0.0,0.0,-0.9692,-0.9635,-0.9572,-0.951,-0.9504,-0.9439,-0.9327,-0.9327,-0.9363,-0.942,-0.942,-0.9482,0.0,0.0,0.0,-0.9944,-1.2796,-1.5964,-1.8848,-2.2152,-2.5219,-2.78,-2.78,-2.78,-2.78,-2.78,-2.78,-2.7824,-2.7995,-2.7954,-2.7906,-2.8206,-2.8917,-2.9831,-3.0429,-3.2017,-3.333,-3.333,-3.3434,-3.351,-3.3359,-3.3264,-3.316,-3.3066,-3.2839,-3.2669,-3.2716,-3.2735,-3.2867,-3.3236,-3.3311,-3.3387,-3.3585,-3.3756,-3.3831,-3.3708,-3.3982,-3.4228,-3.4304,-3.4455,-3.4625,-3.4823,-3.4852,-3.4776,-3.4578,-3.4757,-3.4776,-3.4578,-3.4757,-3.4852,-3.4852,-3.4852,-3.4852,-3.4852,-3.4852,-3.4852,-3.4852,-3.4852,-3.4852,-1.3717,-1.3332,-1.2767,-1.3302,-1.362,-1.3669,0.0,0.0,0.0,0.0,0.0,0.0,0.0,0.0,0.0,0.0,0.0,0.0,0.0,0.0,0.0,0.0,0.0,0.0,0.0,0.0,0.0,0.0,0.0,0.0,0.0,0.0,0.0,-0.9692,-0.9635,-0.9572,-0.951,-0.9461,-0.9398,-0.9327,-0.9327,-0.9363,-0.942,-0.942,-0.9455,0.0,0.0,-0.9504,-0.9759,-1.3025,-1.5886,-1.8914,-2.2172,-2.5315,-2.78,-2.78,-2.78,-2.78,-2.78,-2.78,-2.78,-2.7841,-2.793,-2.8036,-2.8101,-2.8901,-3.0028,-3.0612,-3.1631,-3.2648,-3.3254,-3.3463,-3.3387,-3.3538,-3.316,-3.2839,-3.316,-3.2933,-3.2716,-3.2915,-3.3085,-3.3207,-3.3283,-3.3434,-3.3557,-3.3604,-3.3633,-3.3784,-3.4086,-3.403,-3.4152,-3.4701,-3.4625,-3.4625,-3.4823,-3.4852,-3.4833,-3.4805,-3.4823,-3.4833,-3.4805,-3.4823,-3.4852,-3.4852,-3.4852,-3.4852,-3.4852,-3.4852,-3.4852,-3.4852,-3.4852,-3.4852,-1.3035,-1.3123,-1.2796,-1.2366,-1.3158,-1.402,0.0,0.0,0.0,0.0,0.0,0.0,0.0,0.0,0.0,0.0,0.0,0.0,0.0,0.0,0.0,0.0,0.0,0.0,0.0,0.0,0.0,0.0,0.0,0.0,0.0,0.0,0.0,0.0,-0.96,-0.9537,-0.951,-0.942,-0.9357,-0.9327,-0.9327,-0.9341,-0.9371,-0.9371,-0.9406,-0.9461,0.0,-0.9461,-0.9764,-1.2694,-1.5849,-1.8958,-2.212,-2.5264,-2.78,-2.78,-2.78,-2.7824,-2.7906,-2.7889,-2.7824,-2.8036,-2.8076,-2.8125,-2.8312,-2.8766,-2.9509,-3.0786,-3.1766,-3.2712,-3.3301,-3.3538,-3.3482,-3.3585,-3.3387,-3.3189,-3.3264,-3.3132,-3.3037,-3.3132,-3.3207,-3.3311,-3.3434,-3.3538,-3.3604,-3.3604,-3.3708,-3.3878,-3.4181,-3.4228,-3.4408,-3.4805,-3.4757,-3.4757,-3.4852,-3.4852,-3.4852,-3.4852,-3.4852,-3.4852,-3.4852,-3.4852,-3.4852,-3.4852,-3.4852,-3.4852,-3.4852,-3.4852,-3.4852,-3.4852,-3.4852,-3.4852,-1.2692,-1.2904,-1.2698,0.0,0.0,0.0,0.0,0.0,0.0,0.0,0.0,0.0,0.0,0.0,0.0,0.0,0.0,0.0,0.0,0.0,0.0,0.0,0.0,0.0,0.0,0.0,0.0,0.0,0.0,0.0,0.0,0.0,0.0,0.0,-0.9572,-0.951,-0.951,-0.939,-0.9327,-0.9327,-0.9327,-0.9327,-0.9327,-0.9327,-0.9357,-0.9398,-0.9398,-0.9425,-0.9759,-1.2646,-1.5826,-1.8986,-2.2107,-2.5242,-2.78,-2.78,-2.78,-2.7824,-2.8019,-2.7954,-2.7865,-2.8222,-2.8247,-2.8206,-2.8507,-2.8628,-2.9004,-3.0596,-3.1533,-3.2409,-3.3301,-3.3538,-3.3482,-3.3585,-3.3482,-3.3387,-3.3359,-3.3311,-3.3311,-3.3359,-3.3359,-3.3406,-3.3585,-3.3604,-3.3633,-3.368,-3.3812,-3.3982,-3.4209,-3.4408,-3.4578,-3.4701,-3.4805,-3.4852,-3.4852,-3.4852,-3.4852,-3.4852,-3.4805,-3.4776,-3.4776,-3.4729,-3.4701,-3.4701,-3.4757,-3.4776,-3.4776,-3.4823,-3.4852,-3.4852,-3.4852,-3.4852,-1.4075,-1.2923,-1.1326,-1.242,0.0,0.0,0.0,0.0,0.0,0.0,0.0,0.0,0.0,0.0,0.0,0.0,0.0,0.0,0.0,0.0,0.0,0.0,0.0,0.0,0.0,0.0,0.0,0.0,0.0,0.0,0.0,0.0,0.0,0.0,0.0,-0.951,-0.951,-0.939,-0.9327,-0.9327,-0.9327,-0.9327,-0.9327,-0.9327,-0.9327,-0.9335,-0.9335,-0.9335,-0.9635,-1.2894,-1.6071,-1.8876,-2.2172,-2.5337,-2.78,-2.78,-2.78,-2.7824,-2.8019,-2.7954,-2.7865,-2.8222,-2.8328,-2.8352,-2.8547,-2.8734,-2.9152,-3.0648,-3.1238,-3.1533,-3.331,-3.3311,-3.3132,-3.351,-3.316,-3.2886,-3.3463,-3.3434,-3.334,-3.3538,-3.3585,-3.3585,-3.3604,-3.3604,-3.368,-3.386,-3.3907,-3.3982,-3.4209,-3.4408,-3.4455,-3.4304,-3.4625,-3.4852,-3.4852,-3.4852,-3.4852,-3.4852,-3.4653,-3.4559,-3.4559,-3.4379,-3.4275,-3.4275,-3.4455,-3.4559,-3.4559,-3.4757,-3.4852,-3.4852,-3.4852,-3.4852,-1.2897,-1.2094,0.0,0.0,0.0,0.0,0.0,0.0,0.0,0.0,0.0,0.0,0.0,0.0,0.0,0.0,0.0,0.0,0.0,0.0,0.0,0.0,0.0,0.0,0.0,0.0,0.0,0.0,0.0,0.0,0.0,0.0,0.0,0.0,0.0,-0.951,-0.951,-0.939,-0.9327,-0.9327,-0.9327,-0.9349,-0.9384,-0.9341,-0.9327,-0.9327,-0.9327,-0.9349,-0.9677,-1.2853,-1.5753,-1.9254,-2.415,-2.6697,-2.78,-2.78,-2.78,-2.7824,-2.8019,-2.8036,-2.8011,-2.8247,-2.8417,-2.8523,-2.8588,-2.9029,-2.9777,-3.0943,-3.1524,-3.2123,-3.332,-3.3482,-3.3406,-3.3557,-3.3434,-3.3311,-3.3557,-3.3538,-3.351,-3.3585,-3.3604,-3.3604,-3.3604,-3.3604,-3.368,-3.3878,-3.3907,-3.3982,-3.4209,-3.4304,-3.436,-3.4408,-3.4559,-3.4653,-3.4653,-3.4653,-3.4701,-3.4852,-3.4653,-3.453,-3.453,-3.4332,-3.4285,-3.4408,-3.4483,-3.4606,-3.4729,-3.4805,-3.4852,-3.4852,-3.4852,-3.4852,-1.1902,-1.1418,0.0,0.0,0.0,0.0,0.0,0.0,0.0,0.0,0.0,0.0,0.0,0.0,0.0,0.0,0.0,0.0,0.0,0.0,0.0,0.0,0.0,0.0,0.0,0.0,0.0,0.0,0.0,0.0,0.0,0.0,0.0,0.0,0.0,-0.9504,-0.9482,-0.9376,-0.9335,-0.9357,-0.9335,-0.9349,-0.939,-0.9349,-0.9327,-0.9327,-0.9327,-0.9349,-0.9384,-1.166,-1.486,-1.9254,-2.5536,-2.78,-2.78,-2.78,-2.7841,-2.7906,-2.8101,-2.8165,-2.8206,-2.8442,-2.8547,-2.8628,-2.8677,-2.9373,-3.0369,-3.0952,-3.1828,-3.2712,-3.3301,-3.3557,-3.3538,-3.3585,-3.3557,-3.3538,-3.3585,-3.3604,-3.3604,-3.3604,-3.3661,-3.368,-3.3614,-3.3661,-3.3756,-3.3888,-3.3907,-3.3954,-3.4105,-3.4181,-3.4304,-3.4502,-3.4408,-3.4379,-3.453,-3.453,-3.4606,-3.4757,-3.4559,-3.4427,-3.4427,-3.4228,-3.4181,-3.4332,-3.4455,-3.4606,-3.4757,-3.4823,-3.4852,-3.4852,-3.4852,-3.4852,-1.1029,0.0,0.0,0.0,0.0,0.0,0.0,0.0,0.0,0.0,0.0,0.0,0.0,0.0,0.0,0.0,0.0,0.0,0.0,0.0,0.0,0.0,0.0,0.0,0.0,0.0,0.0,0.0,0.0,0.0,0.0,0.0,0.0,0.0,0.0,-0.9482,-0.942,-0.9357,-0.9357,-0.942,-0.9357,-0.9327,-0.9327,-0.9327,-0.9327,-0.9327,-0.9327,-0.9327,-0.9327,-0.9327,-1.3091,-1.9142,-2.5483,-2.78,-2.78,-2.78,-2.7906,-2.8101,-2.8271,-2.8336,-2.8393,-2.8758,-2.8758,-2.8653,-2.8823,-2.9481,-3.0369,-3.0926,-3.181,-3.2712,-3.3301,-3.3434,-3.334,-3.3557,-3.3434,-3.334,-3.3557,-3.3604,-3.3604,-3.3604,-3.3756,-3.3831,-3.3633,-3.3784,-3.3907,-3.3907,-3.3907,-3.3907,-3.3907,-3.4105,-3.4304,-3.4502,-3.4152,-3.4086,-3.4483,-3.453,-3.453,-3.453,-3.4332,-3.4228,-3.4228,-3.403,-3.3907,-3.3907,-3.4304,-3.453,-3.453,-3.4757,-3.4852,-3.4852,-3.4852,-3.4852,-1.1402,0.0,0.0,0.0,0.0,0.0,0.0,0.0,0.0,0.0,0.0,0.0,0.0,0.0,0.0,0.0,0.0,0.0,0.0,0.0,0.0,0.0,0.0,0.0,0.0,0.0,0.0,0.0,0.0,0.0,0.0,0.0,0.0,0.0,-0.9545,-0.9482,-0.942,-0.9357,-0.9335,-0.9357,-0.9335,-0.9349,-0.939,-0.9349,-0.9327,-0.9327,-0.9327,-0.9349,-0.9686,-1.4054,-1.8352,-2.2317,-2.6349,-2.78,-2.78,-2.78,-2.7841,-2.7906,-2.8101,-2.823,-2.8377,-2.8612,-2.8734,-2.8823,-2.8864,-2.9777,-3.0926,-3.1071,-3.1915,-3.3048,-3.3207,-3.3236,-3.334,-3.3557,-3.3557,-3.3538,-3.3585,-3.3604,-3.3604,-3.3604,-3.3661,-3.368,-3.3614,-3.3661,-3.3737,-3.3888,-3.3907,-3.3907,-3.3907,-3.3954,-3.3982,-3.3888,-3.3907,-3.3907,-3.3878,-3.3878,-3.3935,-3.4086,-3.3907,-3.3935,-3.4228,-3.3878,-3.3756,-3.3907,-3.4181,-3.4379,-3.453,-3.4606,-3.4625,-3.4625,-3.4483,-3.4483,0.0,0.0,0.0,0.0,0.0,0.0,0.0,0.0,0.0,0.0,0.0,0.0,0.0,0.0,0.0,0.0,0.0,0.0,0.0,0.0,0.0,0.0,0.0,0.0,0.0,0.0,0.0,0.0,0.0,0.0,0.0,0.0,0.0,0.0,-0.9504,-0.9447,-0.9384,-0.9349,-0.9314,-0.9292,-0.9314,-0.9335,-0.9349,-0.9335,-0.9327,-0.9327,-0.9327,-0.9929,-1.1715,-1.6648,-2.0364,-2.3485,-2.665,-2.7849,-2.7906,-2.7824,-2.7889,-2.8036,-2.8141,-2.8287,-2.8482,-2.8653,-2.8799,-2.8888,-2.8888,-2.9777,-3.0899,-3.1001,-3.1834,-3.2945,-3.3028,-3.3085,-3.3207,-3.3434,-3.3538,-3.3604,-3.3604,-3.3604,-3.3604,-3.3604,-3.368,-3.3708,-3.3633,-3.368,-3.3737,-3.3784,-3.3784,-3.3784,-3.3784,-3.3708,-3.3661,-3.3604,-3.3557,-3.3538,-3.3482,-3.3557,-3.3661,-3.3784,-3.3756,-3.3831,-3.4086,-3.386,-3.3784,-3.3907,-3.4134,-3.4285,-3.4408,-3.4408,-3.4408,-3.4408,-3.4285,-3.4304,0.0,0.0,0.0,0.0,0.0,0.0,0.0,0.0,0.0,0.0,0.0,0.0,0.0,0.0,0.0,0.0,0.0,0.0,0.0,0.0,0.0,0.0,0.0,0.0,0.0,0.0,0.0,0.0,0.0,0.0,0.0,0.0,0.0,0.0,-0.9447,-0.9384,-0.9322,-0.9322,-0.9292,0.0,-0.9286,-0.9286,-0.9245,-0.93,-0.9327,-0.9327,-0.9327,-1.135,-1.4531,-1.7417,-2.0581,-2.3765,-2.6658,-2.7906,-2.8036,-2.7865,-2.8011,-2.8312,-2.8336,-2.8458,-2.8628,-2.8823,-2.8888,-2.8888,-2.8888,-2.9464,-3.0326,-3.0699,-3.1506,-3.2335,-3.2683,-3.2933,-3.3009,-3.3189,-3.3387,-3.3557,-3.3604,-3.3585,-3.3585,-3.3604,-3.3756,-3.3831,-3.3633,-3.3756,-3.3812,-3.3633,-3.3604,-3.3604,-3.3585,-3.3387,-3.334,-3.3538,-3.3207,-3.3066,-3.3236,-3.3434,-3.3557,-3.3585,-3.3756,-3.386,-3.3878,-3.3878,-3.3878,-3.3878,-3.4086,-3.4209,-3.4209,-3.4209,-3.4209,-3.4209,-3.4181,-3.4181,0.0,0.0,0.0,0.0,0.0,0.0,0.0,0.0,0.0,0.0,0.0,0.0,0.0,0.0,0.0,0.0,0.0,0.0,0.0,0.0,0.0,0.0,0.0,0.0,0.0,0.0,0.0,0.0,0.0,0.0,0.0,0.0,0.0,-0.9439,-0.9425,-0.9371,-0.9259,-0.9259,-0.9251,0.0,-0.9202,-0.9229,-0.9308,-0.9322,-0.9327,-0.9327,-0.9327,-1.2514,-1.7695,-1.8272,-2.173,-2.6928,-2.7507,-2.7824,-2.7865,-2.7824,-2.7954,-2.8141,-2.8287,-2.8458,-2.8628,-2.8823,-2.8888,-2.8888,-2.8888,-2.976,-3.0856,-3.0816,-3.1608,-3.2683,-3.2584,-3.2612,-3.2735,-3.2792,-3.2962,-3.3207,-3.3538,-3.3482,-3.3406,-3.3585,-3.3633,-3.3661,-3.3614,-3.3633,-3.3661,-3.3614,-3.3604,-3.3557,-3.3387,-3.3189,-3.3066,-3.3113,-3.3037,-3.3009,-3.3037,-3.3085,-3.3189,-3.334,-3.3387,-3.3482,-3.3661,-3.368,-3.368,-3.368,-3.3878,-3.3982,-3.3982,-3.3982,-3.3982,-3.3982,-3.3812,-3.4413,0.0,0.0,0.0,0.0,0.0,0.0,0.0,0.0,0.0,0.0,0.0,0.0,0.0,0.0,0.0,0.0,0.0,0.0,0.0,0.0,0.0,0.0,0.0,0.0,0.0,0.0,0.0,0.0,0.0,0.0,0.0,-0.9545,-0.9482,-0.942,-0.9363,-0.93,-0.9237,-0.921,-0.918,-0.9153,-0.9153,-0.9188,-0.9245,-0.93,-0.9327,-0.9327,-0.9327,-1.2797,-1.8565,-1.8565,-2.2317,-2.78,-2.78,-2.7865,-2.793,-2.7841,-2.7971,-2.8206,-2.8312,-2.8458,-2.8628,-2.8823,-2.8888,-2.8888,-2.8888,-2.9415,-3.0164,-3.056,-3.1246,-3.1921,-3.2289,-3.2518,-3.2537,-3.264,-3.2839,-3.3037,-3.3264,-3.3283,-3.3311,-3.3434,-3.3538,-3.3604,-3.3604,-3.3538,-3.3482,-3.3585,-3.3434,-3.3264,-3.316,-3.2962,-3.2867,-3.299,-3.2811,-3.2735,-3.2811,-3.2933,-3.299,-3.299,-3.3189,-3.3283,-3.3311,-3.3311,-3.3406,-3.3604,-3.3708,-3.3756,-3.3756,-3.3756,-3.3756,-3.3756,-3.3661,-3.4544,0.0,0.0,0.0,0.0,0.0,0.0,0.0,0.0,0.0,0.0,0.0,0.0,0.0,0.0,0.0,0.0,0.0,0.0,0.0,0.0,0.0,0.0,0.0,0.0,0.0,0.0,0.0,0.0,0.0,0.0,-0.9572,-0.9474,-0.9412,-0.9406,-0.9292,-0.9229,-0.9224,-0.9166,-0.9112,-0.9063,-0.9126,-0.9147,-0.9139,-0.9251,-0.93,-0.9314,-0.9322,-1.2797,-1.8565,-1.8565,-2.2317,-2.78,-2.78,-2.7889,-2.8019,-2.7889,-2.806,-2.8336,-2.8336,-2.8458,-2.8628,-2.8758,-2.8823,-2.8848,-2.8848,-2.9045,-2.9232,-3.0664,-3.1001,-3.0996,-3.2383,-3.2518,-3.2414,-3.2565,-3.2735,-3.2886,-3.2962,-3.3085,-3.3189,-3.3236,-3.3387,-3.3538,-3.3604,-3.3434,-3.334,-3.3538,-3.3236,-3.299,-3.299,-3.2763,-3.2688,-3.2858,-3.2612,-3.2489,-3.264,-3.2858,-3.2915,-3.2735,-3.3037,-3.316,-3.299,-3.3009,-3.3207,-3.3538,-3.3557,-3.3557,-3.3604,-3.3604,-3.3604,-3.3614,-3.3898,-3.476,0.0,0.0,0.0,0.0,0.0,0.0,0.0,0.0,0.0,0.0,0.0,0.0,0.0,0.0,0.0,0.0,0.0,0.0,0.0,0.0,0.0,0.0,0.0,0.0,0.0,0.0,0.0,0.0,0.0,0.0,-0.9447,-0.9425,-0.9398,-0.9341,-0.9273,-0.9215,-0.9166,-0.9104,-0.9068,-0.9063,-0.9126,-0.9126,-0.9076,-0.9147,-0.9202,-0.9251,-0.9308,-1.2797,-1.8565,-1.8565,-2.2317,-2.78,-2.78,-2.7824,-2.7865,-2.7995,-2.8165,-2.8336,-2.8336,-2.8458,-2.8588,-2.8458,-2.8523,-2.8653,-2.8653,-2.9626,-3.0882,-3.1001,-3.1671,-3.2608,-3.2707,-3.2518,-3.2366,-3.2395,-3.2414,-3.2537,-3.2915,-3.2858,-3.2811,-3.299,-3.3056,-3.3189,-3.3538,-3.3434,-3.3283,-3.334,-3.3132,-3.299,-3.299,-3.264,-3.2414,-3.2442,-3.2565,-3.264,-3.2669,-3.2858,-3.299,-3.2933,-3.299,-3.3009,-3.299,-3.316,-3.3264,-3.334,-3.334,-3.3415,-3.3604,-3.3604,-3.3604,-3.3614,-3.5063,-3.6506,0.0,0.0,0.0,0.0,0.0,0.0,0.0,0.0,0.0,0.0,0.0,0.0,0.0,0.0,0.0,0.0,0.0,0.0,0.0,0.0,0.0,0.0,0.0,0.0,0.0,0.0,0.0,0.0,0.0,-0.9474,-0.942,-0.9384,-0.9357,-0.9327,-0.9237,-0.9183,-0.9153,-0.9063,-0.9014,-0.9014,-0.9041,-0.9036,-0.9014,-0.9076,-0.9134,-0.9196,-0.9251,-1.2729,-1.8468,-1.8538,-2.2317,-2.78,-2.78,-2.78,-2.78,-2.7889,-2.8036,-2.8182,-2.8182,-2.8312,-2.8458,-2.8482,-2.8482,-2.8482,-2.8588,-2.9392,-3.0182,-3.0931,-3.1527,-3.2078,-3.2811,-3.2612,-3.2366,-3.2366,-3.2366,-3.2414,-3.2593,-3.2659,-3.2735,-3.2933,-3.299,-3.3085,-3.3387,-3.3264,-3.316,-3.3264,-3.3113,-3.2933,-3.2811,-3.264,-3.2584,-3.2688,-3.2688,-3.2716,-3.2839,-3.2933,-3.2886,-3.2659,-3.2735,-3.2763,-3.264,-3.2839,-3.299,-3.3113,-3.334,-3.351,-3.3604,-3.3604,-3.3604,-3.3614,-3.5053,-3.6787,0.0,0.0,0.0,0.0,0.0,0.0,0.0,0.0,0.0,0.0,0.0,0.0,0.0,0.0,0.0,0.0,0.0,0.0,0.0,0.0,0.0,0.0,0.0,0.0,0.0,0.0,0.0,0.0,0.0,-0.9412,-0.9398,-0.9357,-0.9327,-0.9327,-0.9229,-0.9166,-0.9153,-0.9036,-0.8973,-0.8973,-0.8973,-0.8973,-0.8973,-0.9022,-0.9063,-0.9112,-0.918,-1.2655,-1.8397,-1.8484,-2.2284,-2.78,-2.78,-2.78,-2.78,-2.7849,-2.7954,-2.8076,-2.8125,-2.823,-2.8352,-2.8442,-2.8417,-2.8352,-2.8442,-2.8926,-2.9712,-3.0887,-3.1184,-3.1995,-3.2905,-3.2688,-3.2366,-3.2366,-3.2366,-3.2366,-3.2366,-3.2489,-3.2669,-3.2933,-3.2915,-3.2915,-3.316,-3.3037,-3.2962,-3.3189,-3.3037,-3.2867,-3.2763,-3.2659,-3.2669,-3.2886,-3.2763,-3.2735,-3.2886,-3.2915,-3.2735,-3.2385,-3.2518,-3.2518,-3.2366,-3.2565,-3.2735,-3.2915,-3.3311,-3.3557,-3.3604,-3.3604,-3.3604,-3.3614,-3.5639,-3.7079,0.0,0.0,0.0,0.0,0.0,0.0,0.0,0.0,0.0,0.0,0.0,0.0,0.0,0.0,0.0,0.0,0.0,0.0,0.0,0.0,0.0,0.0,0.0,0.0,0.0,0.0,0.0,0.0,0.0,-0.939,-0.9335,-0.9327,-0.9327,-0.9327,-0.9265,-0.921,-0.9153,-0.9036,-0.8973,-0.8973,-0.8973,-0.8973,-0.8973,-0.8973,-0.8978,-0.8987,-0.9104,-1.2606,-1.8386,-1.8386,-2.218,-2.78,-2.78,-2.78,-2.7824,-2.7995,-2.8076,-2.8101,-2.8271,-2.8328,-2.8312,-2.8165,-2.8206,-2.8312,-2.8141,-2.9481,-3.0939,-3.0957,-3.1971,-3.2962,-3.299,-3.2688,-3.2366,-3.2366,-3.2366,-3.2366,-3.2366,-3.2366,-3.2489,-3.2915,-3.2659,-3.2518,-3.2933,-3.2811,-3.2763,-3.2962,-3.2811,-3.2735,-3.2933,-3.2612,-3.2461,-3.2659,-3.2669,-3.2669,-3.2688,-3.2688,-3.2593,-3.2385,-3.2366,-3.2366,-3.2366,-3.2565,-3.2669,-3.2688,-3.3085,-3.3406,-3.3604,-3.3604,-3.3604,-3.3614,-3.6819,-3.8245,0.0,0.0,0.0,0.0,0.0,0.0,0.0,0.0,0.0,0.0,0.0,0.0,0.0,0.0,0.0,0.0,0.0,0.0,0.0,0.0,0.0,0.0,0.0,0.0,0.0,0.0,0.0,0.0,0.0,0.0,-0.9273,-0.9273,-0.9251,-0.9215,-0.9153,-0.9098,-0.9036,-0.8992,-0.8973,-0.8973,-0.8973,-0.8992,-0.9027,-0.9027,-1.0175,-1.1909,-0.9985,-1.2576,-1.8561,-2.0636,-2.3911,-2.78,-2.78,-2.78,-2.78,-2.7889,-2.7971,-2.8076,-2.8141,-2.8165,-2.8182,-2.823,-2.8125,-2.8011,-2.8182,-2.9414,-3.0641,-3.0896,-3.188,-3.2811,-3.2962,-3.2688,-3.2366,-3.2366,-3.2366,-3.2366,-3.2366,-3.2366,-3.2414,-3.2565,-3.2461,-3.2414,-3.2565,-3.264,-3.2735,-3.2962,-3.3037,-3.3037,-3.299,-3.2858,-3.2735,-3.2669,-3.2669,-3.2669,-3.2669,-3.2669,-3.2584,-3.2385,-3.2366,-3.2414,-3.2537,-3.2612,-3.2735,-3.2867,-3.3009,-3.3189,-3.3406,-3.3538,-3.3604,-3.3614,-3.6798,-3.8255,-0.9541,0.0,0.0,0.0,0.0,0.0,0.0,0.0,0.0,0.0,0.0,0.0,0.0,0.0,0.0,0.0,0.0,0.0,0.0,0.0,0.0,0.0,0.0,0.0,0.0,0.0,0.0,0.0,0.0,0.0,-0.9237,-0.9215,-0.9196,-0.9153,-0.9098,-0.9041,-0.9,-0.8978,-0.8973,-0.8973,-0.8973,-0.8992,-0.9036,-0.9036,-1.0736,-1.3601,-1.2501,-1.5088,-1.9978,-2.0914,-2.3911,-2.78,-2.78,-2.78,-2.78,-2.78,-2.7889,-2.7995,-2.806,-2.8125,-2.8182,-2.8287,-2.8206,-2.8101,-2.8287,-2.9456,-3.0641,-3.0896,-3.188,-3.2811,-3.2933,-3.2688,-3.2366,-3.2366,-3.2366,-3.2366,-3.2366,-3.2366,-3.2366,-3.2366,-3.2366,-3.2366,-3.2366,-3.2593,-3.2792,-3.2867,-3.3066,-3.3113,-3.2915,-3.2811,-3.2735,-3.2669,-3.2612,-3.2593,-3.2659,-3.2612,-3.2518,-3.2366,-3.2442,-3.2518,-3.2659,-3.2735,-3.2839,-3.299,-3.3066,-3.316,-3.3283,-3.3434,-3.351,-3.3491,-3.6767,-3.8826,0.0,0.0,0.0,0.0,0.0,0.0,0.0,0.0,0.0,0.0,0.0,0.0,0.0,0.0,0.0,0.0,0.0,0.0,0.0,0.0,0.0,0.0,0.0,0.0,0.0,0.0,0.0,0.0,0.0,-0.9237,-0.9237,-0.9183,-0.9147,-0.9147,-0.909,-0.9063,-0.9063,-0.9,-0.8973,-0.8973,-0.8973,-0.8973,-0.8973,-0.8973,-1.0645,-1.3712,-1.6877,-2.0159,-2.2961,-2.0097,-2.2472,-2.78,-2.78,-2.78,-2.78,-2.78,-2.78,-2.7841,-2.8019,-2.8182,-2.8336,-2.8336,-2.8458,-2.8563,-2.8393,-2.9634,-3.0957,-3.0957,-3.198,-3.299,-3.2962,-3.2659,-3.2366,-3.2366,-3.2366,-3.2366,-3.2366,-3.2366,-3.2366,-3.2366,-3.2366,-3.2366,-3.2366,-3.2688,-3.2886,-3.2688,-3.2839,-3.2915,-3.2688,-3.2489,-3.2442,-3.264,-3.2489,-3.2442,-3.264,-3.2489,-3.2366,-3.2366,-3.2565,-3.2669,-3.2688,-3.2886,-3.299,-3.299,-3.3189,-3.3283,-3.3283,-3.3283,-3.3283,-3.3293,-3.6684,-3.9998,-0.9401,0.0,0.0,0.0,0.0,0.0,0.0,0.0,0.0,0.0,0.0,0.0,0.0,0.0,0.0,0.0,0.0,0.0,0.0,0.0,0.0,0.0,0.0,0.0,0.0,0.0,0.0,0.0,-0.9273,-0.9215,-0.9183,-0.9076,-0.9022,-0.9022,-0.9006,-0.9,-0.9,-0.8978,-0.8973,-0.8973,-0.8973,-0.8992,-0.9036,-1.1276,-1.3833,-1.6994,-1.7967,-2.1173,-2.6117,-2.5252,-2.621,-2.78,-2.78,-2.78,-2.78,-2.78,-2.7889,-2.8036,-2.8206,-2.8287,-2.8352,-2.8482,-2.8482,-2.8417,-2.8507,-2.9752,-3.0983,-3.1124,-3.2099,-3.2915,-3.2612,-3.2442,-3.2366,-3.2366,-3.2366,-3.2366,-3.2366,-3.2366,-3.2366,-3.2366,-3.2366,-3.2366,-3.2366,-3.2461,-3.2565,-3.264,-3.2716,-3.2735,-3.2669,-3.2612,-3.2537,-3.2461,-3.2395,-3.2385,-3.2442,-3.2537,-3.2593,-3.2593,-3.2792,-3.2962,-3.3113,-3.3037,-3.3066,-3.3207,-3.3113,-3.3066,-3.3066,-3.3359,-3.351,-3.351,-3.6767,-3.9998,-0.9625,0.0,0.0,0.0,0.0,0.0,0.0,-0.9767,0.0,0.0,0.0,0.0,0.0,0.0,0.0,0.0,0.0,0.0,0.0,0.0,0.0,0.0,0.0,0.0,0.0,-0.9327,-0.9327,-0.9327,-0.9273,-0.921,-0.9153,-0.9085,-0.9049,-0.9049,-0.9049,-0.9036,-0.9006,-0.9006,-0.9,-0.8973,-0.8973,-0.9845,-1.1028,-1.2715,-1.5829,-2.0123,-2.0249,-2.2839,-2.7337,-2.7483,-2.7654,-2.78,-2.78,-2.78,-2.78,-2.78,-2.7865,-2.7971,-2.8076,-2.8206,-2.8352,-2.8458,-2.8523,-2.8588,-2.8693,-2.9601,-3.0804,-3.1203,-3.2144,-3.2915,-3.2565,-3.2442,-3.2366,-3.2366,-3.2442,-3.2461,-3.2385,-3.2442,-3.2461,-3.2385,-3.2366,-3.2366,-3.2366,-3.2442,-3.2489,-3.2537,-3.2612,-3.264,-3.2537,-3.2537,-3.2518,-3.2489,-3.2489,-3.2518,-3.2612,-3.2735,-3.2792,-3.2792,-3.299,-3.316,-3.3283,-3.3264,-3.3311,-3.3406,-3.3311,-3.3236,-3.3236,-3.3406,-3.4086,-3.5639,-3.7392,-3.9998,-1.0025,-1.0263,0.0,0.0,0.0,0.0,-1.0642,-1.0102,-0.9254,0.0,0.0,0.0,0.0,0.0,0.0,0.0,0.0,0.0,0.0,0.0,0.0,0.0,0.0,0.0,-0.9327,-0.9327,-0.9327,-0.9327,-0.9273,-0.921,-0.9147,-0.9147,-0.9153,-0.9147,-0.9147,-0.9126,-0.9076,-0.9071,-0.9049,-0.8992,-0.9261,-1.0968,-1.3842,-1.44,-1.7478,-2.2554,-2.323,-2.4652,-2.7102,-2.7418,-2.7629,-2.7784,-2.78,-2.78,-2.78,-2.78,-2.78,-2.78,-2.7824,-2.8036,-2.8312,-2.8352,-2.8588,-2.8864,-2.8888,-2.9481,-3.0343,-3.1203,-3.2126,-3.2962,-3.2763,-3.2565,-3.2442,-3.2442,-3.2565,-3.2612,-3.2442,-3.2537,-3.2612,-3.2442,-3.2385,-3.2366,-3.2395,-3.2537,-3.2565,-3.2395,-3.2518,-3.2565,-3.2414,-3.2395,-3.2461,-3.2688,-3.2688,-3.2792,-3.2962,-3.3009,-3.3009,-3.3009,-3.3207,-3.3311,-3.3311,-3.351,-3.3604,-3.3604,-3.3604,-3.3604,-3.3604,-3.3717,-3.5147,-3.8255,-3.8557,-3.9976,-1.0358,-1.0962,-1.126,0.0,0.0,0.0,0.0,-1.0315,-1.0567,0.0,0.0,0.0,0.0,0.0,0.0,0.0,0.0,0.0,0.0,0.0,0.0,0.0,0.0,0.0,-0.9327,-0.9327,-0.9327,-0.9327,-0.9273,-0.9188,-0.9085,-0.9126,-0.9134,-0.9085,-0.9126,-0.9147,-0.9134,-0.9134,-0.9134,-0.912,-1.1606,-1.3009,-1.3942,-1.8632,-2.1456,-2.2977,-2.5272,-2.6768,-2.7443,-2.7524,-2.7564,-2.7613,-2.7735,-2.78,-2.78,-2.78,-2.78,-2.7824,-2.7971,-2.8076,-2.8182,-2.8458,-2.8612,-2.8693,-2.8848,-2.9481,-3.0326,-3.164,-3.2418,-3.3189,-3.299,-3.2886,-3.2858,-3.2858,-3.2763,-3.2659,-3.2612,-3.264,-3.2659,-3.2612,-3.2461,-3.2414,-3.2584,-3.2518,-3.2414,-3.2366,-3.2395,-3.2461,-3.2593,-3.2612,-3.2688,-3.2915,-3.2915,-3.2933,-3.299,-3.3132,-3.3236,-3.3236,-3.3434,-3.3538,-3.3538,-3.3585,-3.3604,-3.3604,-3.3604,-3.3604,-3.3604,-3.474,-3.6475,-3.8255,-3.944,-4.1076,-1.0933,-1.1328,-1.1545,-1.1246,0.0,0.0,0.0,0.0,0.0,0.0,0.0,-1.0822,-1.1685,0.0,0.0,0.0,0.0,0.0,0.0,0.0,0.0,0.0,0.0,0.0,-0.9322,-0.9327,-0.9327,-0.9327,-0.93,-0.9259,-0.9196,-0.9224,-0.9224,-0.9196,-0.9224,-0.921,-0.9153,-0.9183,-0.9166,-0.9104,-1.2214,-1.4491,-1.6236,-2.0685,-2.3475,-2.4887,-2.6664,-2.7272,-2.7288,-2.7483,-2.7548,-2.7564,-2.7735,-2.78,-2.78,-2.78,-2.78,-2.7824,-2.7906,-2.806,-2.823,-2.8417,-2.8588,-2.8758,-2.8864,-2.9769,-3.0917,-3.1409,-3.2482,-3.3264,-3.316,-3.3066,-3.299,-3.299,-3.299,-3.2933,-3.2839,-3.2915,-3.2962,-3.2962,-3.2811,-3.2669,-3.2669,-3.2593,-3.2518,-3.2518,-3.2612,-3.2716,-3.2811,-3.2811,-3.2915,-3.3113,-3.3132,-3.3189,-3.3283,-3.3387,-3.3434,-3.3434,-3.3557,-3.3604,-3.3604,-3.3604,-3.3604,-3.3604,-3.3604,-3.3604,-3.3604,-3.5053,-3.6808,-3.8255,-4.0021,-4.1387,0.0,0.0,0.0,0.0,0.0,-1.0927,0.0,0.0,0.0,0.0,0.0,0.0,0.0,0.0,0.0,0.0,0.0,0.0,0.0,-1.1015,0.0,0.0,0.0,0.0,-0.9721,-0.9689,-0.9447,-0.9314,-0.9478,-0.9447,-0.93,-0.9322,-0.9322,-0.9314,-0.9308,-0.9265,-0.9166,-0.9202,-0.9455,-0.9923,-1.3091,-1.625,-1.91,-2.2187,-2.4954,-2.7167,-2.7248,-2.7231,-2.7183,-2.7443,-2.7564,-2.7613,-2.7735,-2.78,-2.78,-2.78,-2.78,-2.78,-2.78,-2.8011,-2.8287,-2.8312,-2.8588,-2.8888,-2.8888,-3.0056,-3.1238,-3.1238,-3.2308,-3.3359,-3.3359,-3.3236,-3.3113,-3.3113,-3.3189,-3.3236,-3.3085,-3.316,-3.3283,-3.3283,-3.316,-3.299,-3.2811,-3.2763,-3.2735,-3.2735,-3.2867,-3.3009,-3.3037,-3.3037,-3.3113,-3.334,-3.3359,-3.3406,-3.3585,-3.3604,-3.3604,-3.3604,-3.3604,-3.3604,-3.3604,-3.3604,-3.3604,-3.3604,-3.3604,-3.3604,-3.3604,-3.5336,-3.71,-3.8255,-4.0021,-4.1457,0.0,0.0,0.0,0.0,-1.2467,0.0,0.0,0.0,0.0,0.0,0.0,0.0,0.0,0.0,0.0,0.0,0.0,0.0,-1.2911,-1.1885,-1.1385,-1.2542,0.0,0.0,0.0,-1.0733,-1.018,-0.9273,-1.0032,-0.9903,-0.921,-0.93,-0.93,-0.9251,-0.9245,-0.9245,-0.9229,-0.9183,-1.0574,-1.3099,-1.6226,-1.94,-2.2359,-2.5347,-2.7145,-2.7694,-2.7402,-2.7443,-2.7694,-2.7589,-2.7629,-2.7784,-2.78,-2.78,-2.78,-2.78,-2.78,-2.78,-2.78,-2.793,-2.8141,-2.8287,-2.8588,-2.8888,-2.8888,-3.0056,-3.1238,-3.1238,-3.2409,-3.3585,-3.3585,-3.3557,-3.3538,-3.3538,-3.3406,-3.3283,-3.3264,-3.3264,-3.3283,-3.3283,-3.3264,-3.3236,-3.3207,-3.3066,-3.2962,-3.2962,-3.2962,-3.3056,-3.3236,-3.3264,-3.334,-3.3557,-3.3585,-3.3585,-3.3604,-3.3604,-3.3604,-3.3604,-3.3604,-3.3604,-3.3604,-3.3604,-3.3604,-3.3604,-3.3604,-3.3604,-3.3614,-3.6506,-3.7975,-3.8255,-4.0021,-4.1364,0.0,0.0,0.0,0.0,0.0,0.0,0.0,0.0,-1.1523,0.0,0.0,0.0,0.0,0.0,0.0,0.0,-1.2528,0.0,0.0,0.0,-1.107,0.0,0.0,0.0,0.0,0.0,0.0,0.0,-0.9171,-0.9395,-0.9112,-0.9224,-0.9278,-0.9286,-0.9259,-0.9237,-0.9237,-1.0885,-1.2269,-1.3683,-1.85,-2.1316,-2.2696,-2.5748,-2.7207,-2.7337,-2.7296,-2.7418,-2.7654,-2.7678,-2.7735,-2.78,-2.78,-2.78,-2.78,-2.78,-2.78,-2.7824,-2.793,-2.8076,-2.8271,-2.8563,-2.8758,-2.8888,-2.9481,-3.0352,-3.1238,-3.1828,-3.2722,-3.3604,-3.3604,-3.3604,-3.3604,-3.3604,-3.3538,-3.3482,-3.3482,-3.3482,-3.3482,-3.3482,-3.3482,-3.3482,-3.3482,-3.3311,-3.316,-3.316,-3.3264,-3.3387,-3.3463,-3.3482,-3.351,-3.3604,-3.3604,-3.3604,-3.3604,-3.3604,-3.3604,-3.3604,-3.3604,-3.3604,-3.3604,-3.3604,-3.3604,-3.3604,-3.3604,-3.3604,-3.3614,-3.5921,-3.7392,-3.8255,-4.0879,-4.2276,-1.2292,0.0,0.0,0.0,0.0,0.0,0.0,0.0,0.0,0.0,0.0,0.0,0.0,0.0,0.0,0.0,0.0,-1.256,0.0,-1.2103,0.0,0.0,0.0,0.0,0.0,0.0,0.0,-0.9425,-0.9127,-0.8948,-0.9027,-0.9147,-0.9224,-0.93,-0.9245,-0.921,-0.9188,-1.1963,-1.3896,-1.4734,-2.0129,-2.2915,-2.3634,-2.5941,-2.7118,-2.7167,-2.7288,-2.7443,-2.7629,-2.7759,-2.78,-2.78,-2.78,-2.78,-2.78,-2.78,-2.78,-2.7824,-2.7954,-2.8141,-2.8393,-2.8758,-2.8888,-2.9193,-2.9777,-3.0656,-3.1247,-3.2123,-3.3007,-3.3604,-3.3604,-3.3604,-3.3604,-3.3604,-3.3604,-3.3604,-3.3604,-3.3604,-3.3604,-3.3604,-3.3604,-3.3604,-3.3604,-3.3482,-3.3387,-3.3387,-3.351,-3.3604,-3.3604,-3.3604,-3.3604,-3.3604,-3.3604,-3.3604,-3.3604,-3.3604,-3.3633,-3.368,-3.3633,-3.3633,-3.368,-3.3633,-3.3604,-3.3604,-3.3604,-3.3604,-3.3604,-3.5639,-3.7079,-3.8255,-4.1157,-4.2624,0.0,0.0,0.0,-1.2553,0.0,0.0,0.0,0.0,-1.1913,0.0,0.0,0.0,0.0,0.0,0.0,0.0,0.0,0.0,0.0,0.0,0.0,0.0,0.0,0.0,0.0,-1.1778,-1.106,0.0,-0.9897,-0.9441,-0.8992,-0.9068,-0.9117,-0.9237,-0.9188,-0.9126,-0.9068,-1.2079,-1.4822,-1.7864,-2.1049,-2.4204,-2.6735,-2.7183,-2.7353,-2.7524,-2.7524,-2.7629,-2.78,-2.78,-2.78,-2.78,-2.78,-2.78,-2.78,-2.78,-2.78,-2.78,-2.78,-2.8036,-2.8393,-2.8758,-2.8888,-2.9193,-2.9777,-3.0656,-3.1247,-3.2123,-3.3007,-3.3604,-3.3604,-3.3604,-3.3604,-3.3604,-3.3604,-3.3604,-3.3604,-3.3604,-3.3604,-3.3604,-3.3604,-3.3604,-3.3604,-3.3604,-3.3604,-3.3604,-3.3604,-3.3604,-3.3604,-3.3604,-3.3604,-3.3604,-3.3604,-3.3604,-3.3604,-3.3604,-3.368,-3.3888,-3.3708,-3.368,-3.3888,-3.3708,-3.3604,-3.3604,-3.3604,-3.3604,-3.3614,-3.6808,-3.8255,-3.8255,-4.0021,-4.1457,0.0,0.0,-1.0868,-1.1768,0.0,0.0,0.0,0.0,0.0,0.0,0.0,0.0,0.0,0.0,0.0,0.0,0.0,0.0,0.0,0.0,0.0,0.0,0.0,0.0,0.0,0.0,0.0,-0.9904,-0.9005,-0.8412,-0.8665,-0.8894,-0.9041,-0.9117,-0.9139,-1.0015,-1.2027,-1.4913,-1.7891,-2.1049,-2.3789,-2.5785,-2.7012,-2.6947,-2.7142,-2.7548,-2.7418,-2.7524,-2.78,-2.78,-2.78,-2.78,-2.78,-2.78,-2.78,-2.78,-2.78,-2.7841,-2.8076,-2.8393,-2.8718,-2.8848,-2.8888,-2.9177,-3.0352,-3.0952,-3.1524,-3.2703,-3.3301,-3.3604,-3.3604,-3.3604,-3.3604,-3.3604,-3.3604,-3.3604,-3.3604,-3.3604,-3.3604,-3.3604,-3.3604,-3.3604,-3.3604,-3.3604,-3.3604,-3.3604,-3.3604,-3.3604,-3.3604,-3.3604,-3.3604,-3.3604,-3.3604,-3.3604,-3.3604,-3.3737,-3.3907,-3.4105,-3.4058,-3.3982,-3.3907,-3.3831,-3.3737,-3.3604,-3.3604,-3.3604,-3.3614,-3.6819,-3.8255,-3.8255,-4.089,-4.2359,-0.9587,-0.9793,0.0,-1.124,-1.0688,0.0,-1.0691,0.0,0.0,0.0,0.0,0.0,0.0,0.0,0.0,0.0,0.0,0.0,0.0,-1.1736,0.0,0.0,0.0,0.0,0.0,0.0,-1.0202,-0.9708,-0.8448,-0.8114,0.0,0.0,-0.8916,-0.8992,-1.0255,-1.1749,-1.3723,-1.7478,-2.0431,-2.2425,-2.5409,-2.6842,-2.7012,-2.6955,-2.7167,-2.7548,-2.7483,-2.7589,-2.78,-2.78,-2.78,-2.78,-2.78,-2.78,-2.78,-2.78,-2.78,-2.7841,-2.8141,-2.8442,-2.8693,-2.8758,-2.8823,-2.9177,-3.0639,-3.1238,-3.1524,-3.3016,-3.3604,-3.3604,-3.3604,-3.3604,-3.3604,-3.3604,-3.3604,-3.3604,-3.3604,-3.3604,-3.3604,-3.3604,-3.3604,-3.3604,-3.3604,-3.3604,-3.3604,-3.3604,-3.3604,-3.3604,-3.3604,-3.3604,-3.3604,-3.3604,-3.3604,-3.3604,-3.3604,-3.3737,-3.3888,-3.4105,-3.4058,-3.3954,-3.3812,-3.3812,-3.3708,-3.351,-3.3557,-3.3604,-3.3614,-3.6819,-3.8255,-3.8255,-4.1457,-4.2924]}]]